<?xml version="1.0" encoding="UTF-8" standalone="no" ?>
<gpx xmlns="http://www.topografix.com/GPX/1/1" xmlns:xsi="http://www.w3.org/2001/XMLSchema-instance" xsi:schemaLocation="http://www.topografix.com/GPX/1/1 http://www.topografix.com/GPX/1/1/gpx.xsd" version="1.1" creator="VisuGPX - https://www.visugpx.com">
  <metadata>
    <name>Sortie club Nontron-Tunnel</name>
    <desc><![CDATA[sortie facile de 30 km autour de nontron 
avec comme point final le tunnel   viaduc de l\'ancienne voie ferrée

prévoir un éclairage]]></desc>
  </metadata>
  <trk>
    <name><![CDATA[sortie club plus de batterie]]></name>
    <trkseg>
      <trkpt lat="45.53118" lon="0.66359">
        <ele>228</ele>
        <time>2012-12-02T08:10:52Z</time>
      </trkpt>
      <trkpt lat="45.53118" lon="0.66359">
        <ele>228</ele>
        <time>2012-12-02T08:10:56Z</time>
      </trkpt>
      <trkpt lat="45.53114" lon="0.66355">
        <ele>228</ele>
        <time>2012-12-02T08:11:16Z</time>
      </trkpt>
      <trkpt lat="45.53116" lon="0.6636">
        <ele>228</ele>
        <time>2012-12-02T08:11:23Z</time>
      </trkpt>
      <trkpt lat="45.53115" lon="0.66356">
        <ele>228</ele>
        <time>2012-12-02T08:11:33Z</time>
      </trkpt>
      <trkpt lat="45.53108" lon="0.66353">
        <ele>228</ele>
        <time>2012-12-02T08:13:00Z</time>
      </trkpt>
      <trkpt lat="45.53109" lon="0.66358">
        <ele>228</ele>
        <time>2012-12-02T08:14:38Z</time>
      </trkpt>
      <trkpt lat="45.53106" lon="0.66365">
        <ele>228</ele>
        <time>2012-12-02T08:18:03Z</time>
      </trkpt>
      <trkpt lat="45.53103" lon="0.66375">
        <ele>228</ele>
        <time>2012-12-02T08:18:08Z</time>
      </trkpt>
      <trkpt lat="45.53107" lon="0.66385">
        <ele>229</ele>
        <time>2012-12-02T08:18:12Z</time>
      </trkpt>
      <trkpt lat="45.53113" lon="0.66388">
        <ele>229</ele>
        <time>2012-12-02T08:18:15Z</time>
      </trkpt>
      <trkpt lat="45.53118" lon="0.66404">
        <ele>229</ele>
        <time>2012-12-02T08:18:20Z</time>
      </trkpt>
      <trkpt lat="45.53124" lon="0.664">
        <ele>229</ele>
        <time>2012-12-02T08:18:27Z</time>
      </trkpt>
      <trkpt lat="45.53138" lon="0.66413">
        <ele>230</ele>
        <time>2012-12-02T08:18:34Z</time>
      </trkpt>
      <trkpt lat="45.53151" lon="0.66425">
        <ele>232</ele>
        <time>2012-12-02T08:18:40Z</time>
      </trkpt>
      <trkpt lat="45.53165" lon="0.66441">
        <ele>232</ele>
        <time>2012-12-02T08:18:48Z</time>
      </trkpt>
      <trkpt lat="45.53172" lon="0.66448">
        <ele>235</ele>
        <time>2012-12-02T08:18:52Z</time>
      </trkpt>
      <trkpt lat="45.53178" lon="0.66454">
        <ele>236</ele>
        <time>2012-12-02T08:18:56Z</time>
      </trkpt>
      <trkpt lat="45.53178" lon="0.66467">
        <ele>236</ele>
        <time>2012-12-02T08:19:01Z</time>
      </trkpt>
      <trkpt lat="45.53184" lon="0.66475">
        <ele>237</ele>
        <time>2012-12-02T08:19:05Z</time>
      </trkpt>
      <trkpt lat="45.532" lon="0.66489">
        <ele>237</ele>
        <time>2012-12-02T08:19:12Z</time>
      </trkpt>
      <trkpt lat="45.53205" lon="0.66498">
        <ele>237</ele>
        <time>2012-12-02T08:19:16Z</time>
      </trkpt>
      <trkpt lat="45.53207" lon="0.66511">
        <ele>238</ele>
        <time>2012-12-02T08:19:24Z</time>
      </trkpt>
      <trkpt lat="45.53213" lon="0.66537">
        <ele>238</ele>
        <time>2012-12-02T08:19:31Z</time>
      </trkpt>
      <trkpt lat="45.53222" lon="0.66556">
        <ele>239</ele>
        <time>2012-12-02T08:19:36Z</time>
      </trkpt>
      <trkpt lat="45.53227" lon="0.66566">
        <ele>239</ele>
        <time>2012-12-02T08:19:39Z</time>
      </trkpt>
      <trkpt lat="45.53234" lon="0.66582">
        <ele>239</ele>
        <time>2012-12-02T08:19:44Z</time>
      </trkpt>
      <trkpt lat="45.5324" lon="0.66592">
        <ele>240</ele>
        <time>2012-12-02T08:19:48Z</time>
      </trkpt>
      <trkpt lat="45.53244" lon="0.66597">
        <ele>240</ele>
        <time>2012-12-02T08:19:50Z</time>
      </trkpt>
      <trkpt lat="45.53249" lon="0.66607">
        <ele>240</ele>
        <time>2012-12-02T08:19:53Z</time>
      </trkpt>
      <trkpt lat="45.53259" lon="0.66626">
        <ele>245</ele>
        <time>2012-12-02T08:19:59Z</time>
      </trkpt>
      <trkpt lat="45.53265" lon="0.66637">
        <ele>245</ele>
        <time>2012-12-02T08:20:04Z</time>
      </trkpt>
      <trkpt lat="45.53269" lon="0.66645">
        <ele>245</ele>
        <time>2012-12-02T08:20:06Z</time>
      </trkpt>
      <trkpt lat="45.53276" lon="0.66657">
        <ele>246</ele>
        <time>2012-12-02T08:20:10Z</time>
      </trkpt>
      <trkpt lat="45.53287" lon="0.66676">
        <ele>249</ele>
        <time>2012-12-02T08:20:16Z</time>
      </trkpt>
      <trkpt lat="45.533" lon="0.66702">
        <ele>251</ele>
        <time>2012-12-02T08:20:24Z</time>
      </trkpt>
      <trkpt lat="45.53307" lon="0.66715">
        <ele>251</ele>
        <time>2012-12-02T08:20:28Z</time>
      </trkpt>
      <trkpt lat="45.53314" lon="0.66728">
        <ele>252</ele>
        <time>2012-12-02T08:20:32Z</time>
      </trkpt>
      <trkpt lat="45.53318" lon="0.66735">
        <ele>253</ele>
        <time>2012-12-02T08:20:34Z</time>
      </trkpt>
      <trkpt lat="45.53326" lon="0.66747">
        <ele>254</ele>
        <time>2012-12-02T08:20:38Z</time>
      </trkpt>
      <trkpt lat="45.53339" lon="0.66764">
        <ele>257</ele>
        <time>2012-12-02T08:20:44Z</time>
      </trkpt>
      <trkpt lat="45.53343" lon="0.6677">
        <ele>258</ele>
        <time>2012-12-02T08:20:46Z</time>
      </trkpt>
      <trkpt lat="45.53352" lon="0.66781">
        <ele>258</ele>
        <time>2012-12-02T08:20:50Z</time>
      </trkpt>
      <trkpt lat="45.53358" lon="0.66788">
        <ele>259</ele>
        <time>2012-12-02T08:20:53Z</time>
      </trkpt>
      <trkpt lat="45.53369" lon="0.66801">
        <ele>259</ele>
        <time>2012-12-02T08:20:58Z</time>
      </trkpt>
      <trkpt lat="45.53381" lon="0.66815">
        <ele>260</ele>
        <time>2012-12-02T08:21:03Z</time>
      </trkpt>
      <trkpt lat="45.53392" lon="0.6683">
        <ele>260</ele>
        <time>2012-12-02T08:21:08Z</time>
      </trkpt>
      <trkpt lat="45.534" lon="0.66838">
        <ele>263</ele>
        <time>2012-12-02T08:21:12Z</time>
      </trkpt>
      <trkpt lat="45.5341" lon="0.66851">
        <ele>264</ele>
        <time>2012-12-02T08:21:17Z</time>
      </trkpt>
      <trkpt lat="45.53423" lon="0.66867">
        <ele>267</ele>
        <time>2012-12-02T08:21:23Z</time>
      </trkpt>
      <trkpt lat="45.53432" lon="0.66878">
        <ele>268</ele>
        <time>2012-12-02T08:21:27Z</time>
      </trkpt>
      <trkpt lat="45.53443" lon="0.66891">
        <ele>268</ele>
        <time>2012-12-02T08:21:31Z</time>
      </trkpt>
      <trkpt lat="45.53447" lon="0.66896">
        <ele>269</ele>
        <time>2012-12-02T08:21:33Z</time>
      </trkpt>
      <trkpt lat="45.53464" lon="0.66915">
        <ele>269</ele>
        <time>2012-12-02T08:21:40Z</time>
      </trkpt>
      <trkpt lat="45.53476" lon="0.66927">
        <ele>272</ele>
        <time>2012-12-02T08:21:45Z</time>
      </trkpt>
      <trkpt lat="45.53488" lon="0.66937">
        <ele>272</ele>
        <time>2012-12-02T08:21:50Z</time>
      </trkpt>
      <trkpt lat="45.53496" lon="0.66944">
        <ele>273</ele>
        <time>2012-12-02T08:21:54Z</time>
      </trkpt>
      <trkpt lat="45.53506" lon="0.66954">
        <ele>272</ele>
        <time>2012-12-02T08:21:58Z</time>
      </trkpt>
      <trkpt lat="45.53515" lon="0.66965">
        <ele>272</ele>
        <time>2012-12-02T08:22:02Z</time>
      </trkpt>
      <trkpt lat="45.53529" lon="0.66979">
        <ele>272</ele>
        <time>2012-12-02T08:22:07Z</time>
      </trkpt>
      <trkpt lat="45.53542" lon="0.66993">
        <ele>272</ele>
        <time>2012-12-02T08:22:12Z</time>
      </trkpt>
      <trkpt lat="45.53555" lon="0.67004">
        <ele>274</ele>
        <time>2012-12-02T08:22:18Z</time>
      </trkpt>
      <trkpt lat="45.53567" lon="0.67015">
        <ele>273</ele>
        <time>2012-12-02T08:22:24Z</time>
      </trkpt>
      <trkpt lat="45.53579" lon="0.67026">
        <ele>273</ele>
        <time>2012-12-02T08:22:28Z</time>
      </trkpt>
      <trkpt lat="45.53599" lon="0.67048">
        <ele>271</ele>
        <time>2012-12-02T08:22:34Z</time>
      </trkpt>
      <trkpt lat="45.53624" lon="0.67068">
        <ele>270</ele>
        <time>2012-12-02T08:22:39Z</time>
      </trkpt>
      <trkpt lat="45.5365" lon="0.67085">
        <ele>269</ele>
        <time>2012-12-02T08:22:43Z</time>
      </trkpt>
      <trkpt lat="45.53681" lon="0.6711">
        <ele>265</ele>
        <time>2012-12-02T08:22:48Z</time>
      </trkpt>
      <trkpt lat="45.53692" lon="0.67124">
        <ele>265</ele>
        <time>2012-12-02T08:22:50Z</time>
      </trkpt>
      <trkpt lat="45.53715" lon="0.67152">
        <ele>263</ele>
        <time>2012-12-02T08:22:55Z</time>
      </trkpt>
      <trkpt lat="45.53724" lon="0.67159">
        <ele>263</ele>
        <time>2012-12-02T08:23:00Z</time>
      </trkpt>
      <trkpt lat="45.53741" lon="0.67181">
        <ele>260</ele>
        <time>2012-12-02T08:23:07Z</time>
      </trkpt>
      <trkpt lat="45.53758" lon="0.67197">
        <ele>259</ele>
        <time>2012-12-02T08:23:12Z</time>
      </trkpt>
      <trkpt lat="45.53769" lon="0.67208">
        <ele>258</ele>
        <time>2012-12-02T08:23:15Z</time>
      </trkpt>
      <trkpt lat="45.53777" lon="0.67215">
        <ele>258</ele>
        <time>2012-12-02T08:23:17Z</time>
      </trkpt>
      <trkpt lat="45.53812" lon="0.67236">
        <ele>258</ele>
        <time>2012-12-02T08:23:24Z</time>
      </trkpt>
      <trkpt lat="45.53824" lon="0.67244">
        <ele>258</ele>
        <time>2012-12-02T08:23:27Z</time>
      </trkpt>
      <trkpt lat="45.53835" lon="0.67252">
        <ele>257</ele>
        <time>2012-12-02T08:23:31Z</time>
      </trkpt>
      <trkpt lat="45.53854" lon="0.67267">
        <ele>254</ele>
        <time>2012-12-02T08:23:36Z</time>
      </trkpt>
      <trkpt lat="45.53866" lon="0.67304">
        <ele>252</ele>
        <time>2012-12-02T08:23:44Z</time>
      </trkpt>
      <trkpt lat="45.53863" lon="0.67315">
        <ele>252</ele>
        <time>2012-12-02T08:23:46Z</time>
      </trkpt>
      <trkpt lat="45.53857" lon="0.67336">
        <ele>250</ele>
        <time>2012-12-02T08:23:49Z</time>
      </trkpt>
      <trkpt lat="45.53859" lon="0.67397">
        <ele>249</ele>
        <time>2012-12-02T08:23:56Z</time>
      </trkpt>
      <trkpt lat="45.53873" lon="0.67436">
        <ele>245</ele>
        <time>2012-12-02T08:24:00Z</time>
      </trkpt>
      <trkpt lat="45.53889" lon="0.67462">
        <ele>243</ele>
        <time>2012-12-02T08:24:03Z</time>
      </trkpt>
      <trkpt lat="45.53898" lon="0.67482">
        <ele>242</ele>
        <time>2012-12-02T08:24:06Z</time>
      </trkpt>
      <trkpt lat="45.53912" lon="0.67554">
        <ele>234</ele>
        <time>2012-12-02T08:24:12Z</time>
      </trkpt>
      <trkpt lat="45.53936" lon="0.67582">
        <ele>229</ele>
        <time>2012-12-02T08:24:16Z</time>
      </trkpt>
      <trkpt lat="45.53949" lon="0.67592">
        <ele>228</ele>
        <time>2012-12-02T08:24:18Z</time>
      </trkpt>
      <trkpt lat="45.53968" lon="0.67604">
        <ele>229</ele>
        <time>2012-12-02T08:24:21Z</time>
      </trkpt>
      <trkpt lat="45.53987" lon="0.67618">
        <ele>229</ele>
        <time>2012-12-02T08:24:25Z</time>
      </trkpt>
      <trkpt lat="45.54004" lon="0.67631">
        <ele>230</ele>
        <time>2012-12-02T08:24:29Z</time>
      </trkpt>
      <trkpt lat="45.54032" lon="0.67649">
        <ele>231</ele>
        <time>2012-12-02T08:24:36Z</time>
      </trkpt>
      <trkpt lat="45.54048" lon="0.67659">
        <ele>232</ele>
        <time>2012-12-02T08:24:40Z</time>
      </trkpt>
      <trkpt lat="45.54065" lon="0.67667">
        <ele>232</ele>
        <time>2012-12-02T08:24:44Z</time>
      </trkpt>
      <trkpt lat="45.54074" lon="0.67672">
        <ele>233</ele>
        <time>2012-12-02T08:24:46Z</time>
      </trkpt>
      <trkpt lat="45.54097" lon="0.67684">
        <ele>235</ele>
        <time>2012-12-02T08:24:52Z</time>
      </trkpt>
      <trkpt lat="45.54126" lon="0.67698">
        <ele>236</ele>
        <time>2012-12-02T08:25:00Z</time>
      </trkpt>
      <trkpt lat="45.54147" lon="0.67709">
        <ele>236</ele>
        <time>2012-12-02T08:25:06Z</time>
      </trkpt>
      <trkpt lat="45.54164" lon="0.67716">
        <ele>237</ele>
        <time>2012-12-02T08:25:11Z</time>
      </trkpt>
      <trkpt lat="45.54171" lon="0.67722">
        <ele>239</ele>
        <time>2012-12-02T08:25:14Z</time>
      </trkpt>
      <trkpt lat="45.54192" lon="0.67735">
        <ele>240</ele>
        <time>2012-12-02T08:25:20Z</time>
      </trkpt>
      <trkpt lat="45.54207" lon="0.67743">
        <ele>240</ele>
        <time>2012-12-02T08:25:24Z</time>
      </trkpt>
      <trkpt lat="45.5422" lon="0.67749">
        <ele>240</ele>
        <time>2012-12-02T08:25:27Z</time>
      </trkpt>
      <trkpt lat="45.54227" lon="0.67751">
        <ele>239</ele>
        <time>2012-12-02T08:25:29Z</time>
      </trkpt>
      <trkpt lat="45.5425" lon="0.67764">
        <ele>239</ele>
        <time>2012-12-02T08:25:36Z</time>
      </trkpt>
      <trkpt lat="45.54257" lon="0.67768">
        <ele>240</ele>
        <time>2012-12-02T08:25:38Z</time>
      </trkpt>
      <trkpt lat="45.54274" lon="0.67776">
        <ele>240</ele>
        <time>2012-12-02T08:25:42Z</time>
      </trkpt>
      <trkpt lat="45.54281" lon="0.67778">
        <ele>240</ele>
        <time>2012-12-02T08:25:48Z</time>
      </trkpt>
      <trkpt lat="45.543" lon="0.67801">
        <ele>239</ele>
        <time>2012-12-02T08:25:54Z</time>
      </trkpt>
      <trkpt lat="45.5432" lon="0.67817">
        <ele>240</ele>
        <time>2012-12-02T08:26:00Z</time>
      </trkpt>
      <trkpt lat="45.54327" lon="0.67818">
        <ele>240</ele>
        <time>2012-12-02T08:26:02Z</time>
      </trkpt>
      <trkpt lat="45.54337" lon="0.6781">
        <ele>239</ele>
        <time>2012-12-02T08:26:10Z</time>
      </trkpt>
      <trkpt lat="45.54347" lon="0.67786">
        <ele>239</ele>
        <time>2012-12-02T08:26:16Z</time>
      </trkpt>
      <trkpt lat="45.54349" lon="0.67773">
        <ele>239</ele>
        <time>2012-12-02T08:26:19Z</time>
      </trkpt>
      <trkpt lat="45.54349" lon="0.67765">
        <ele>239</ele>
        <time>2012-12-02T08:26:21Z</time>
      </trkpt>
      <trkpt lat="45.54353" lon="0.67733">
        <ele>240</ele>
        <time>2012-12-02T08:26:27Z</time>
      </trkpt>
      <trkpt lat="45.54355" lon="0.67723">
        <ele>240</ele>
        <time>2012-12-02T08:26:29Z</time>
      </trkpt>
      <trkpt lat="45.54358" lon="0.67701">
        <ele>240</ele>
        <time>2012-12-02T08:26:33Z</time>
      </trkpt>
      <trkpt lat="45.54355" lon="0.67664">
        <ele>243</ele>
        <time>2012-12-02T08:26:40Z</time>
      </trkpt>
      <trkpt lat="45.54352" lon="0.67634">
        <ele>243</ele>
        <time>2012-12-02T08:26:47Z</time>
      </trkpt>
      <trkpt lat="45.54353" lon="0.67624">
        <ele>243</ele>
        <time>2012-12-02T08:26:49Z</time>
      </trkpt>
      <trkpt lat="45.54355" lon="0.67599">
        <ele>244</ele>
        <time>2012-12-02T08:26:54Z</time>
      </trkpt>
      <trkpt lat="45.54348" lon="0.67579">
        <ele>246</ele>
        <time>2012-12-02T08:27:00Z</time>
      </trkpt>
      <trkpt lat="45.54339" lon="0.6756">
        <ele>247</ele>
        <time>2012-12-02T08:27:06Z</time>
      </trkpt>
      <trkpt lat="45.54336" lon="0.67551">
        <ele>247</ele>
        <time>2012-12-02T08:27:09Z</time>
      </trkpt>
      <trkpt lat="45.54335" lon="0.67532">
        <ele>248</ele>
        <time>2012-12-02T08:27:14Z</time>
      </trkpt>
      <trkpt lat="45.54331" lon="0.67515">
        <ele>250</ele>
        <time>2012-12-02T08:27:19Z</time>
      </trkpt>
      <trkpt lat="45.54329" lon="0.67496">
        <ele>252</ele>
        <time>2012-12-02T08:27:23Z</time>
      </trkpt>
      <trkpt lat="45.54322" lon="0.67477">
        <ele>253</ele>
        <time>2012-12-02T08:27:28Z</time>
      </trkpt>
      <trkpt lat="45.54317" lon="0.67453">
        <ele>254</ele>
        <time>2012-12-02T08:27:33Z</time>
      </trkpt>
      <trkpt lat="45.54323" lon="0.67421">
        <ele>256</ele>
        <time>2012-12-02T08:27:39Z</time>
      </trkpt>
      <trkpt lat="45.54336" lon="0.67403">
        <ele>259</ele>
        <time>2012-12-02T08:27:44Z</time>
      </trkpt>
      <trkpt lat="45.54342" lon="0.67396">
        <ele>260</ele>
        <time>2012-12-02T08:27:45Z</time>
      </trkpt>
      <trkpt lat="45.54349" lon="0.67386">
        <ele>260</ele>
        <time>2012-12-02T08:27:49Z</time>
      </trkpt>
      <trkpt lat="45.54364" lon="0.67379">
        <ele>261</ele>
        <time>2012-12-02T08:27:56Z</time>
      </trkpt>
      <trkpt lat="45.54373" lon="0.67376">
        <ele>261</ele>
        <time>2012-12-02T08:27:59Z</time>
      </trkpt>
      <trkpt lat="45.54385" lon="0.67376">
        <ele>261</ele>
        <time>2012-12-02T08:28:04Z</time>
      </trkpt>
      <trkpt lat="45.54396" lon="0.67374">
        <ele>261</ele>
        <time>2012-12-02T08:28:08Z</time>
      </trkpt>
      <trkpt lat="45.54401" lon="0.67369">
        <ele>261</ele>
        <time>2012-12-02T08:28:09Z</time>
      </trkpt>
      <trkpt lat="45.54412" lon="0.67365">
        <ele>262</ele>
        <time>2012-12-02T08:28:13Z</time>
      </trkpt>
      <trkpt lat="45.54428" lon="0.67359">
        <ele>263</ele>
        <time>2012-12-02T08:28:18Z</time>
      </trkpt>
      <trkpt lat="45.54444" lon="0.67354">
        <ele>264</ele>
        <time>2012-12-02T08:28:23Z</time>
      </trkpt>
      <trkpt lat="45.54457" lon="0.67349">
        <ele>264</ele>
        <time>2012-12-02T08:28:28Z</time>
      </trkpt>
      <trkpt lat="45.54481" lon="0.67337">
        <ele>265</ele>
        <time>2012-12-02T08:28:35Z</time>
      </trkpt>
      <trkpt lat="45.54487" lon="0.67333">
        <ele>267</ele>
        <time>2012-12-02T08:28:38Z</time>
      </trkpt>
      <trkpt lat="45.54496" lon="0.67332">
        <ele>268</ele>
        <time>2012-12-02T08:28:41Z</time>
      </trkpt>
      <trkpt lat="45.54519" lon="0.67325">
        <ele>267</ele>
        <time>2012-12-02T08:28:47Z</time>
      </trkpt>
      <trkpt lat="45.54534" lon="0.67313">
        <ele>267</ele>
        <time>2012-12-02T08:28:51Z</time>
      </trkpt>
      <trkpt lat="45.5455" lon="0.67299">
        <ele>267</ele>
        <time>2012-12-02T08:28:55Z</time>
      </trkpt>
      <trkpt lat="45.5456" lon="0.67287">
        <ele>267</ele>
        <time>2012-12-02T08:28:58Z</time>
      </trkpt>
      <trkpt lat="45.54574" lon="0.67264">
        <ele>268</ele>
        <time>2012-12-02T08:29:03Z</time>
      </trkpt>
      <trkpt lat="45.54584" lon="0.67246">
        <ele>269</ele>
        <time>2012-12-02T08:29:07Z</time>
      </trkpt>
      <trkpt lat="45.54595" lon="0.67227">
        <ele>270</ele>
        <time>2012-12-02T08:29:11Z</time>
      </trkpt>
      <trkpt lat="45.54605" lon="0.67211">
        <ele>270</ele>
        <time>2012-12-02T08:29:14Z</time>
      </trkpt>
      <trkpt lat="45.54625" lon="0.67182">
        <ele>271</ele>
        <time>2012-12-02T08:29:20Z</time>
      </trkpt>
      <trkpt lat="45.54632" lon="0.67175">
        <ele>271</ele>
        <time>2012-12-02T08:29:23Z</time>
      </trkpt>
      <trkpt lat="45.54644" lon="0.67175">
        <ele>272</ele>
        <time>2012-12-02T08:29:29Z</time>
      </trkpt>
      <trkpt lat="45.54651" lon="0.67165">
        <ele>275</ele>
        <time>2012-12-02T08:29:35Z</time>
      </trkpt>
      <trkpt lat="45.54655" lon="0.6716">
        <ele>275</ele>
        <time>2012-12-02T08:29:42Z</time>
      </trkpt>
      <trkpt lat="45.54657" lon="0.67154">
        <ele>275</ele>
        <time>2012-12-02T08:29:53Z</time>
      </trkpt>
      <trkpt lat="45.54653" lon="0.67138">
        <ele>276</ele>
        <time>2012-12-02T08:29:59Z</time>
      </trkpt>
      <trkpt lat="45.54651" lon="0.67119">
        <ele>276</ele>
        <time>2012-12-02T08:30:04Z</time>
      </trkpt>
      <trkpt lat="45.54651" lon="0.67103">
        <ele>278</ele>
        <time>2012-12-02T08:30:08Z</time>
      </trkpt>
      <trkpt lat="45.54651" lon="0.67088">
        <ele>279</ele>
        <time>2012-12-02T08:30:11Z</time>
      </trkpt>
      <trkpt lat="45.5465" lon="0.67072">
        <ele>282</ele>
        <time>2012-12-02T08:30:15Z</time>
      </trkpt>
      <trkpt lat="45.5465" lon="0.67063">
        <ele>282</ele>
        <time>2012-12-02T08:30:17Z</time>
      </trkpt>
      <trkpt lat="45.54654" lon="0.67036">
        <ele>283</ele>
        <time>2012-12-02T08:30:23Z</time>
      </trkpt>
      <trkpt lat="45.5466" lon="0.67014">
        <ele>284</ele>
        <time>2012-12-02T08:30:28Z</time>
      </trkpt>
      <trkpt lat="45.54661" lon="0.66981">
        <ele>287</ele>
        <time>2012-12-02T08:30:35Z</time>
      </trkpt>
      <trkpt lat="45.54661" lon="0.66972">
        <ele>287</ele>
        <time>2012-12-02T08:30:37Z</time>
      </trkpt>
      <trkpt lat="45.54659" lon="0.66935">
        <ele>288</ele>
        <time>2012-12-02T08:30:44Z</time>
      </trkpt>
      <trkpt lat="45.54656" lon="0.66917">
        <ele>288</ele>
        <time>2012-12-02T08:30:48Z</time>
      </trkpt>
      <trkpt lat="45.54653" lon="0.66908">
        <ele>288</ele>
        <time>2012-12-02T08:30:50Z</time>
      </trkpt>
      <trkpt lat="45.54644" lon="0.66882">
        <ele>288</ele>
        <time>2012-12-02T08:30:56Z</time>
      </trkpt>
      <trkpt lat="45.54629" lon="0.66861">
        <ele>288</ele>
        <time>2012-12-02T08:31:04Z</time>
      </trkpt>
      <trkpt lat="45.54625" lon="0.66853">
        <ele>287</ele>
        <time>2012-12-02T08:31:08Z</time>
      </trkpt>
      <trkpt lat="45.54623" lon="0.66841">
        <ele>287</ele>
        <time>2012-12-02T08:31:13Z</time>
      </trkpt>
      <trkpt lat="45.54618" lon="0.66819">
        <ele>286</ele>
        <time>2012-12-02T08:31:20Z</time>
      </trkpt>
      <trkpt lat="45.5461" lon="0.66807">
        <ele>286</ele>
        <time>2012-12-02T08:31:24Z</time>
      </trkpt>
      <trkpt lat="45.54597" lon="0.66788">
        <ele>286</ele>
        <time>2012-12-02T08:31:29Z</time>
      </trkpt>
      <trkpt lat="45.54588" lon="0.66765">
        <ele>285</ele>
        <time>2012-12-02T08:31:35Z</time>
      </trkpt>
      <trkpt lat="45.54585" lon="0.66756">
        <ele>285</ele>
        <time>2012-12-02T08:31:37Z</time>
      </trkpt>
      <trkpt lat="45.5458" lon="0.66737">
        <ele>285</ele>
        <time>2012-12-02T08:31:42Z</time>
      </trkpt>
      <trkpt lat="45.54575" lon="0.66728">
        <ele>285</ele>
        <time>2012-12-02T08:31:45Z</time>
      </trkpt>
      <trkpt lat="45.54565" lon="0.66699">
        <ele>285</ele>
        <time>2012-12-02T08:31:52Z</time>
      </trkpt>
      <trkpt lat="45.54559" lon="0.66683">
        <ele>285</ele>
        <time>2012-12-02T08:31:59Z</time>
      </trkpt>
      <trkpt lat="45.54554" lon="0.66676">
        <ele>285</ele>
        <time>2012-12-02T08:32:05Z</time>
      </trkpt>
      <trkpt lat="45.54554" lon="0.66664">
        <ele>286</ele>
        <time>2012-12-02T08:32:15Z</time>
      </trkpt>
      <trkpt lat="45.54549" lon="0.66655">
        <ele>286</ele>
        <time>2012-12-02T08:32:21Z</time>
      </trkpt>
      <trkpt lat="45.54538" lon="0.66647">
        <ele>286</ele>
        <time>2012-12-02T08:32:32Z</time>
      </trkpt>
      <trkpt lat="45.5454" lon="0.66641">
        <ele>286</ele>
        <time>2012-12-02T08:32:43Z</time>
      </trkpt>
      <trkpt lat="45.54545" lon="0.66634">
        <ele>286</ele>
        <time>2012-12-02T08:32:50Z</time>
      </trkpt>
      <trkpt lat="45.54552" lon="0.66669">
        <ele>285</ele>
        <time>2012-12-02T08:33:21Z</time>
      </trkpt>
      <trkpt lat="45.54554" lon="0.6665">
        <ele>286</ele>
        <time>2012-12-02T08:33:26Z</time>
      </trkpt>
      <trkpt lat="45.54559" lon="0.66644">
        <ele>286</ele>
        <time>2012-12-02T08:33:33Z</time>
      </trkpt>
      <trkpt lat="45.54563" lon="0.6664">
        <ele>286</ele>
        <time>2012-12-02T08:33:45Z</time>
      </trkpt>
      <trkpt lat="45.54568" lon="0.66637">
        <ele>286</ele>
        <time>2012-12-02T08:33:54Z</time>
      </trkpt>
      <trkpt lat="45.54564" lon="0.66643">
        <ele>286</ele>
        <time>2012-12-02T08:33:57Z</time>
      </trkpt>
      <trkpt lat="45.54553" lon="0.66642">
        <ele>286</ele>
        <time>2012-12-02T08:34:04Z</time>
      </trkpt>
      <trkpt lat="45.54576" lon="0.66671">
        <ele>286</ele>
        <time>2012-12-02T08:34:40Z</time>
      </trkpt>
      <trkpt lat="45.54553" lon="0.66646">
        <ele>286</ele>
        <time>2012-12-02T08:34:44Z</time>
      </trkpt>
      <trkpt lat="45.54537" lon="0.66626">
        <ele>286</ele>
        <time>2012-12-02T08:34:50Z</time>
      </trkpt>
      <trkpt lat="45.54539" lon="0.66635">
        <ele>286</ele>
        <time>2012-12-02T08:34:56Z</time>
      </trkpt>
      <trkpt lat="45.54541" lon="0.66646">
        <ele>286</ele>
        <time>2012-12-02T08:35:12Z</time>
      </trkpt>
      <trkpt lat="45.5455" lon="0.6665">
        <ele>286</ele>
        <time>2012-12-02T08:35:19Z</time>
      </trkpt>
      <trkpt lat="45.5455" lon="0.66659">
        <ele>286</ele>
        <time>2012-12-02T08:35:24Z</time>
      </trkpt>
      <trkpt lat="45.54547" lon="0.66661">
        <ele>286</ele>
        <time>2012-12-02T08:35:34Z</time>
      </trkpt>
      <trkpt lat="45.54543" lon="0.66661">
        <ele>286</ele>
        <time>2012-12-02T08:35:44Z</time>
      </trkpt>
      <trkpt lat="45.54542" lon="0.66652">
        <ele>286</ele>
        <time>2012-12-02T08:36:00Z</time>
      </trkpt>
      <trkpt lat="45.54538" lon="0.6665">
        <ele>286</ele>
        <time>2012-12-02T08:36:11Z</time>
      </trkpt>
      <trkpt lat="45.54541" lon="0.66655">
        <ele>286</ele>
        <time>2012-12-02T08:36:58Z</time>
      </trkpt>
      <trkpt lat="45.54542" lon="0.6665">
        <ele>286</ele>
        <time>2012-12-02T08:37:18Z</time>
      </trkpt>
      <trkpt lat="45.54543" lon="0.66656">
        <ele>286</ele>
        <time>2012-12-02T08:37:44Z</time>
      </trkpt>
      <trkpt lat="45.54547" lon="0.66662">
        <ele>286</ele>
        <time>2012-12-02T08:38:00Z</time>
      </trkpt>
      <trkpt lat="45.54548" lon="0.66669">
        <ele>285</ele>
        <time>2012-12-02T08:38:08Z</time>
      </trkpt>
      <trkpt lat="45.54551" lon="0.66671">
        <ele>285</ele>
        <time>2012-12-02T08:38:22Z</time>
      </trkpt>
      <trkpt lat="45.54549" lon="0.66663">
        <ele>286</ele>
        <time>2012-12-02T08:38:29Z</time>
      </trkpt>
      <trkpt lat="45.54546" lon="0.66659">
        <ele>286</ele>
        <time>2012-12-02T08:38:38Z</time>
      </trkpt>
      <trkpt lat="45.54549" lon="0.66664">
        <ele>286</ele>
        <time>2012-12-02T08:38:54Z</time>
      </trkpt>
      <trkpt lat="45.54547" lon="0.66658">
        <ele>286</ele>
        <time>2012-12-02T08:39:01Z</time>
      </trkpt>
      <trkpt lat="45.5454" lon="0.66655">
        <ele>286</ele>
        <time>2012-12-02T08:39:15Z</time>
      </trkpt>
      <trkpt lat="45.54532" lon="0.66653">
        <ele>286</ele>
        <time>2012-12-02T08:39:19Z</time>
      </trkpt>
      <trkpt lat="45.54526" lon="0.66652">
        <ele>286</ele>
        <time>2012-12-02T08:39:21Z</time>
      </trkpt>
      <trkpt lat="45.54517" lon="0.66648">
        <ele>285</ele>
        <time>2012-12-02T08:39:25Z</time>
      </trkpt>
      <trkpt lat="45.5452" lon="0.66638">
        <ele>286</ele>
        <time>2012-12-02T08:39:29Z</time>
      </trkpt>
      <trkpt lat="45.54525" lon="0.66618">
        <ele>286</ele>
        <time>2012-12-02T08:39:35Z</time>
      </trkpt>
      <trkpt lat="45.54528" lon="0.66598">
        <ele>286</ele>
        <time>2012-12-02T08:39:43Z</time>
      </trkpt>
      <trkpt lat="45.54538" lon="0.6661">
        <ele>286</ele>
        <time>2012-12-02T08:39:49Z</time>
      </trkpt>
      <trkpt lat="45.5455" lon="0.66621">
        <ele>286</ele>
        <time>2012-12-02T08:39:56Z</time>
      </trkpt>
      <trkpt lat="45.54563" lon="0.66633">
        <ele>286</ele>
        <time>2012-12-02T08:40:01Z</time>
      </trkpt>
      <trkpt lat="45.54574" lon="0.6664">
        <ele>286</ele>
        <time>2012-12-02T08:40:05Z</time>
      </trkpt>
      <trkpt lat="45.54587" lon="0.66649">
        <ele>286</ele>
        <time>2012-12-02T08:40:10Z</time>
      </trkpt>
      <trkpt lat="45.54603" lon="0.66654">
        <ele>286</ele>
        <time>2012-12-02T08:40:15Z</time>
      </trkpt>
      <trkpt lat="45.54622" lon="0.6666">
        <ele>286</ele>
        <time>2012-12-02T08:40:20Z</time>
      </trkpt>
      <trkpt lat="45.54653" lon="0.66669">
        <ele>287</ele>
        <time>2012-12-02T08:40:27Z</time>
      </trkpt>
      <trkpt lat="45.54663" lon="0.66671">
        <ele>287</ele>
        <time>2012-12-02T08:40:29Z</time>
      </trkpt>
      <trkpt lat="45.54692" lon="0.66673">
        <ele>288</ele>
        <time>2012-12-02T08:40:35Z</time>
      </trkpt>
      <trkpt lat="45.54717" lon="0.6667">
        <ele>288</ele>
        <time>2012-12-02T08:40:40Z</time>
      </trkpt>
      <trkpt lat="45.54727" lon="0.66669">
        <ele>289</ele>
        <time>2012-12-02T08:40:42Z</time>
      </trkpt>
      <trkpt lat="45.54747" lon="0.66666">
        <ele>290</ele>
        <time>2012-12-02T08:40:46Z</time>
      </trkpt>
      <trkpt lat="45.54778" lon="0.66661">
        <ele>290</ele>
        <time>2012-12-02T08:40:52Z</time>
      </trkpt>
      <trkpt lat="45.54787" lon="0.66659">
        <ele>290</ele>
        <time>2012-12-02T08:40:54Z</time>
      </trkpt>
      <trkpt lat="45.54809" lon="0.66655">
        <ele>291</ele>
        <time>2012-12-02T08:40:59Z</time>
      </trkpt>
      <trkpt lat="45.54828" lon="0.66653">
        <ele>291</ele>
        <time>2012-12-02T08:41:03Z</time>
      </trkpt>
      <trkpt lat="45.5485" lon="0.66649">
        <ele>292</ele>
        <time>2012-12-02T08:41:08Z</time>
      </trkpt>
      <trkpt lat="45.54864" lon="0.66647">
        <ele>291</ele>
        <time>2012-12-02T08:41:11Z</time>
      </trkpt>
      <trkpt lat="45.54879" lon="0.66645">
        <ele>291</ele>
        <time>2012-12-02T08:41:14Z</time>
      </trkpt>
      <trkpt lat="45.54908" lon="0.66645">
        <ele>292</ele>
        <time>2012-12-02T08:41:20Z</time>
      </trkpt>
      <trkpt lat="45.54936" lon="0.66648">
        <ele>291</ele>
        <time>2012-12-02T08:41:26Z</time>
      </trkpt>
      <trkpt lat="45.5495" lon="0.66649">
        <ele>291</ele>
        <time>2012-12-02T08:41:29Z</time>
      </trkpt>
      <trkpt lat="45.54978" lon="0.66651">
        <ele>291</ele>
        <time>2012-12-02T08:41:35Z</time>
      </trkpt>
      <trkpt lat="45.55006" lon="0.66658">
        <ele>291</ele>
        <time>2012-12-02T08:41:40Z</time>
      </trkpt>
      <trkpt lat="45.55016" lon="0.6666">
        <ele>291</ele>
        <time>2012-12-02T08:41:42Z</time>
      </trkpt>
      <trkpt lat="45.55044" lon="0.66667">
        <ele>292</ele>
        <time>2012-12-02T08:41:47Z</time>
      </trkpt>
      <trkpt lat="45.55074" lon="0.66675">
        <ele>292</ele>
        <time>2012-12-02T08:41:52Z</time>
      </trkpt>
      <trkpt lat="45.55086" lon="0.66678">
        <ele>291</ele>
        <time>2012-12-02T08:41:54Z</time>
      </trkpt>
      <trkpt lat="45.55115" lon="0.66686">
        <ele>290</ele>
        <time>2012-12-02T08:41:59Z</time>
      </trkpt>
      <trkpt lat="45.55146" lon="0.66695">
        <ele>289</ele>
        <time>2012-12-02T08:42:04Z</time>
      </trkpt>
      <trkpt lat="45.55171" lon="0.66701">
        <ele>288</ele>
        <time>2012-12-02T08:42:08Z</time>
      </trkpt>
      <trkpt lat="45.55177" lon="0.66702">
        <ele>288</ele>
        <time>2012-12-02T08:42:09Z</time>
      </trkpt>
      <trkpt lat="45.55202" lon="0.66705">
        <ele>288</ele>
        <time>2012-12-02T08:42:13Z</time>
      </trkpt>
      <trkpt lat="45.55244" lon="0.66707">
        <ele>288</ele>
        <time>2012-12-02T08:42:20Z</time>
      </trkpt>
      <trkpt lat="45.5525" lon="0.66707">
        <ele>288</ele>
        <time>2012-12-02T08:42:21Z</time>
      </trkpt>
      <trkpt lat="45.55291" lon="0.66712">
        <ele>290</ele>
        <time>2012-12-02T08:42:28Z</time>
      </trkpt>
      <trkpt lat="45.5531" lon="0.66714">
        <ele>290</ele>
        <time>2012-12-02T08:42:31Z</time>
      </trkpt>
      <trkpt lat="45.55328" lon="0.66717">
        <ele>290</ele>
        <time>2012-12-02T08:42:34Z</time>
      </trkpt>
      <trkpt lat="45.55358" lon="0.6672">
        <ele>291</ele>
        <time>2012-12-02T08:42:39Z</time>
      </trkpt>
      <trkpt lat="45.55382" lon="0.6672">
        <ele>291</ele>
        <time>2012-12-02T08:42:43Z</time>
      </trkpt>
      <trkpt lat="45.55406" lon="0.66718">
        <ele>291</ele>
        <time>2012-12-02T08:42:47Z</time>
      </trkpt>
      <trkpt lat="45.55432" lon="0.66712">
        <ele>292</ele>
        <time>2012-12-02T08:42:52Z</time>
      </trkpt>
      <trkpt lat="45.55461" lon="0.66721">
        <ele>292</ele>
        <time>2012-12-02T08:42:59Z</time>
      </trkpt>
      <trkpt lat="45.55479" lon="0.66729">
        <ele>292</ele>
        <time>2012-12-02T08:43:03Z</time>
      </trkpt>
      <trkpt lat="45.55487" lon="0.66731">
        <ele>292</ele>
        <time>2012-12-02T08:43:05Z</time>
      </trkpt>
      <trkpt lat="45.55508" lon="0.66732">
        <ele>293</ele>
        <time>2012-12-02T08:43:10Z</time>
      </trkpt>
      <trkpt lat="45.5553" lon="0.66736">
        <ele>292</ele>
        <time>2012-12-02T08:43:15Z</time>
      </trkpt>
      <trkpt lat="45.55538" lon="0.66745">
        <ele>292</ele>
        <time>2012-12-02T08:43:17Z</time>
      </trkpt>
      <trkpt lat="45.5555" lon="0.66761">
        <ele>294</ele>
        <time>2012-12-02T08:43:21Z</time>
      </trkpt>
      <trkpt lat="45.5558" lon="0.668">
        <ele>294</ele>
        <time>2012-12-02T08:43:28Z</time>
      </trkpt>
      <trkpt lat="45.55599" lon="0.66814">
        <ele>292</ele>
        <time>2012-12-02T08:43:32Z</time>
      </trkpt>
      <trkpt lat="45.55613" lon="0.66828">
        <ele>292</ele>
        <time>2012-12-02T08:43:35Z</time>
      </trkpt>
      <trkpt lat="45.55622" lon="0.66837">
        <ele>293</ele>
        <time>2012-12-02T08:43:37Z</time>
      </trkpt>
      <trkpt lat="45.5565" lon="0.66864">
        <ele>293</ele>
        <time>2012-12-02T08:43:43Z</time>
      </trkpt>
      <trkpt lat="45.5566" lon="0.66873">
        <ele>293</ele>
        <time>2012-12-02T08:43:45Z</time>
      </trkpt>
      <trkpt lat="45.55677" lon="0.6689">
        <ele>292</ele>
        <time>2012-12-02T08:43:49Z</time>
      </trkpt>
      <trkpt lat="45.55694" lon="0.66907">
        <ele>293</ele>
        <time>2012-12-02T08:43:53Z</time>
      </trkpt>
      <trkpt lat="45.55712" lon="0.66922">
        <ele>294</ele>
        <time>2012-12-02T08:43:59Z</time>
      </trkpt>
      <trkpt lat="45.55732" lon="0.66921">
        <ele>294</ele>
        <time>2012-12-02T08:44:04Z</time>
      </trkpt>
      <trkpt lat="45.55748" lon="0.66914">
        <ele>294</ele>
        <time>2012-12-02T08:44:08Z</time>
      </trkpt>
      <trkpt lat="45.55771" lon="0.66905">
        <ele>293</ele>
        <time>2012-12-02T08:44:13Z</time>
      </trkpt>
      <trkpt lat="45.55796" lon="0.6689">
        <ele>293</ele>
        <time>2012-12-02T08:44:18Z</time>
      </trkpt>
      <trkpt lat="45.55817" lon="0.66918">
        <ele>292</ele>
        <time>2012-12-02T08:44:24Z</time>
      </trkpt>
      <trkpt lat="45.55822" lon="0.66926">
        <ele>292</ele>
        <time>2012-12-02T08:44:25Z</time>
      </trkpt>
      <trkpt lat="45.55853" lon="0.66953">
        <ele>287</ele>
        <time>2012-12-02T08:44:31Z</time>
      </trkpt>
      <trkpt lat="45.55839" lon="0.66984">
        <ele>288</ele>
        <time>2012-12-02T08:44:35Z</time>
      </trkpt>
      <trkpt lat="45.55826" lon="0.6702">
        <ele>289</ele>
        <time>2012-12-02T08:44:39Z</time>
      </trkpt>
      <trkpt lat="45.55819" lon="0.6705">
        <ele>288</ele>
        <time>2012-12-02T08:44:42Z</time>
      </trkpt>
      <trkpt lat="45.5581" lon="0.67087">
        <ele>284</ele>
        <time>2012-12-02T08:44:46Z</time>
      </trkpt>
      <trkpt lat="45.55796" lon="0.67136">
        <ele>283</ele>
        <time>2012-12-02T08:44:51Z</time>
      </trkpt>
      <trkpt lat="45.5579" lon="0.67162">
        <ele>282</ele>
        <time>2012-12-02T08:44:56Z</time>
      </trkpt>
      <trkpt lat="45.55795" lon="0.6717">
        <ele>279</ele>
        <time>2012-12-02T08:45:00Z</time>
      </trkpt>
      <trkpt lat="45.55803" lon="0.67176">
        <ele>279</ele>
        <time>2012-12-02T08:45:04Z</time>
      </trkpt>
      <trkpt lat="45.55809" lon="0.6718">
        <ele>279</ele>
        <time>2012-12-02T08:45:08Z</time>
      </trkpt>
      <trkpt lat="45.55825" lon="0.67187">
        <ele>279</ele>
        <time>2012-12-02T08:45:16Z</time>
      </trkpt>
      <trkpt lat="45.55834" lon="0.6719">
        <ele>278</ele>
        <time>2012-12-02T08:45:20Z</time>
      </trkpt>
      <trkpt lat="45.55846" lon="0.6719">
        <ele>278</ele>
        <time>2012-12-02T08:45:26Z</time>
      </trkpt>
      <trkpt lat="45.55857" lon="0.67188">
        <ele>277</ele>
        <time>2012-12-02T08:45:30Z</time>
      </trkpt>
      <trkpt lat="45.55875" lon="0.67214">
        <ele>276</ele>
        <time>2012-12-02T08:45:35Z</time>
      </trkpt>
      <trkpt lat="45.55883" lon="0.67229">
        <ele>276</ele>
        <time>2012-12-02T08:45:37Z</time>
      </trkpt>
      <trkpt lat="45.55908" lon="0.67275">
        <ele>274</ele>
        <time>2012-12-02T08:45:43Z</time>
      </trkpt>
      <trkpt lat="45.55918" lon="0.67284">
        <ele>270</ele>
        <time>2012-12-02T08:45:48Z</time>
      </trkpt>
      <trkpt lat="45.5592" lon="0.67277">
        <ele>270</ele>
        <time>2012-12-02T08:45:53Z</time>
      </trkpt>
      <trkpt lat="45.55924" lon="0.67266">
        <ele>271</ele>
        <time>2012-12-02T08:45:58Z</time>
      </trkpt>
      <trkpt lat="45.5593" lon="0.67267">
        <ele>270</ele>
        <time>2012-12-02T08:46:03Z</time>
      </trkpt>
      <trkpt lat="45.55934" lon="0.67269">
        <ele>270</ele>
        <time>2012-12-02T08:46:12Z</time>
      </trkpt>
      <trkpt lat="45.55954" lon="0.67295">
        <ele>268</ele>
        <time>2012-12-02T08:46:36Z</time>
      </trkpt>
      <trkpt lat="45.55958" lon="0.67301">
        <ele>268</ele>
        <time>2012-12-02T08:46:37Z</time>
      </trkpt>
      <trkpt lat="45.55995" lon="0.67325">
        <ele>263</ele>
        <time>2012-12-02T08:46:43Z</time>
      </trkpt>
      <trkpt lat="45.56007" lon="0.67342">
        <ele>258</ele>
        <time>2012-12-02T08:46:46Z</time>
      </trkpt>
      <trkpt lat="45.56033" lon="0.67358">
        <ele>253</ele>
        <time>2012-12-02T08:46:50Z</time>
      </trkpt>
      <trkpt lat="45.56064" lon="0.67344">
        <ele>249</ele>
        <time>2012-12-02T08:46:56Z</time>
      </trkpt>
      <trkpt lat="45.56074" lon="0.67338">
        <ele>248</ele>
        <time>2012-12-02T08:46:59Z</time>
      </trkpt>
      <trkpt lat="45.56083" lon="0.6733">
        <ele>246</ele>
        <time>2012-12-02T08:47:02Z</time>
      </trkpt>
      <trkpt lat="45.56099" lon="0.67306">
        <ele>244</ele>
        <time>2012-12-02T08:47:08Z</time>
      </trkpt>
      <trkpt lat="45.56115" lon="0.67295">
        <ele>244</ele>
        <time>2012-12-02T08:47:12Z</time>
      </trkpt>
      <trkpt lat="45.56135" lon="0.6729">
        <ele>243</ele>
        <time>2012-12-02T08:47:15Z</time>
      </trkpt>
      <trkpt lat="45.56159" lon="0.67296">
        <ele>242</ele>
        <time>2012-12-02T08:47:20Z</time>
      </trkpt>
      <trkpt lat="45.56179" lon="0.67312">
        <ele>239</ele>
        <time>2012-12-02T08:47:27Z</time>
      </trkpt>
      <trkpt lat="45.56188" lon="0.67325">
        <ele>239</ele>
        <time>2012-12-02T08:47:32Z</time>
      </trkpt>
      <trkpt lat="45.562" lon="0.67339">
        <ele>239</ele>
        <time>2012-12-02T08:47:40Z</time>
      </trkpt>
      <trkpt lat="45.56198" lon="0.67355">
        <ele>239</ele>
        <time>2012-12-02T08:47:44Z</time>
      </trkpt>
      <trkpt lat="45.56191" lon="0.67388">
        <ele>239</ele>
        <time>2012-12-02T08:47:52Z</time>
      </trkpt>
      <trkpt lat="45.56188" lon="0.67397">
        <ele>240</ele>
        <time>2012-12-02T08:47:54Z</time>
      </trkpt>
      <trkpt lat="45.5618" lon="0.67419">
        <ele>242</ele>
        <time>2012-12-02T08:48:00Z</time>
      </trkpt>
      <trkpt lat="45.56174" lon="0.67434">
        <ele>242</ele>
        <time>2012-12-02T08:48:04Z</time>
      </trkpt>
      <trkpt lat="45.56169" lon="0.67464">
        <ele>243</ele>
        <time>2012-12-02T08:48:12Z</time>
      </trkpt>
      <trkpt lat="45.56173" lon="0.67474">
        <ele>244</ele>
        <time>2012-12-02T08:48:15Z</time>
      </trkpt>
      <trkpt lat="45.56177" lon="0.67485">
        <ele>244</ele>
        <time>2012-12-02T08:48:19Z</time>
      </trkpt>
      <trkpt lat="45.56184" lon="0.67495">
        <ele>244</ele>
        <time>2012-12-02T08:48:25Z</time>
      </trkpt>
      <trkpt lat="45.56189" lon="0.67504">
        <ele>246</ele>
        <time>2012-12-02T08:48:32Z</time>
      </trkpt>
      <trkpt lat="45.56193" lon="0.67512">
        <ele>246</ele>
        <time>2012-12-02T08:48:36Z</time>
      </trkpt>
      <trkpt lat="45.56202" lon="0.67527">
        <ele>246</ele>
        <time>2012-12-02T08:48:43Z</time>
      </trkpt>
      <trkpt lat="45.56207" lon="0.67534">
        <ele>246</ele>
        <time>2012-12-02T08:48:46Z</time>
      </trkpt>
      <trkpt lat="45.56216" lon="0.67551">
        <ele>246</ele>
        <time>2012-12-02T08:48:51Z</time>
      </trkpt>
      <trkpt lat="45.56218" lon="0.67563">
        <ele>245</ele>
        <time>2012-12-02T08:48:53Z</time>
      </trkpt>
      <trkpt lat="45.56221" lon="0.67608">
        <ele>246</ele>
        <time>2012-12-02T08:48:58Z</time>
      </trkpt>
      <trkpt lat="45.56222" lon="0.67649">
        <ele>246</ele>
        <time>2012-12-02T08:49:03Z</time>
      </trkpt>
      <trkpt lat="45.56239" lon="0.67669">
        <ele>244</ele>
        <time>2012-12-02T08:49:07Z</time>
      </trkpt>
      <trkpt lat="45.56254" lon="0.67683">
        <ele>242</ele>
        <time>2012-12-02T08:49:11Z</time>
      </trkpt>
      <trkpt lat="45.56274" lon="0.67702">
        <ele>243</ele>
        <time>2012-12-02T08:49:16Z</time>
      </trkpt>
      <trkpt lat="45.56279" lon="0.67709">
        <ele>243</ele>
        <time>2012-12-02T08:49:17Z</time>
      </trkpt>
      <trkpt lat="45.56304" lon="0.67736">
        <ele>243</ele>
        <time>2012-12-02T08:49:23Z</time>
      </trkpt>
      <trkpt lat="45.56324" lon="0.67754">
        <ele>246</ele>
        <time>2012-12-02T08:49:28Z</time>
      </trkpt>
      <trkpt lat="45.56334" lon="0.67767">
        <ele>244</ele>
        <time>2012-12-02T08:49:31Z</time>
      </trkpt>
      <trkpt lat="45.56349" lon="0.67782">
        <ele>245</ele>
        <time>2012-12-02T08:49:35Z</time>
      </trkpt>
      <trkpt lat="45.56367" lon="0.67801">
        <ele>245</ele>
        <time>2012-12-02T08:49:40Z</time>
      </trkpt>
      <trkpt lat="45.56383" lon="0.67821">
        <ele>244</ele>
        <time>2012-12-02T08:49:44Z</time>
      </trkpt>
      <trkpt lat="45.56387" lon="0.67836">
        <ele>243</ele>
        <time>2012-12-02T08:49:46Z</time>
      </trkpt>
      <trkpt lat="45.56383" lon="0.6787">
        <ele>242</ele>
        <time>2012-12-02T08:49:50Z</time>
      </trkpt>
      <trkpt lat="45.5637" lon="0.67891">
        <ele>242</ele>
        <time>2012-12-02T08:49:53Z</time>
      </trkpt>
      <trkpt lat="45.56333" lon="0.67948">
        <ele>237</ele>
        <time>2012-12-02T08:50:00Z</time>
      </trkpt>
      <trkpt lat="45.5633" lon="0.67979">
        <ele>242</ele>
        <time>2012-12-02T08:50:03Z</time>
      </trkpt>
      <trkpt lat="45.56322" lon="0.68">
        <ele>239</ele>
        <time>2012-12-02T08:50:07Z</time>
      </trkpt>
      <trkpt lat="45.56316" lon="0.68004">
        <ele>238</ele>
        <time>2012-12-02T08:50:10Z</time>
      </trkpt>
      <trkpt lat="45.56306" lon="0.68008">
        <ele>239</ele>
        <time>2012-12-02T08:50:16Z</time>
      </trkpt>
      <trkpt lat="45.56302" lon="0.6802">
        <ele>240</ele>
        <time>2012-12-02T08:50:24Z</time>
      </trkpt>
      <trkpt lat="45.56301" lon="0.68042">
        <ele>240</ele>
        <time>2012-12-02T08:50:32Z</time>
      </trkpt>
      <trkpt lat="45.56298" lon="0.68056">
        <ele>239</ele>
        <time>2012-12-02T08:50:37Z</time>
      </trkpt>
      <trkpt lat="45.56293" lon="0.68077">
        <ele>239</ele>
        <time>2012-12-02T08:50:44Z</time>
      </trkpt>
      <trkpt lat="45.56287" lon="0.68074">
        <ele>240</ele>
        <time>2012-12-02T08:50:50Z</time>
      </trkpt>
      <trkpt lat="45.56286" lon="0.68082">
        <ele>240</ele>
        <time>2012-12-02T08:51:03Z</time>
      </trkpt>
      <trkpt lat="45.56286" lon="0.68091">
        <ele>239</ele>
        <time>2012-12-02T08:51:10Z</time>
      </trkpt>
      <trkpt lat="45.56294" lon="0.68102">
        <ele>239</ele>
        <time>2012-12-02T08:51:16Z</time>
      </trkpt>
      <trkpt lat="45.56301" lon="0.68115">
        <ele>239</ele>
        <time>2012-12-02T08:51:24Z</time>
      </trkpt>
      <trkpt lat="45.56307" lon="0.68121">
        <ele>238</ele>
        <time>2012-12-02T08:51:29Z</time>
      </trkpt>
      <trkpt lat="45.56316" lon="0.68125">
        <ele>238</ele>
        <time>2012-12-02T08:51:33Z</time>
      </trkpt>
      <trkpt lat="45.56349" lon="0.68123">
        <ele>232</ele>
        <time>2012-12-02T08:51:39Z</time>
      </trkpt>
      <trkpt lat="45.56371" lon="0.68123">
        <ele>231</ele>
        <time>2012-12-02T08:51:43Z</time>
      </trkpt>
      <trkpt lat="45.56381" lon="0.68124">
        <ele>231</ele>
        <time>2012-12-02T08:51:45Z</time>
      </trkpt>
      <trkpt lat="45.56395" lon="0.68123">
        <ele>230</ele>
        <time>2012-12-02T08:51:52Z</time>
      </trkpt>
      <trkpt lat="45.56409" lon="0.68139">
        <ele>230</ele>
        <time>2012-12-02T08:51:59Z</time>
      </trkpt>
      <trkpt lat="45.56417" lon="0.68156">
        <ele>228</ele>
        <time>2012-12-02T08:52:04Z</time>
      </trkpt>
      <trkpt lat="45.56429" lon="0.68167">
        <ele>224</ele>
        <time>2012-12-02T08:52:06Z</time>
      </trkpt>
      <trkpt lat="45.56451" lon="0.68193">
        <ele>221</ele>
        <time>2012-12-02T08:52:10Z</time>
      </trkpt>
      <trkpt lat="45.56454" lon="0.68196">
        <ele>220</ele>
        <time>2012-12-02T08:52:18Z</time>
      </trkpt>
      <trkpt lat="45.56457" lon="0.68201">
        <ele>220</ele>
        <time>2012-12-02T08:53:24Z</time>
      </trkpt>
      <trkpt lat="45.56459" lon="0.68207">
        <ele>220</ele>
        <time>2012-12-02T08:53:40Z</time>
      </trkpt>
      <trkpt lat="45.56464" lon="0.68225">
        <ele>220</ele>
        <time>2012-12-02T08:53:45Z</time>
      </trkpt>
      <trkpt lat="45.56468" lon="0.68243">
        <ele>220</ele>
        <time>2012-12-02T08:53:51Z</time>
      </trkpt>
      <trkpt lat="45.56475" lon="0.68254">
        <ele>221</ele>
        <time>2012-12-02T08:53:57Z</time>
      </trkpt>
      <trkpt lat="45.56483" lon="0.68263">
        <ele>221</ele>
        <time>2012-12-02T08:54:02Z</time>
      </trkpt>
      <trkpt lat="45.56492" lon="0.68272">
        <ele>221</ele>
        <time>2012-12-02T08:54:08Z</time>
      </trkpt>
      <trkpt lat="45.56499" lon="0.68279">
        <ele>221</ele>
        <time>2012-12-02T08:54:13Z</time>
      </trkpt>
      <trkpt lat="45.56508" lon="0.6829">
        <ele>223</ele>
        <time>2012-12-02T08:54:19Z</time>
      </trkpt>
      <trkpt lat="45.56513" lon="0.68297">
        <ele>223</ele>
        <time>2012-12-02T08:54:23Z</time>
      </trkpt>
      <trkpt lat="45.56519" lon="0.68304">
        <ele>223</ele>
        <time>2012-12-02T08:54:27Z</time>
      </trkpt>
      <trkpt lat="45.56525" lon="0.68313">
        <ele>224</ele>
        <time>2012-12-02T08:54:33Z</time>
      </trkpt>
      <trkpt lat="45.56536" lon="0.68325">
        <ele>224</ele>
        <time>2012-12-02T08:54:40Z</time>
      </trkpt>
      <trkpt lat="45.56546" lon="0.68341">
        <ele>229</ele>
        <time>2012-12-02T08:54:46Z</time>
      </trkpt>
      <trkpt lat="45.56554" lon="0.68352">
        <ele>229</ele>
        <time>2012-12-02T08:54:50Z</time>
      </trkpt>
      <trkpt lat="45.56567" lon="0.6837">
        <ele>230</ele>
        <time>2012-12-02T08:54:56Z</time>
      </trkpt>
      <trkpt lat="45.56577" lon="0.68394">
        <ele>232</ele>
        <time>2012-12-02T08:55:04Z</time>
      </trkpt>
      <trkpt lat="45.5658" lon="0.68407">
        <ele>235</ele>
        <time>2012-12-02T08:55:09Z</time>
      </trkpt>
      <trkpt lat="45.56585" lon="0.68426">
        <ele>238</ele>
        <time>2012-12-02T08:55:15Z</time>
      </trkpt>
      <trkpt lat="45.56587" lon="0.68436">
        <ele>239</ele>
        <time>2012-12-02T08:55:18Z</time>
      </trkpt>
      <trkpt lat="45.56594" lon="0.68462">
        <ele>241</ele>
        <time>2012-12-02T08:55:24Z</time>
      </trkpt>
      <trkpt lat="45.56598" lon="0.68478">
        <ele>241</ele>
        <time>2012-12-02T08:55:27Z</time>
      </trkpt>
      <trkpt lat="45.56599" lon="0.68493">
        <ele>242</ele>
        <time>2012-12-02T08:55:32Z</time>
      </trkpt>
      <trkpt lat="45.56607" lon="0.68527">
        <ele>246</ele>
        <time>2012-12-02T08:55:40Z</time>
      </trkpt>
      <trkpt lat="45.5661" lon="0.6854">
        <ele>246</ele>
        <time>2012-12-02T08:55:43Z</time>
      </trkpt>
      <trkpt lat="45.56611" lon="0.68549">
        <ele>247</ele>
        <time>2012-12-02T08:55:46Z</time>
      </trkpt>
      <trkpt lat="45.56616" lon="0.68573">
        <ele>247</ele>
        <time>2012-12-02T08:55:52Z</time>
      </trkpt>
      <trkpt lat="45.5662" lon="0.68601">
        <ele>250</ele>
        <time>2012-12-02T08:55:58Z</time>
      </trkpt>
      <trkpt lat="45.5662" lon="0.68621">
        <ele>251</ele>
        <time>2012-12-02T08:56:02Z</time>
      </trkpt>
      <trkpt lat="45.56621" lon="0.68632">
        <ele>251</ele>
        <time>2012-12-02T08:56:05Z</time>
      </trkpt>
      <trkpt lat="45.56616" lon="0.68643">
        <ele>252</ele>
        <time>2012-12-02T08:56:11Z</time>
      </trkpt>
      <trkpt lat="45.56617" lon="0.68655">
        <ele>252</ele>
        <time>2012-12-02T08:56:15Z</time>
      </trkpt>
      <trkpt lat="45.56619" lon="0.68668">
        <ele>253</ele>
        <time>2012-12-02T08:56:18Z</time>
      </trkpt>
      <trkpt lat="45.56625" lon="0.68697">
        <ele>254</ele>
        <time>2012-12-02T08:56:23Z</time>
      </trkpt>
      <trkpt lat="45.56623" lon="0.68715">
        <ele>253</ele>
        <time>2012-12-02T08:56:28Z</time>
      </trkpt>
      <trkpt lat="45.56622" lon="0.68741">
        <ele>253</ele>
        <time>2012-12-02T08:56:33Z</time>
      </trkpt>
      <trkpt lat="45.56617" lon="0.68781">
        <ele>252</ele>
        <time>2012-12-02T08:56:40Z</time>
      </trkpt>
      <trkpt lat="45.56614" lon="0.68792">
        <ele>252</ele>
        <time>2012-12-02T08:56:42Z</time>
      </trkpt>
      <trkpt lat="45.56604" lon="0.68822">
        <ele>251</ele>
        <time>2012-12-02T08:56:48Z</time>
      </trkpt>
      <trkpt lat="45.56597" lon="0.68835">
        <ele>251</ele>
        <time>2012-12-02T08:56:51Z</time>
      </trkpt>
      <trkpt lat="45.56592" lon="0.68845">
        <ele>251</ele>
        <time>2012-12-02T08:56:53Z</time>
      </trkpt>
      <trkpt lat="45.56577" lon="0.68894">
        <ele>253</ele>
        <time>2012-12-02T08:57:04Z</time>
      </trkpt>
      <trkpt lat="45.56573" lon="0.68914">
        <ele>254</ele>
        <time>2012-12-02T08:57:08Z</time>
      </trkpt>
      <trkpt lat="45.5657" lon="0.68937">
        <ele>257</ele>
        <time>2012-12-02T08:57:13Z</time>
      </trkpt>
      <trkpt lat="45.56564" lon="0.68968">
        <ele>259</ele>
        <time>2012-12-02T08:57:20Z</time>
      </trkpt>
      <trkpt lat="45.56561" lon="0.68983">
        <ele>259</ele>
        <time>2012-12-02T08:57:23Z</time>
      </trkpt>
      <trkpt lat="45.56559" lon="0.68992">
        <ele>260</ele>
        <time>2012-12-02T08:57:25Z</time>
      </trkpt>
      <trkpt lat="45.5655" lon="0.69022">
        <ele>262</ele>
        <time>2012-12-02T08:57:32Z</time>
      </trkpt>
      <trkpt lat="45.56546" lon="0.69036">
        <ele>262</ele>
        <time>2012-12-02T08:57:38Z</time>
      </trkpt>
      <trkpt lat="45.56542" lon="0.69046">
        <ele>262</ele>
        <time>2012-12-02T08:57:44Z</time>
      </trkpt>
      <trkpt lat="45.56539" lon="0.69059">
        <ele>263</ele>
        <time>2012-12-02T08:57:50Z</time>
      </trkpt>
      <trkpt lat="45.56538" lon="0.69065">
        <ele>263</ele>
        <time>2012-12-02T08:57:54Z</time>
      </trkpt>
      <trkpt lat="45.56537" lon="0.69071">
        <ele>263</ele>
        <time>2012-12-02T08:58:03Z</time>
      </trkpt>
      <trkpt lat="45.56538" lon="0.69079">
        <ele>263</ele>
        <time>2012-12-02T08:58:16Z</time>
      </trkpt>
      <trkpt lat="45.56539" lon="0.69085">
        <ele>264</ele>
        <time>2012-12-02T08:58:56Z</time>
      </trkpt>
      <trkpt lat="45.5654" lon="0.69094">
        <ele>264</ele>
        <time>2012-12-02T08:59:00Z</time>
      </trkpt>
      <trkpt lat="45.56548" lon="0.69106">
        <ele>264</ele>
        <time>2012-12-02T08:59:04Z</time>
      </trkpt>
      <trkpt lat="45.56554" lon="0.69113">
        <ele>264</ele>
        <time>2012-12-02T08:59:07Z</time>
      </trkpt>
      <trkpt lat="45.56561" lon="0.69124">
        <ele>264</ele>
        <time>2012-12-02T08:59:11Z</time>
      </trkpt>
      <trkpt lat="45.56564" lon="0.69131">
        <ele>264</ele>
        <time>2012-12-02T08:59:13Z</time>
      </trkpt>
      <trkpt lat="45.56574" lon="0.69155">
        <ele>264</ele>
        <time>2012-12-02T08:59:19Z</time>
      </trkpt>
      <trkpt lat="45.56592" lon="0.69163">
        <ele>265</ele>
        <time>2012-12-02T08:59:24Z</time>
      </trkpt>
      <trkpt lat="45.56601" lon="0.69166">
        <ele>266</ele>
        <time>2012-12-02T08:59:26Z</time>
      </trkpt>
      <trkpt lat="45.56623" lon="0.69172">
        <ele>267</ele>
        <time>2012-12-02T08:59:32Z</time>
      </trkpt>
      <trkpt lat="45.56629" lon="0.69175">
        <ele>267</ele>
        <time>2012-12-02T08:59:34Z</time>
      </trkpt>
      <trkpt lat="45.56647" lon="0.69184">
        <ele>268</ele>
        <time>2012-12-02T08:59:40Z</time>
      </trkpt>
      <trkpt lat="45.56659" lon="0.69189">
        <ele>268</ele>
        <time>2012-12-02T08:59:44Z</time>
      </trkpt>
      <trkpt lat="45.56665" lon="0.69191">
        <ele>268</ele>
        <time>2012-12-02T08:59:46Z</time>
      </trkpt>
      <trkpt lat="45.56682" lon="0.69195">
        <ele>270</ele>
        <time>2012-12-02T08:59:51Z</time>
      </trkpt>
      <trkpt lat="45.56692" lon="0.69197">
        <ele>270</ele>
        <time>2012-12-02T08:59:54Z</time>
      </trkpt>
      <trkpt lat="45.56702" lon="0.69198">
        <ele>270</ele>
        <time>2012-12-02T08:59:57Z</time>
      </trkpt>
      <trkpt lat="45.56725" lon="0.69203">
        <ele>270</ele>
        <time>2012-12-02T09:00:04Z</time>
      </trkpt>
      <trkpt lat="45.56752" lon="0.69211">
        <ele>271</ele>
        <time>2012-12-02T09:00:12Z</time>
      </trkpt>
      <trkpt lat="45.5677" lon="0.69218">
        <ele>271</ele>
        <time>2012-12-02T09:00:17Z</time>
      </trkpt>
      <trkpt lat="45.56792" lon="0.69228">
        <ele>271</ele>
        <time>2012-12-02T09:00:23Z</time>
      </trkpt>
      <trkpt lat="45.56799" lon="0.69231">
        <ele>271</ele>
        <time>2012-12-02T09:00:25Z</time>
      </trkpt>
      <trkpt lat="45.56825" lon="0.69242">
        <ele>271</ele>
        <time>2012-12-02T09:00:32Z</time>
      </trkpt>
      <trkpt lat="45.56853" lon="0.69254">
        <ele>271</ele>
        <time>2012-12-02T09:00:40Z</time>
      </trkpt>
      <trkpt lat="45.5686" lon="0.69257">
        <ele>271</ele>
        <time>2012-12-02T09:00:42Z</time>
      </trkpt>
      <trkpt lat="45.56879" lon="0.69266">
        <ele>272</ele>
        <time>2012-12-02T09:00:47Z</time>
      </trkpt>
      <trkpt lat="45.56886" lon="0.6927">
        <ele>272</ele>
        <time>2012-12-02T09:00:49Z</time>
      </trkpt>
      <trkpt lat="45.56907" lon="0.6928">
        <ele>272</ele>
        <time>2012-12-02T09:00:54Z</time>
      </trkpt>
      <trkpt lat="45.56938" lon="0.69294">
        <ele>271</ele>
        <time>2012-12-02T09:01:00Z</time>
      </trkpt>
      <trkpt lat="45.56964" lon="0.69303">
        <ele>270</ele>
        <time>2012-12-02T09:01:04Z</time>
      </trkpt>
      <trkpt lat="45.56988" lon="0.69309">
        <ele>270</ele>
        <time>2012-12-02T09:01:08Z</time>
      </trkpt>
      <trkpt lat="45.56996" lon="0.69317">
        <ele>269</ele>
        <time>2012-12-02T09:01:11Z</time>
      </trkpt>
      <trkpt lat="45.56995" lon="0.69342">
        <ele>268</ele>
        <time>2012-12-02T09:01:16Z</time>
      </trkpt>
      <trkpt lat="45.56993" lon="0.69361">
        <ele>268</ele>
        <time>2012-12-02T09:01:20Z</time>
      </trkpt>
      <trkpt lat="45.56991" lon="0.69391">
        <ele>268</ele>
        <time>2012-12-02T09:01:27Z</time>
      </trkpt>
      <trkpt lat="45.56991" lon="0.69412">
        <ele>268</ele>
        <time>2012-12-02T09:01:32Z</time>
      </trkpt>
      <trkpt lat="45.5699" lon="0.69425">
        <ele>268</ele>
        <time>2012-12-02T09:01:36Z</time>
      </trkpt>
      <trkpt lat="45.56991" lon="0.69434">
        <ele>267</ele>
        <time>2012-12-02T09:01:38Z</time>
      </trkpt>
      <trkpt lat="45.56991" lon="0.69447">
        <ele>267</ele>
        <time>2012-12-02T09:01:41Z</time>
      </trkpt>
      <trkpt lat="45.56992" lon="0.69477">
        <ele>266</ele>
        <time>2012-12-02T09:01:47Z</time>
      </trkpt>
      <trkpt lat="45.56993" lon="0.69487">
        <ele>266</ele>
        <time>2012-12-02T09:01:49Z</time>
      </trkpt>
      <trkpt lat="45.56991" lon="0.69512">
        <ele>265</ele>
        <time>2012-12-02T09:01:54Z</time>
      </trkpt>
      <trkpt lat="45.56986" lon="0.69541">
        <ele>265</ele>
        <time>2012-12-02T09:02:00Z</time>
      </trkpt>
      <trkpt lat="45.56984" lon="0.6955">
        <ele>265</ele>
        <time>2012-12-02T09:02:02Z</time>
      </trkpt>
      <trkpt lat="45.56974" lon="0.69571">
        <ele>265</ele>
        <time>2012-12-02T09:02:07Z</time>
      </trkpt>
      <trkpt lat="45.56966" lon="0.69583">
        <ele>265</ele>
        <time>2012-12-02T09:02:10Z</time>
      </trkpt>
      <trkpt lat="45.56949" lon="0.69604">
        <ele>265</ele>
        <time>2012-12-02T09:02:15Z</time>
      </trkpt>
      <trkpt lat="45.56931" lon="0.69621">
        <ele>265</ele>
        <time>2012-12-02T09:02:21Z</time>
      </trkpt>
      <trkpt lat="45.5692" lon="0.69633">
        <ele>266</ele>
        <time>2012-12-02T09:02:27Z</time>
      </trkpt>
      <trkpt lat="45.56926" lon="0.69647">
        <ele>266</ele>
        <time>2012-12-02T09:02:32Z</time>
      </trkpt>
      <trkpt lat="45.56935" lon="0.6966">
        <ele>266</ele>
        <time>2012-12-02T09:02:36Z</time>
      </trkpt>
      <trkpt lat="45.56949" lon="0.69682">
        <ele>265</ele>
        <time>2012-12-02T09:02:42Z</time>
      </trkpt>
      <trkpt lat="45.56957" lon="0.69694">
        <ele>265</ele>
        <time>2012-12-02T09:02:45Z</time>
      </trkpt>
      <trkpt lat="45.56971" lon="0.69713">
        <ele>265</ele>
        <time>2012-12-02T09:02:50Z</time>
      </trkpt>
      <trkpt lat="45.56979" lon="0.69725">
        <ele>265</ele>
        <time>2012-12-02T09:02:53Z</time>
      </trkpt>
      <trkpt lat="45.56997" lon="0.69749">
        <ele>266</ele>
        <time>2012-12-02T09:02:59Z</time>
      </trkpt>
      <trkpt lat="45.5701" lon="0.69768">
        <ele>266</ele>
        <time>2012-12-02T09:03:03Z</time>
      </trkpt>
      <trkpt lat="45.57017" lon="0.69777">
        <ele>266</ele>
        <time>2012-12-02T09:03:05Z</time>
      </trkpt>
      <trkpt lat="45.57038" lon="0.69806">
        <ele>267</ele>
        <time>2012-12-02T09:03:11Z</time>
      </trkpt>
      <trkpt lat="45.57048" lon="0.69821">
        <ele>267</ele>
        <time>2012-12-02T09:03:14Z</time>
      </trkpt>
      <trkpt lat="45.57066" lon="0.69845">
        <ele>267</ele>
        <time>2012-12-02T09:03:19Z</time>
      </trkpt>
      <trkpt lat="45.5708" lon="0.69864">
        <ele>267</ele>
        <time>2012-12-02T09:03:23Z</time>
      </trkpt>
      <trkpt lat="45.57091" lon="0.69879">
        <ele>269</ele>
        <time>2012-12-02T09:03:26Z</time>
      </trkpt>
      <trkpt lat="45.57109" lon="0.69904">
        <ele>269</ele>
        <time>2012-12-02T09:03:31Z</time>
      </trkpt>
      <trkpt lat="45.57127" lon="0.69928">
        <ele>269</ele>
        <time>2012-12-02T09:03:36Z</time>
      </trkpt>
      <trkpt lat="45.57141" lon="0.69948">
        <ele>270</ele>
        <time>2012-12-02T09:03:40Z</time>
      </trkpt>
      <trkpt lat="45.57159" lon="0.69972">
        <ele>270</ele>
        <time>2012-12-02T09:03:45Z</time>
      </trkpt>
      <trkpt lat="45.57175" lon="0.69993">
        <ele>271</ele>
        <time>2012-12-02T09:03:50Z</time>
      </trkpt>
      <trkpt lat="45.57183" lon="0.70006">
        <ele>271</ele>
        <time>2012-12-02T09:03:53Z</time>
      </trkpt>
      <trkpt lat="45.57201" lon="0.7003">
        <ele>271</ele>
        <time>2012-12-02T09:03:59Z</time>
      </trkpt>
      <trkpt lat="45.57211" lon="0.70043">
        <ele>271</ele>
        <time>2012-12-02T09:04:02Z</time>
      </trkpt>
      <trkpt lat="45.57226" lon="0.70064">
        <ele>271</ele>
        <time>2012-12-02T09:04:07Z</time>
      </trkpt>
      <trkpt lat="45.57242" lon="0.70086">
        <ele>272</ele>
        <time>2012-12-02T09:04:12Z</time>
      </trkpt>
      <trkpt lat="45.57261" lon="0.70112">
        <ele>272</ele>
        <time>2012-12-02T09:04:18Z</time>
      </trkpt>
      <trkpt lat="45.57275" lon="0.70129">
        <ele>272</ele>
        <time>2012-12-02T09:04:22Z</time>
      </trkpt>
      <trkpt lat="45.57291" lon="0.70146">
        <ele>273</ele>
        <time>2012-12-02T09:04:26Z</time>
      </trkpt>
      <trkpt lat="45.57312" lon="0.70165">
        <ele>273</ele>
        <time>2012-12-02T09:04:31Z</time>
      </trkpt>
      <trkpt lat="45.57339" lon="0.7018">
        <ele>274</ele>
        <time>2012-12-02T09:04:37Z</time>
      </trkpt>
      <trkpt lat="45.57358" lon="0.70186">
        <ele>274</ele>
        <time>2012-12-02T09:04:41Z</time>
      </trkpt>
      <trkpt lat="45.57388" lon="0.70188">
        <ele>275</ele>
        <time>2012-12-02T09:04:47Z</time>
      </trkpt>
      <trkpt lat="45.57407" lon="0.70186">
        <ele>275</ele>
        <time>2012-12-02T09:04:51Z</time>
      </trkpt>
      <trkpt lat="45.57416" lon="0.70184">
        <ele>275</ele>
        <time>2012-12-02T09:04:53Z</time>
      </trkpt>
      <trkpt lat="45.57433" lon="0.70178">
        <ele>275</ele>
        <time>2012-12-02T09:04:57Z</time>
      </trkpt>
      <trkpt lat="45.5746" lon="0.70178">
        <ele>275</ele>
        <time>2012-12-02T09:05:03Z</time>
      </trkpt>
      <trkpt lat="45.57466" lon="0.70178">
        <ele>275</ele>
        <time>2012-12-02T09:05:04Z</time>
      </trkpt>
      <trkpt lat="45.57496" lon="0.70182">
        <ele>275</ele>
        <time>2012-12-02T09:05:10Z</time>
      </trkpt>
      <trkpt lat="45.57515" lon="0.70187">
        <ele>277</ele>
        <time>2012-12-02T09:05:15Z</time>
      </trkpt>
      <trkpt lat="45.57523" lon="0.70208">
        <ele>278</ele>
        <time>2012-12-02T09:05:20Z</time>
      </trkpt>
      <trkpt lat="45.57522" lon="0.70228">
        <ele>278</ele>
        <time>2012-12-02T09:05:24Z</time>
      </trkpt>
      <trkpt lat="45.57527" lon="0.7028">
        <ele>279</ele>
        <time>2012-12-02T09:05:31Z</time>
      </trkpt>
      <trkpt lat="45.57531" lon="0.70309">
        <ele>279</ele>
        <time>2012-12-02T09:05:34Z</time>
      </trkpt>
      <trkpt lat="45.57528" lon="0.70342">
        <ele>277</ele>
        <time>2012-12-02T09:05:38Z</time>
      </trkpt>
      <trkpt lat="45.57521" lon="0.70357">
        <ele>277</ele>
        <time>2012-12-02T09:05:40Z</time>
      </trkpt>
      <trkpt lat="45.5751" lon="0.70389">
        <ele>276</ele>
        <time>2012-12-02T09:05:45Z</time>
      </trkpt>
      <trkpt lat="45.57512" lon="0.7041">
        <ele>275</ele>
        <time>2012-12-02T09:05:48Z</time>
      </trkpt>
      <trkpt lat="45.57496" lon="0.70431">
        <ele>272</ele>
        <time>2012-12-02T09:05:53Z</time>
      </trkpt>
      <trkpt lat="45.57486" lon="0.7043">
        <ele>271</ele>
        <time>2012-12-02T09:05:56Z</time>
      </trkpt>
      <trkpt lat="45.57468" lon="0.70432">
        <ele>271</ele>
        <time>2012-12-02T09:06:00Z</time>
      </trkpt>
      <trkpt lat="45.5745" lon="0.70442">
        <ele>271</ele>
        <time>2012-12-02T09:06:04Z</time>
      </trkpt>
      <trkpt lat="45.57414" lon="0.70458">
        <ele>271</ele>
        <time>2012-12-02T09:06:11Z</time>
      </trkpt>
      <trkpt lat="45.57374" lon="0.70458">
        <ele>271</ele>
        <time>2012-12-02T09:06:19Z</time>
      </trkpt>
      <trkpt lat="45.57353" lon="0.70453">
        <ele>271</ele>
        <time>2012-12-02T09:06:23Z</time>
      </trkpt>
      <trkpt lat="45.57345" lon="0.70447">
        <ele>271</ele>
        <time>2012-12-02T09:06:25Z</time>
      </trkpt>
      <trkpt lat="45.57327" lon="0.70443">
        <ele>270</ele>
        <time>2012-12-02T09:06:30Z</time>
      </trkpt>
      <trkpt lat="45.57306" lon="0.70435">
        <ele>270</ele>
        <time>2012-12-02T09:06:34Z</time>
      </trkpt>
      <trkpt lat="45.57291" lon="0.70431">
        <ele>270</ele>
        <time>2012-12-02T09:06:37Z</time>
      </trkpt>
      <trkpt lat="45.57274" lon="0.70423">
        <ele>270</ele>
        <time>2012-12-02T09:06:42Z</time>
      </trkpt>
      <trkpt lat="45.57274" lon="0.70432">
        <ele>270</ele>
        <time>2012-12-02T09:06:46Z</time>
      </trkpt>
      <trkpt lat="45.57283" lon="0.70452">
        <ele>270</ele>
        <time>2012-12-02T09:06:50Z</time>
      </trkpt>
      <trkpt lat="45.57288" lon="0.70465">
        <ele>270</ele>
        <time>2012-12-02T09:06:52Z</time>
      </trkpt>
      <trkpt lat="45.57303" lon="0.70531">
        <ele>266</ele>
        <time>2012-12-02T09:07:00Z</time>
      </trkpt>
      <trkpt lat="45.57305" lon="0.70573">
        <ele>265</ele>
        <time>2012-12-02T09:07:04Z</time>
      </trkpt>
      <trkpt lat="45.57299" lon="0.70607">
        <ele>261</ele>
        <time>2012-12-02T09:07:07Z</time>
      </trkpt>
      <trkpt lat="45.57294" lon="0.70675">
        <ele>255</ele>
        <time>2012-12-02T09:07:12Z</time>
      </trkpt>
      <trkpt lat="45.57291" lon="0.70689">
        <ele>254</ele>
        <time>2012-12-02T09:07:13Z</time>
      </trkpt>
      <trkpt lat="45.57278" lon="0.70735">
        <ele>253</ele>
        <time>2012-12-02T09:07:17Z</time>
      </trkpt>
      <trkpt lat="45.57258" lon="0.70794">
        <ele>247</ele>
        <time>2012-12-02T09:07:22Z</time>
      </trkpt>
      <trkpt lat="45.57222" lon="0.70828">
        <ele>243</ele>
        <time>2012-12-02T09:07:27Z</time>
      </trkpt>
      <trkpt lat="45.57182" lon="0.70824">
        <ele>239</ele>
        <time>2012-12-02T09:07:32Z</time>
      </trkpt>
      <trkpt lat="45.57168" lon="0.70816">
        <ele>239</ele>
        <time>2012-12-02T09:07:34Z</time>
      </trkpt>
      <trkpt lat="45.57159" lon="0.70817">
        <ele>237</ele>
        <time>2012-12-02T09:07:39Z</time>
      </trkpt>
      <trkpt lat="45.57151" lon="0.70823">
        <ele>237</ele>
        <time>2012-12-02T09:07:43Z</time>
      </trkpt>
      <trkpt lat="45.57142" lon="0.70833">
        <ele>237</ele>
        <time>2012-12-02T09:07:47Z</time>
      </trkpt>
      <trkpt lat="45.57137" lon="0.70836">
        <ele>233</ele>
        <time>2012-12-02T09:07:49Z</time>
      </trkpt>
      <trkpt lat="45.5713" lon="0.70837">
        <ele>233</ele>
        <time>2012-12-02T09:07:53Z</time>
      </trkpt>
      <trkpt lat="45.57122" lon="0.70845">
        <ele>233</ele>
        <time>2012-12-02T09:08:00Z</time>
      </trkpt>
      <trkpt lat="45.57125" lon="0.7085">
        <ele>232</ele>
        <time>2012-12-02T09:08:06Z</time>
      </trkpt>
      <trkpt lat="45.57129" lon="0.70847">
        <ele>233</ele>
        <time>2012-12-02T09:08:16Z</time>
      </trkpt>
      <trkpt lat="45.5713" lon="0.70853">
        <ele>232</ele>
        <time>2012-12-02T09:08:28Z</time>
      </trkpt>
      <trkpt lat="45.57127" lon="0.70858">
        <ele>232</ele>
        <time>2012-12-02T09:08:52Z</time>
      </trkpt>
      <trkpt lat="45.57119" lon="0.70841">
        <ele>233</ele>
        <time>2012-12-02T09:09:04Z</time>
      </trkpt>
      <trkpt lat="45.57116" lon="0.7083">
        <ele>238</ele>
        <time>2012-12-02T09:09:08Z</time>
      </trkpt>
      <trkpt lat="45.57109" lon="0.7082">
        <ele>238</ele>
        <time>2012-12-02T09:09:13Z</time>
      </trkpt>
      <trkpt lat="45.57097" lon="0.70817">
        <ele>238</ele>
        <time>2012-12-02T09:09:19Z</time>
      </trkpt>
      <trkpt lat="45.57094" lon="0.70811">
        <ele>238</ele>
        <time>2012-12-02T09:09:28Z</time>
      </trkpt>
      <trkpt lat="45.5709" lon="0.70805">
        <ele>238</ele>
        <time>2012-12-02T09:09:35Z</time>
      </trkpt>
      <trkpt lat="45.57088" lon="0.70799">
        <ele>239</ele>
        <time>2012-12-02T09:09:44Z</time>
      </trkpt>
      <trkpt lat="45.57085" lon="0.70788">
        <ele>240</ele>
        <time>2012-12-02T09:09:50Z</time>
      </trkpt>
      <trkpt lat="45.57082" lon="0.70771">
        <ele>242</ele>
        <time>2012-12-02T09:09:56Z</time>
      </trkpt>
      <trkpt lat="45.57081" lon="0.7076">
        <ele>243</ele>
        <time>2012-12-02T09:09:59Z</time>
      </trkpt>
      <trkpt lat="45.5708" lon="0.70747">
        <ele>245</ele>
        <time>2012-12-02T09:10:03Z</time>
      </trkpt>
      <trkpt lat="45.57078" lon="0.70736">
        <ele>246</ele>
        <time>2012-12-02T09:10:06Z</time>
      </trkpt>
      <trkpt lat="45.57072" lon="0.70717">
        <ele>247</ele>
        <time>2012-12-02T09:10:11Z</time>
      </trkpt>
      <trkpt lat="45.5707" lon="0.70705">
        <ele>248</ele>
        <time>2012-12-02T09:10:14Z</time>
      </trkpt>
      <trkpt lat="45.57069" lon="0.70697">
        <ele>248</ele>
        <time>2012-12-02T09:10:17Z</time>
      </trkpt>
      <trkpt lat="45.57066" lon="0.70688">
        <ele>249</ele>
        <time>2012-12-02T09:10:21Z</time>
      </trkpt>
      <trkpt lat="45.5706" lon="0.70676">
        <ele>249</ele>
        <time>2012-12-02T09:10:25Z</time>
      </trkpt>
      <trkpt lat="45.57055" lon="0.70656">
        <ele>253</ele>
        <time>2012-12-02T09:10:30Z</time>
      </trkpt>
      <trkpt lat="45.57052" lon="0.70642">
        <ele>253</ele>
        <time>2012-12-02T09:10:34Z</time>
      </trkpt>
      <trkpt lat="45.57048" lon="0.7063">
        <ele>254</ele>
        <time>2012-12-02T09:10:38Z</time>
      </trkpt>
      <trkpt lat="45.57042" lon="0.70618">
        <ele>254</ele>
        <time>2012-12-02T09:10:42Z</time>
      </trkpt>
      <trkpt lat="45.57035" lon="0.70607">
        <ele>254</ele>
        <time>2012-12-02T09:10:46Z</time>
      </trkpt>
      <trkpt lat="45.57027" lon="0.70586">
        <ele>255</ele>
        <time>2012-12-02T09:10:52Z</time>
      </trkpt>
      <trkpt lat="45.57024" lon="0.7058">
        <ele>258</ele>
        <time>2012-12-02T09:10:54Z</time>
      </trkpt>
      <trkpt lat="45.57005" lon="0.7057">
        <ele>257</ele>
        <time>2012-12-02T09:10:59Z</time>
      </trkpt>
      <trkpt lat="45.56993" lon="0.70558">
        <ele>258</ele>
        <time>2012-12-02T09:11:04Z</time>
      </trkpt>
      <trkpt lat="45.5698" lon="0.70543">
        <ele>258</ele>
        <time>2012-12-02T09:11:08Z</time>
      </trkpt>
      <trkpt lat="45.56971" lon="0.70535">
        <ele>259</ele>
        <time>2012-12-02T09:11:11Z</time>
      </trkpt>
      <trkpt lat="45.56965" lon="0.70532">
        <ele>259</ele>
        <time>2012-12-02T09:11:13Z</time>
      </trkpt>
      <trkpt lat="45.5696" lon="0.70528">
        <ele>259</ele>
        <time>2012-12-02T09:11:17Z</time>
      </trkpt>
      <trkpt lat="45.56942" lon="0.70512">
        <ele>259</ele>
        <time>2012-12-02T09:11:24Z</time>
      </trkpt>
      <trkpt lat="45.56936" lon="0.70504">
        <ele>259</ele>
        <time>2012-12-02T09:11:28Z</time>
      </trkpt>
      <trkpt lat="45.56931" lon="0.70499">
        <ele>262</ele>
        <time>2012-12-02T09:11:30Z</time>
      </trkpt>
      <trkpt lat="45.56921" lon="0.70489">
        <ele>261</ele>
        <time>2012-12-02T09:11:34Z</time>
      </trkpt>
      <trkpt lat="45.56907" lon="0.70478">
        <ele>261</ele>
        <time>2012-12-02T09:11:38Z</time>
      </trkpt>
      <trkpt lat="45.56895" lon="0.70471">
        <ele>261</ele>
        <time>2012-12-02T09:11:42Z</time>
      </trkpt>
      <trkpt lat="45.56886" lon="0.70466">
        <ele>261</ele>
        <time>2012-12-02T09:11:45Z</time>
      </trkpt>
      <trkpt lat="45.56859" lon="0.70455">
        <ele>261</ele>
        <time>2012-12-02T09:11:52Z</time>
      </trkpt>
      <trkpt lat="45.5683" lon="0.70444">
        <ele>260</ele>
        <time>2012-12-02T09:12:00Z</time>
      </trkpt>
      <trkpt lat="45.56818" lon="0.7044">
        <ele>259</ele>
        <time>2012-12-02T09:12:03Z</time>
      </trkpt>
      <trkpt lat="45.56805" lon="0.70435">
        <ele>259</ele>
        <time>2012-12-02T09:12:06Z</time>
      </trkpt>
      <trkpt lat="45.56789" lon="0.70427">
        <ele>259</ele>
        <time>2012-12-02T09:12:10Z</time>
      </trkpt>
      <trkpt lat="45.56764" lon="0.70411">
        <ele>259</ele>
        <time>2012-12-02T09:12:15Z</time>
      </trkpt>
      <trkpt lat="45.56749" lon="0.70398">
        <ele>257</ele>
        <time>2012-12-02T09:12:18Z</time>
      </trkpt>
      <trkpt lat="45.56718" lon="0.70372">
        <ele>257</ele>
        <time>2012-12-02T09:12:24Z</time>
      </trkpt>
      <trkpt lat="45.56705" lon="0.70365">
        <ele>256</ele>
        <time>2012-12-02T09:12:26Z</time>
      </trkpt>
      <trkpt lat="45.56679" lon="0.70347">
        <ele>257</ele>
        <time>2012-12-02T09:12:31Z</time>
      </trkpt>
      <trkpt lat="45.56663" lon="0.7033">
        <ele>257</ele>
        <time>2012-12-02T09:12:35Z</time>
      </trkpt>
      <trkpt lat="45.56657" lon="0.70326">
        <ele>257</ele>
        <time>2012-12-02T09:12:38Z</time>
      </trkpt>
      <trkpt lat="45.56651" lon="0.70328">
        <ele>256</ele>
        <time>2012-12-02T09:12:42Z</time>
      </trkpt>
      <trkpt lat="45.56644" lon="0.70325">
        <ele>256</ele>
        <time>2012-12-02T09:12:51Z</time>
      </trkpt>
      <trkpt lat="45.56637" lon="0.70322">
        <ele>256</ele>
        <time>2012-12-02T09:13:03Z</time>
      </trkpt>
      <trkpt lat="45.56632" lon="0.70319">
        <ele>256</ele>
        <time>2012-12-02T09:13:08Z</time>
      </trkpt>
      <trkpt lat="45.56634" lon="0.70312">
        <ele>256</ele>
        <time>2012-12-02T09:13:28Z</time>
      </trkpt>
      <trkpt lat="45.56629" lon="0.70309">
        <ele>256</ele>
        <time>2012-12-02T09:14:18Z</time>
      </trkpt>
      <trkpt lat="45.56618" lon="0.70308">
        <ele>255</ele>
        <time>2012-12-02T09:14:24Z</time>
      </trkpt>
      <trkpt lat="45.56606" lon="0.70306">
        <ele>255</ele>
        <time>2012-12-02T09:14:28Z</time>
      </trkpt>
      <trkpt lat="45.56591" lon="0.70303">
        <ele>254</ele>
        <time>2012-12-02T09:14:32Z</time>
      </trkpt>
      <trkpt lat="45.56582" lon="0.70302">
        <ele>251</ele>
        <time>2012-12-02T09:14:34Z</time>
      </trkpt>
      <trkpt lat="45.56559" lon="0.70299">
        <ele>251</ele>
        <time>2012-12-02T09:14:38Z</time>
      </trkpt>
      <trkpt lat="45.56536" lon="0.70294">
        <ele>250</ele>
        <time>2012-12-02T09:14:41Z</time>
      </trkpt>
      <trkpt lat="45.56506" lon="0.70282">
        <ele>250</ele>
        <time>2012-12-02T09:14:45Z</time>
      </trkpt>
      <trkpt lat="45.5647" lon="0.70257">
        <ele>248</ele>
        <time>2012-12-02T09:14:50Z</time>
      </trkpt>
      <trkpt lat="45.56437" lon="0.70229">
        <ele>249</ele>
        <time>2012-12-02T09:14:56Z</time>
      </trkpt>
      <trkpt lat="45.56419" lon="0.70201">
        <ele>250</ele>
        <time>2012-12-02T09:15:02Z</time>
      </trkpt>
      <trkpt lat="45.56406" lon="0.70177">
        <ele>252</ele>
        <time>2012-12-02T09:15:07Z</time>
      </trkpt>
      <trkpt lat="45.56399" lon="0.70168">
        <ele>252</ele>
        <time>2012-12-02T09:15:09Z</time>
      </trkpt>
      <trkpt lat="45.5638" lon="0.70142">
        <ele>256</ele>
        <time>2012-12-02T09:15:16Z</time>
      </trkpt>
      <trkpt lat="45.56375" lon="0.70136">
        <ele>256</ele>
        <time>2012-12-02T09:15:18Z</time>
      </trkpt>
      <trkpt lat="45.5636" lon="0.70118">
        <ele>257</ele>
        <time>2012-12-02T09:15:23Z</time>
      </trkpt>
      <trkpt lat="45.56345" lon="0.701">
        <ele>258</ele>
        <time>2012-12-02T09:15:28Z</time>
      </trkpt>
      <trkpt lat="45.56336" lon="0.7009">
        <ele>260</ele>
        <time>2012-12-02T09:15:31Z</time>
      </trkpt>
      <trkpt lat="45.56325" lon="0.70076">
        <ele>261</ele>
        <time>2012-12-02T09:15:35Z</time>
      </trkpt>
      <trkpt lat="45.56319" lon="0.70069">
        <ele>260</ele>
        <time>2012-12-02T09:15:37Z</time>
      </trkpt>
      <trkpt lat="45.56303" lon="0.7005">
        <ele>260</ele>
        <time>2012-12-02T09:15:43Z</time>
      </trkpt>
      <trkpt lat="45.56295" lon="0.7004">
        <ele>260</ele>
        <time>2012-12-02T09:15:46Z</time>
      </trkpt>
      <trkpt lat="45.56278" lon="0.70019">
        <ele>260</ele>
        <time>2012-12-02T09:15:52Z</time>
      </trkpt>
      <trkpt lat="45.56273" lon="0.70012">
        <ele>260</ele>
        <time>2012-12-02T09:15:54Z</time>
      </trkpt>
      <trkpt lat="45.56258" lon="0.69993">
        <ele>260</ele>
        <time>2012-12-02T09:16:00Z</time>
      </trkpt>
      <trkpt lat="45.56253" lon="0.69988">
        <ele>260</ele>
        <time>2012-12-02T09:16:02Z</time>
      </trkpt>
      <trkpt lat="45.56243" lon="0.69982">
        <ele>260</ele>
        <time>2012-12-02T09:16:05Z</time>
      </trkpt>
      <trkpt lat="45.56225" lon="0.69974">
        <ele>261</ele>
        <time>2012-12-02T09:16:10Z</time>
      </trkpt>
      <trkpt lat="45.56204" lon="0.69965">
        <ele>262</ele>
        <time>2012-12-02T09:16:16Z</time>
      </trkpt>
      <trkpt lat="45.56197" lon="0.69962">
        <ele>262</ele>
        <time>2012-12-02T09:16:18Z</time>
      </trkpt>
      <trkpt lat="45.56176" lon="0.69955">
        <ele>262</ele>
        <time>2012-12-02T09:16:24Z</time>
      </trkpt>
      <trkpt lat="45.56171" lon="0.69952">
        <ele>263</ele>
        <time>2012-12-02T09:16:26Z</time>
      </trkpt>
      <trkpt lat="45.56162" lon="0.69948">
        <ele>265</ele>
        <time>2012-12-02T09:16:29Z</time>
      </trkpt>
      <trkpt lat="45.56141" lon="0.69941">
        <ele>265</ele>
        <time>2012-12-02T09:16:35Z</time>
      </trkpt>
      <trkpt lat="45.56129" lon="0.69953">
        <ele>265</ele>
        <time>2012-12-02T09:16:40Z</time>
      </trkpt>
      <trkpt lat="45.5612" lon="0.69978">
        <ele>264</ele>
        <time>2012-12-02T09:16:46Z</time>
      </trkpt>
      <trkpt lat="45.56107" lon="0.70001">
        <ele>262</ele>
        <time>2012-12-02T09:16:52Z</time>
      </trkpt>
      <trkpt lat="45.56099" lon="0.70017">
        <ele>262</ele>
        <time>2012-12-02T09:16:56Z</time>
      </trkpt>
      <trkpt lat="45.56096" lon="0.70031">
        <ele>262</ele>
        <time>2012-12-02T09:16:59Z</time>
      </trkpt>
      <trkpt lat="45.56092" lon="0.70038">
        <ele>262</ele>
        <time>2012-12-02T09:17:01Z</time>
      </trkpt>
      <trkpt lat="45.56083" lon="0.7005">
        <ele>263</ele>
        <time>2012-12-02T09:17:05Z</time>
      </trkpt>
      <trkpt lat="45.56066" lon="0.70073">
        <ele>263</ele>
        <time>2012-12-02T09:17:11Z</time>
      </trkpt>
      <trkpt lat="45.56059" lon="0.70085">
        <ele>262</ele>
        <time>2012-12-02T09:17:14Z</time>
      </trkpt>
      <trkpt lat="45.5605" lon="0.70105">
        <ele>263</ele>
        <time>2012-12-02T09:17:19Z</time>
      </trkpt>
      <trkpt lat="45.56044" lon="0.70117">
        <ele>263</ele>
        <time>2012-12-02T09:17:22Z</time>
      </trkpt>
      <trkpt lat="45.56035" lon="0.70121">
        <ele>263</ele>
        <time>2012-12-02T09:17:27Z</time>
      </trkpt>
      <trkpt lat="45.5603" lon="0.70116">
        <ele>264</ele>
        <time>2012-12-02T09:17:29Z</time>
      </trkpt>
      <trkpt lat="45.56018" lon="0.70105">
        <ele>264</ele>
        <time>2012-12-02T09:17:33Z</time>
      </trkpt>
      <trkpt lat="45.56004" lon="0.7009">
        <ele>265</ele>
        <time>2012-12-02T09:17:38Z</time>
      </trkpt>
      <trkpt lat="45.55981" lon="0.70069">
        <ele>265</ele>
        <time>2012-12-02T09:17:44Z</time>
      </trkpt>
      <trkpt lat="45.55976" lon="0.70064">
        <ele>265</ele>
        <time>2012-12-02T09:17:46Z</time>
      </trkpt>
      <trkpt lat="45.55973" lon="0.70057">
        <ele>265</ele>
        <time>2012-12-02T09:17:49Z</time>
      </trkpt>
      <trkpt lat="45.5596" lon="0.70022">
        <ele>265</ele>
        <time>2012-12-02T09:17:56Z</time>
      </trkpt>
      <trkpt lat="45.55955" lon="0.70019">
        <ele>265</ele>
        <time>2012-12-02T09:17:57Z</time>
      </trkpt>
      <trkpt lat="45.55932" lon="0.70031">
        <ele>265</ele>
        <time>2012-12-02T09:18:01Z</time>
      </trkpt>
      <trkpt lat="45.55885" lon="0.70031">
        <ele>262</ele>
        <time>2012-12-02T09:18:07Z</time>
      </trkpt>
      <trkpt lat="45.55859" lon="0.69991">
        <ele>264</ele>
        <time>2012-12-02T09:18:12Z</time>
      </trkpt>
      <trkpt lat="45.55853" lon="0.69987">
        <ele>263</ele>
        <time>2012-12-02T09:18:13Z</time>
      </trkpt>
      <trkpt lat="45.55807" lon="0.69992">
        <ele>259</ele>
        <time>2012-12-02T09:18:20Z</time>
      </trkpt>
      <trkpt lat="45.55788" lon="0.69976">
        <ele>258</ele>
        <time>2012-12-02T09:18:24Z</time>
      </trkpt>
      <trkpt lat="45.5578" lon="0.69968">
        <ele>258</ele>
        <time>2012-12-02T09:18:26Z</time>
      </trkpt>
      <trkpt lat="45.55766" lon="0.69985">
        <ele>256</ele>
        <time>2012-12-02T09:18:30Z</time>
      </trkpt>
      <trkpt lat="45.55744" lon="0.7001">
        <ele>251</ele>
        <time>2012-12-02T09:18:36Z</time>
      </trkpt>
      <trkpt lat="45.5572" lon="0.70021">
        <ele>250</ele>
        <time>2012-12-02T09:18:44Z</time>
      </trkpt>
      <trkpt lat="45.55698" lon="0.70014">
        <ele>251</ele>
        <time>2012-12-02T09:18:51Z</time>
      </trkpt>
      <trkpt lat="45.55678" lon="0.7003">
        <ele>251</ele>
        <time>2012-12-02T09:19:00Z</time>
      </trkpt>
      <trkpt lat="45.55675" lon="0.7004">
        <ele>250</ele>
        <time>2012-12-02T09:19:05Z</time>
      </trkpt>
      <trkpt lat="45.55671" lon="0.70044">
        <ele>250</ele>
        <time>2012-12-02T09:19:09Z</time>
      </trkpt>
      <trkpt lat="45.55657" lon="0.70044">
        <ele>254</ele>
        <time>2012-12-02T09:19:16Z</time>
      </trkpt>
      <trkpt lat="45.55648" lon="0.70049">
        <ele>255</ele>
        <time>2012-12-02T09:19:23Z</time>
      </trkpt>
      <trkpt lat="45.55652" lon="0.70083">
        <ele>252</ele>
        <time>2012-12-02T09:19:32Z</time>
      </trkpt>
      <trkpt lat="45.55647" lon="0.70103">
        <ele>251</ele>
        <time>2012-12-02T09:19:36Z</time>
      </trkpt>
      <trkpt lat="45.55646" lon="0.70111">
        <ele>251</ele>
        <time>2012-12-02T09:19:38Z</time>
      </trkpt>
      <trkpt lat="45.55647" lon="0.70137">
        <ele>249</ele>
        <time>2012-12-02T09:19:43Z</time>
      </trkpt>
      <trkpt lat="45.55641" lon="0.70158">
        <ele>249</ele>
        <time>2012-12-02T09:19:48Z</time>
      </trkpt>
      <trkpt lat="45.5564" lon="0.70166">
        <ele>249</ele>
        <time>2012-12-02T09:19:50Z</time>
      </trkpt>
      <trkpt lat="45.55638" lon="0.70177">
        <ele>245</ele>
        <time>2012-12-02T09:19:53Z</time>
      </trkpt>
      <trkpt lat="45.5563" lon="0.70192">
        <ele>245</ele>
        <time>2012-12-02T09:19:58Z</time>
      </trkpt>
      <trkpt lat="45.55616" lon="0.70206">
        <ele>245</ele>
        <time>2012-12-02T09:20:04Z</time>
      </trkpt>
      <trkpt lat="45.55609" lon="0.7021">
        <ele>245</ele>
        <time>2012-12-02T09:20:06Z</time>
      </trkpt>
      <trkpt lat="45.55601" lon="0.70216">
        <ele>245</ele>
        <time>2012-12-02T09:20:11Z</time>
      </trkpt>
      <trkpt lat="45.55588" lon="0.70224">
        <ele>245</ele>
        <time>2012-12-02T09:20:15Z</time>
      </trkpt>
      <trkpt lat="45.55572" lon="0.70232">
        <ele>248</ele>
        <time>2012-12-02T09:20:20Z</time>
      </trkpt>
      <trkpt lat="45.55562" lon="0.70244">
        <ele>248</ele>
        <time>2012-12-02T09:20:23Z</time>
      </trkpt>
      <trkpt lat="45.55554" lon="0.70256">
        <ele>243</ele>
        <time>2012-12-02T09:20:26Z</time>
      </trkpt>
      <trkpt lat="45.55534" lon="0.70264">
        <ele>244</ele>
        <time>2012-12-02T09:20:32Z</time>
      </trkpt>
      <trkpt lat="45.55524" lon="0.70272">
        <ele>244</ele>
        <time>2012-12-02T09:20:35Z</time>
      </trkpt>
      <trkpt lat="45.55511" lon="0.70303">
        <ele>242</ele>
        <time>2012-12-02T09:20:44Z</time>
      </trkpt>
      <trkpt lat="45.55505" lon="0.70312">
        <ele>241</ele>
        <time>2012-12-02T09:20:47Z</time>
      </trkpt>
      <trkpt lat="45.55495" lon="0.70333">
        <ele>241</ele>
        <time>2012-12-02T09:20:52Z</time>
      </trkpt>
      <trkpt lat="45.5549" lon="0.70342">
        <ele>240</ele>
        <time>2012-12-02T09:20:54Z</time>
      </trkpt>
      <trkpt lat="45.55472" lon="0.70359">
        <ele>241</ele>
        <time>2012-12-02T09:21:00Z</time>
      </trkpt>
      <trkpt lat="45.55452" lon="0.70395">
        <ele>240</ele>
        <time>2012-12-02T09:21:07Z</time>
      </trkpt>
      <trkpt lat="45.55435" lon="0.7041">
        <ele>241</ele>
        <time>2012-12-02T09:21:11Z</time>
      </trkpt>
      <trkpt lat="45.55427" lon="0.70418">
        <ele>238</ele>
        <time>2012-12-02T09:21:13Z</time>
      </trkpt>
      <trkpt lat="45.55412" lon="0.70432">
        <ele>239</ele>
        <time>2012-12-02T09:21:17Z</time>
      </trkpt>
      <trkpt lat="45.55398" lon="0.70442">
        <ele>239</ele>
        <time>2012-12-02T09:21:22Z</time>
      </trkpt>
      <trkpt lat="45.55378" lon="0.7044">
        <ele>239</ele>
        <time>2012-12-02T09:21:30Z</time>
      </trkpt>
      <trkpt lat="45.55365" lon="0.70443">
        <ele>239</ele>
        <time>2012-12-02T09:21:35Z</time>
      </trkpt>
      <trkpt lat="45.55341" lon="0.70447">
        <ele>240</ele>
        <time>2012-12-02T09:21:44Z</time>
      </trkpt>
      <trkpt lat="45.55314" lon="0.70435">
        <ele>240</ele>
        <time>2012-12-02T09:21:52Z</time>
      </trkpt>
      <trkpt lat="45.55298" lon="0.70422">
        <ele>240</ele>
        <time>2012-12-02T09:21:55Z</time>
      </trkpt>
      <trkpt lat="45.55276" lon="0.70421">
        <ele>240</ele>
        <time>2012-12-02T09:22:00Z</time>
      </trkpt>
      <trkpt lat="45.55264" lon="0.70432">
        <ele>239</ele>
        <time>2012-12-02T09:22:03Z</time>
      </trkpt>
      <trkpt lat="45.55247" lon="0.70472">
        <ele>240</ele>
        <time>2012-12-02T09:22:12Z</time>
      </trkpt>
      <trkpt lat="45.55237" lon="0.70485">
        <ele>238</ele>
        <time>2012-12-02T09:22:16Z</time>
      </trkpt>
      <trkpt lat="45.55237" lon="0.705">
        <ele>233</ele>
        <time>2012-12-02T09:22:19Z</time>
      </trkpt>
      <trkpt lat="45.55229" lon="0.7051">
        <ele>233</ele>
        <time>2012-12-02T09:22:21Z</time>
      </trkpt>
      <trkpt lat="45.55187" lon="0.70542">
        <ele>234</ele>
        <time>2012-12-02T09:22:28Z</time>
      </trkpt>
      <trkpt lat="45.55178" lon="0.70544">
        <ele>234</ele>
        <time>2012-12-02T09:22:29Z</time>
      </trkpt>
      <trkpt lat="45.55158" lon="0.70561">
        <ele>237</ele>
        <time>2012-12-02T09:22:33Z</time>
      </trkpt>
      <trkpt lat="45.55132" lon="0.70584">
        <ele>228</ele>
        <time>2012-12-02T09:22:40Z</time>
      </trkpt>
      <trkpt lat="45.55104" lon="0.70604">
        <ele>229</ele>
        <time>2012-12-02T09:22:44Z</time>
      </trkpt>
      <trkpt lat="45.55069" lon="0.70621">
        <ele>226</ele>
        <time>2012-12-02T09:22:48Z</time>
      </trkpt>
      <trkpt lat="45.55035" lon="0.70654">
        <ele>223</ele>
        <time>2012-12-02T09:22:52Z</time>
      </trkpt>
      <trkpt lat="45.55026" lon="0.70677">
        <ele>217</ele>
        <time>2012-12-02T09:22:54Z</time>
      </trkpt>
      <trkpt lat="45.55001" lon="0.70702">
        <ele>215</ele>
        <time>2012-12-02T09:22:58Z</time>
      </trkpt>
      <trkpt lat="45.54964" lon="0.70715">
        <ele>209</ele>
        <time>2012-12-02T09:23:02Z</time>
      </trkpt>
      <trkpt lat="45.54937" lon="0.70712">
        <ele>208</ele>
        <time>2012-12-02T09:23:06Z</time>
      </trkpt>
      <trkpt lat="45.54911" lon="0.7069">
        <ele>204</ele>
        <time>2012-12-02T09:23:10Z</time>
      </trkpt>
      <trkpt lat="45.54874" lon="0.707">
        <ele>202</ele>
        <time>2012-12-02T09:23:15Z</time>
      </trkpt>
      <trkpt lat="45.54859" lon="0.70697">
        <ele>202</ele>
        <time>2012-12-02T09:23:19Z</time>
      </trkpt>
      <trkpt lat="45.54849" lon="0.70686">
        <ele>203</ele>
        <time>2012-12-02T09:23:22Z</time>
      </trkpt>
      <trkpt lat="45.54839" lon="0.70671">
        <ele>204</ele>
        <time>2012-12-02T09:23:26Z</time>
      </trkpt>
      <trkpt lat="45.54822" lon="0.70657">
        <ele>205</ele>
        <time>2012-12-02T09:23:31Z</time>
      </trkpt>
      <trkpt lat="45.5481" lon="0.70651">
        <ele>204</ele>
        <time>2012-12-02T09:23:34Z</time>
      </trkpt>
      <trkpt lat="45.54791" lon="0.70641">
        <ele>203</ele>
        <time>2012-12-02T09:23:38Z</time>
      </trkpt>
      <trkpt lat="45.54761" lon="0.70625">
        <ele>202</ele>
        <time>2012-12-02T09:23:44Z</time>
      </trkpt>
      <trkpt lat="45.54752" lon="0.70612">
        <ele>202</ele>
        <time>2012-12-02T09:23:46Z</time>
      </trkpt>
      <trkpt lat="45.54737" lon="0.70588">
        <ele>198</ele>
        <time>2012-12-02T09:23:51Z</time>
      </trkpt>
      <trkpt lat="45.54734" lon="0.70577">
        <ele>202</ele>
        <time>2012-12-02T09:23:53Z</time>
      </trkpt>
      <trkpt lat="45.54717" lon="0.70548">
        <ele>203</ele>
        <time>2012-12-02T09:24:00Z</time>
      </trkpt>
      <trkpt lat="45.54705" lon="0.70539">
        <ele>202</ele>
        <time>2012-12-02T09:24:03Z</time>
      </trkpt>
      <trkpt lat="45.54686" lon="0.70524">
        <ele>202</ele>
        <time>2012-12-02T09:24:07Z</time>
      </trkpt>
      <trkpt lat="45.5468" lon="0.70516">
        <ele>202</ele>
        <time>2012-12-02T09:24:09Z</time>
      </trkpt>
      <trkpt lat="45.54645" lon="0.70492">
        <ele>204</ele>
        <time>2012-12-02T09:24:16Z</time>
      </trkpt>
      <trkpt lat="45.54615" lon="0.70465">
        <ele>204</ele>
        <time>2012-12-02T09:24:23Z</time>
      </trkpt>
      <trkpt lat="45.54606" lon="0.70459">
        <ele>204</ele>
        <time>2012-12-02T09:24:25Z</time>
      </trkpt>
      <trkpt lat="45.54571" lon="0.70436">
        <ele>200</ele>
        <time>2012-12-02T09:24:32Z</time>
      </trkpt>
      <trkpt lat="45.54548" lon="0.70429">
        <ele>199</ele>
        <time>2012-12-02T09:24:36Z</time>
      </trkpt>
      <trkpt lat="45.54543" lon="0.70427">
        <ele>198</ele>
        <time>2012-12-02T09:24:37Z</time>
      </trkpt>
      <trkpt lat="45.54507" lon="0.70422">
        <ele>198</ele>
        <time>2012-12-02T09:24:43Z</time>
      </trkpt>
      <trkpt lat="45.54493" lon="0.7042">
        <ele>197</ele>
        <time>2012-12-02T09:24:46Z</time>
      </trkpt>
      <trkpt lat="45.54458" lon="0.70418">
        <ele>195</ele>
        <time>2012-12-02T09:24:52Z</time>
      </trkpt>
      <trkpt lat="45.54438" lon="0.70414">
        <ele>202</ele>
        <time>2012-12-02T09:24:56Z</time>
      </trkpt>
      <trkpt lat="45.54421" lon="0.70409">
        <ele>200</ele>
        <time>2012-12-02T09:25:00Z</time>
      </trkpt>
      <trkpt lat="45.5441" lon="0.70409">
        <ele>200</ele>
        <time>2012-12-02T09:25:04Z</time>
      </trkpt>
      <trkpt lat="45.54399" lon="0.70421">
        <ele>197</ele>
        <time>2012-12-02T09:25:09Z</time>
      </trkpt>
      <trkpt lat="45.54393" lon="0.70433">
        <ele>196</ele>
        <time>2012-12-02T09:25:13Z</time>
      </trkpt>
      <trkpt lat="45.54388" lon="0.70435">
        <ele>196</ele>
        <time>2012-12-02T09:25:22Z</time>
      </trkpt>
      <trkpt lat="45.54384" lon="0.70431">
        <ele>197</ele>
        <time>2012-12-02T09:26:02Z</time>
      </trkpt>
      <trkpt lat="45.54384" lon="0.70425">
        <ele>197</ele>
        <time>2012-12-02T09:27:52Z</time>
      </trkpt>
      <trkpt lat="45.5438" lon="0.70434">
        <ele>197</ele>
        <time>2012-12-02T09:28:36Z</time>
      </trkpt>
      <trkpt lat="45.54376" lon="0.70434">
        <ele>197</ele>
        <time>2012-12-02T09:28:56Z</time>
      </trkpt>
      <trkpt lat="45.5438" lon="0.70439">
        <ele>196</ele>
        <time>2012-12-02T09:29:22Z</time>
      </trkpt>
      <trkpt lat="45.54383" lon="0.70443">
        <ele>196</ele>
        <time>2012-12-02T09:29:36Z</time>
      </trkpt>
      <trkpt lat="45.54383" lon="0.70448">
        <ele>196</ele>
        <time>2012-12-02T09:29:56Z</time>
      </trkpt>
      <trkpt lat="45.54379" lon="0.70447">
        <ele>196</ele>
        <time>2012-12-02T09:30:31Z</time>
      </trkpt>
      <trkpt lat="45.54374" lon="0.70453">
        <ele>196</ele>
        <time>2012-12-02T09:30:41Z</time>
      </trkpt>
      <trkpt lat="45.54368" lon="0.70473">
        <ele>195</ele>
        <time>2012-12-02T09:30:45Z</time>
      </trkpt>
      <trkpt lat="45.54353" lon="0.70511">
        <ele>193</ele>
        <time>2012-12-02T09:30:52Z</time>
      </trkpt>
      <trkpt lat="45.54348" lon="0.70524">
        <ele>193</ele>
        <time>2012-12-02T09:30:54Z</time>
      </trkpt>
      <trkpt lat="45.5434" lon="0.7055">
        <ele>192</ele>
        <time>2012-12-02T09:30:58Z</time>
      </trkpt>
      <trkpt lat="45.54336" lon="0.70586">
        <ele>191</ele>
        <time>2012-12-02T09:31:04Z</time>
      </trkpt>
      <trkpt lat="45.54338" lon="0.70598">
        <ele>191</ele>
        <time>2012-12-02T09:31:06Z</time>
      </trkpt>
      <trkpt lat="45.54352" lon="0.70625">
        <ele>192</ele>
        <time>2012-12-02T09:31:12Z</time>
      </trkpt>
      <trkpt lat="45.54361" lon="0.70639">
        <ele>192</ele>
        <time>2012-12-02T09:31:16Z</time>
      </trkpt>
      <trkpt lat="45.54371" lon="0.70651">
        <ele>192</ele>
        <time>2012-12-02T09:31:20Z</time>
      </trkpt>
      <trkpt lat="45.54377" lon="0.70658">
        <ele>192</ele>
        <time>2012-12-02T09:31:22Z</time>
      </trkpt>
      <trkpt lat="45.54393" lon="0.70678">
        <ele>194</ele>
        <time>2012-12-02T09:31:28Z</time>
      </trkpt>
      <trkpt lat="45.54407" lon="0.70699">
        <ele>195</ele>
        <time>2012-12-02T09:31:34Z</time>
      </trkpt>
      <trkpt lat="45.54412" lon="0.7071">
        <ele>196</ele>
        <time>2012-12-02T09:31:37Z</time>
      </trkpt>
      <trkpt lat="45.54419" lon="0.70729">
        <ele>199</ele>
        <time>2012-12-02T09:31:42Z</time>
      </trkpt>
      <trkpt lat="45.54422" lon="0.70741">
        <ele>200</ele>
        <time>2012-12-02T09:31:45Z</time>
      </trkpt>
      <trkpt lat="45.54424" lon="0.70769">
        <ele>204</ele>
        <time>2012-12-02T09:31:52Z</time>
      </trkpt>
      <trkpt lat="45.54426" lon="0.70782">
        <ele>206</ele>
        <time>2012-12-02T09:31:56Z</time>
      </trkpt>
      <trkpt lat="45.54428" lon="0.70797">
        <ele>207</ele>
        <time>2012-12-02T09:32:02Z</time>
      </trkpt>
      <trkpt lat="45.54429" lon="0.70808">
        <ele>208</ele>
        <time>2012-12-02T09:32:06Z</time>
      </trkpt>
      <trkpt lat="45.5443" lon="0.70819">
        <ele>208</ele>
        <time>2012-12-02T09:32:10Z</time>
      </trkpt>
      <trkpt lat="45.54432" lon="0.70832">
        <ele>209</ele>
        <time>2012-12-02T09:32:13Z</time>
      </trkpt>
      <trkpt lat="45.54432" lon="0.70841">
        <ele>212</ele>
        <time>2012-12-02T09:32:17Z</time>
      </trkpt>
      <trkpt lat="45.54435" lon="0.70858">
        <ele>213</ele>
        <time>2012-12-02T09:32:26Z</time>
      </trkpt>
      <trkpt lat="45.54438" lon="0.70871">
        <ele>213</ele>
        <time>2012-12-02T09:32:32Z</time>
      </trkpt>
      <trkpt lat="45.54441" lon="0.70881">
        <ele>213</ele>
        <time>2012-12-02T09:32:39Z</time>
      </trkpt>
      <trkpt lat="45.54447" lon="0.70896">
        <ele>214</ele>
        <time>2012-12-02T09:32:49Z</time>
      </trkpt>
      <trkpt lat="45.54448" lon="0.70902">
        <ele>214</ele>
        <time>2012-12-02T09:33:06Z</time>
      </trkpt>
      <trkpt lat="45.54453" lon="0.70905">
        <ele>214</ele>
        <time>2012-12-02T09:33:24Z</time>
      </trkpt>
      <trkpt lat="45.54461" lon="0.70915">
        <ele>214</ele>
        <time>2012-12-02T09:33:32Z</time>
      </trkpt>
      <trkpt lat="45.54465" lon="0.70923">
        <ele>214</ele>
        <time>2012-12-02T09:33:34Z</time>
      </trkpt>
      <trkpt lat="45.54482" lon="0.70946">
        <ele>213</ele>
        <time>2012-12-02T09:33:39Z</time>
      </trkpt>
      <trkpt lat="45.54497" lon="0.70968">
        <ele>212</ele>
        <time>2012-12-02T09:33:42Z</time>
      </trkpt>
      <trkpt lat="45.5452" lon="0.71023">
        <ele>206</ele>
        <time>2012-12-02T09:33:48Z</time>
      </trkpt>
      <trkpt lat="45.54523" lon="0.71032">
        <ele>206</ele>
        <time>2012-12-02T09:33:49Z</time>
      </trkpt>
      <trkpt lat="45.54531" lon="0.71053">
        <ele>206</ele>
        <time>2012-12-02T09:33:53Z</time>
      </trkpt>
      <trkpt lat="45.54538" lon="0.71069">
        <ele>206</ele>
        <time>2012-12-02T09:34:00Z</time>
      </trkpt>
      <trkpt lat="45.54544" lon="0.71081">
        <ele>206</ele>
        <time>2012-12-02T09:34:05Z</time>
      </trkpt>
      <trkpt lat="45.54553" lon="0.71097">
        <ele>208</ele>
        <time>2012-12-02T09:34:11Z</time>
      </trkpt>
      <trkpt lat="45.54562" lon="0.71112">
        <ele>208</ele>
        <time>2012-12-02T09:34:16Z</time>
      </trkpt>
      <trkpt lat="45.54577" lon="0.71138">
        <ele>209</ele>
        <time>2012-12-02T09:34:24Z</time>
      </trkpt>
      <trkpt lat="45.54583" lon="0.7115">
        <ele>209</ele>
        <time>2012-12-02T09:34:29Z</time>
      </trkpt>
      <trkpt lat="45.54586" lon="0.71155">
        <ele>209</ele>
        <time>2012-12-02T09:34:33Z</time>
      </trkpt>
      <trkpt lat="45.54592" lon="0.71166">
        <ele>209</ele>
        <time>2012-12-02T09:34:48Z</time>
      </trkpt>
      <trkpt lat="45.54597" lon="0.71172">
        <ele>211</ele>
        <time>2012-12-02T09:34:51Z</time>
      </trkpt>
      <trkpt lat="45.5459" lon="0.71228">
        <ele>213</ele>
        <time>2012-10-24T13:16:06Z</time>
      </trkpt>
      <trkpt lat="45.54584" lon="0.71233">
        <ele>214</ele>
        <time>2012-10-24T13:16:08Z</time>
      </trkpt>
      <trkpt lat="45.54573" lon="0.71241">
        <ele>215</ele>
        <time>2012-10-24T13:16:12Z</time>
      </trkpt>
      <trkpt lat="45.54555" lon="0.7126">
        <ele>218</ele>
        <time>2012-10-24T13:16:19Z</time>
      </trkpt>
      <trkpt lat="45.54547" lon="0.71268">
        <ele>218</ele>
        <time>2012-10-24T13:16:22Z</time>
      </trkpt>
      <trkpt lat="45.54541" lon="0.71273">
        <ele>218</ele>
        <time>2012-10-24T13:16:24Z</time>
      </trkpt>
      <trkpt lat="45.54526" lon="0.71291">
        <ele>219</ele>
        <time>2012-10-24T13:16:30Z</time>
      </trkpt>
      <trkpt lat="45.54516" lon="0.71303">
        <ele>220</ele>
        <time>2012-10-24T13:16:34Z</time>
      </trkpt>
      <trkpt lat="45.54506" lon="0.71315">
        <ele>221</ele>
        <time>2012-10-24T13:16:39Z</time>
      </trkpt>
      <trkpt lat="45.545" lon="0.71324">
        <ele>223</ele>
        <time>2012-10-24T13:16:42Z</time>
      </trkpt>
      <trkpt lat="45.54493" lon="0.71332">
        <ele>223</ele>
        <time>2012-10-24T13:16:45Z</time>
      </trkpt>
      <trkpt lat="45.54478" lon="0.71349">
        <ele>224</ele>
        <time>2012-10-24T13:16:51Z</time>
      </trkpt>
      <trkpt lat="45.54469" lon="0.71356">
        <ele>225</ele>
        <time>2012-10-24T13:16:54Z</time>
      </trkpt>
      <trkpt lat="45.54462" lon="0.71365">
        <ele>225</ele>
        <time>2012-10-24T13:16:57Z</time>
      </trkpt>
      <trkpt lat="45.54448" lon="0.71377">
        <ele>225</ele>
        <time>2012-10-24T13:17:02Z</time>
      </trkpt>
      <trkpt lat="45.54439" lon="0.71385">
        <ele>226</ele>
        <time>2012-10-24T13:17:05Z</time>
      </trkpt>
      <trkpt lat="45.54421" lon="0.71399">
        <ele>227</ele>
        <time>2012-10-24T13:17:11Z</time>
      </trkpt>
      <trkpt lat="45.54414" lon="0.71408">
        <ele>228</ele>
        <time>2012-10-24T13:17:14Z</time>
      </trkpt>
      <trkpt lat="45.54404" lon="0.71424">
        <ele>228</ele>
        <time>2012-10-24T13:17:19Z</time>
      </trkpt>
      <trkpt lat="45.54388" lon="0.71452">
        <ele>227</ele>
        <time>2012-10-24T13:17:27Z</time>
      </trkpt>
      <trkpt lat="45.54382" lon="0.71464">
        <ele>227</ele>
        <time>2012-10-24T13:17:31Z</time>
      </trkpt>
      <trkpt lat="45.54377" lon="0.7147">
        <ele>227</ele>
        <time>2012-10-24T13:17:33Z</time>
      </trkpt>
      <trkpt lat="45.54367" lon="0.71492">
        <ele>227</ele>
        <time>2012-10-24T13:17:38Z</time>
      </trkpt>
      <trkpt lat="45.54363" lon="0.71502">
        <ele>227</ele>
        <time>2012-10-24T13:17:40Z</time>
      </trkpt>
      <trkpt lat="45.54349" lon="0.71532">
        <ele>226</ele>
        <time>2012-10-24T13:17:46Z</time>
      </trkpt>
      <trkpt lat="45.54338" lon="0.71552">
        <ele>226</ele>
        <time>2012-10-24T13:17:50Z</time>
      </trkpt>
      <trkpt lat="45.54333" lon="0.71562">
        <ele>228</ele>
        <time>2012-10-24T13:17:52Z</time>
      </trkpt>
      <trkpt lat="45.54317" lon="0.71597">
        <ele>228</ele>
        <time>2012-10-24T13:17:59Z</time>
      </trkpt>
      <trkpt lat="45.54304" lon="0.71635">
        <ele>229</ele>
        <time>2012-10-24T13:18:06Z</time>
      </trkpt>
      <trkpt lat="45.54298" lon="0.7166">
        <ele>229</ele>
        <time>2012-10-24T13:18:11Z</time>
      </trkpt>
      <trkpt lat="45.54297" lon="0.71667">
        <ele>231</ele>
        <time>2012-10-24T13:18:13Z</time>
      </trkpt>
      <trkpt lat="45.54293" lon="0.71683">
        <ele>232</ele>
        <time>2012-10-24T13:18:17Z</time>
      </trkpt>
      <trkpt lat="45.5429" lon="0.717">
        <ele>232</ele>
        <time>2012-10-24T13:18:21Z</time>
      </trkpt>
      <trkpt lat="45.54287" lon="0.71716">
        <ele>233</ele>
        <time>2012-10-24T13:18:25Z</time>
      </trkpt>
      <trkpt lat="45.54284" lon="0.71731">
        <ele>233</ele>
        <time>2012-10-24T13:18:29Z</time>
      </trkpt>
      <trkpt lat="45.54281" lon="0.71746">
        <ele>234</ele>
        <time>2012-10-24T13:18:33Z</time>
      </trkpt>
      <trkpt lat="45.54279" lon="0.71757">
        <ele>236</ele>
        <time>2012-10-24T13:18:36Z</time>
      </trkpt>
      <trkpt lat="45.54274" lon="0.7178">
        <ele>236</ele>
        <time>2012-10-24T13:18:42Z</time>
      </trkpt>
      <trkpt lat="45.54273" lon="0.71792">
        <ele>236</ele>
        <time>2012-10-24T13:18:45Z</time>
      </trkpt>
      <trkpt lat="45.54268" lon="0.71816">
        <ele>237</ele>
        <time>2012-10-24T13:18:51Z</time>
      </trkpt>
      <trkpt lat="45.54267" lon="0.71824">
        <ele>237</ele>
        <time>2012-10-24T13:18:53Z</time>
      </trkpt>
      <trkpt lat="45.54264" lon="0.71836">
        <ele>239</ele>
        <time>2012-10-24T13:18:56Z</time>
      </trkpt>
      <trkpt lat="45.54259" lon="0.71865">
        <ele>239</ele>
        <time>2012-10-24T13:19:03Z</time>
      </trkpt>
      <trkpt lat="45.54255" lon="0.71891">
        <ele>240</ele>
        <time>2012-10-24T13:19:09Z</time>
      </trkpt>
      <trkpt lat="45.54252" lon="0.71903">
        <ele>241</ele>
        <time>2012-10-24T13:19:12Z</time>
      </trkpt>
      <trkpt lat="45.54249" lon="0.71932">
        <ele>242</ele>
        <time>2012-10-24T13:19:19Z</time>
      </trkpt>
      <trkpt lat="45.54248" lon="0.7194">
        <ele>242</ele>
        <time>2012-10-24T13:19:21Z</time>
      </trkpt>
      <trkpt lat="45.54247" lon="0.7196">
        <ele>242</ele>
        <time>2012-10-24T13:19:26Z</time>
      </trkpt>
      <trkpt lat="45.54247" lon="0.71978">
        <ele>243</ele>
        <time>2012-10-24T13:19:30Z</time>
      </trkpt>
      <trkpt lat="45.54247" lon="0.71987">
        <ele>243</ele>
        <time>2012-10-24T13:19:32Z</time>
      </trkpt>
      <trkpt lat="45.54247" lon="0.7201">
        <ele>244</ele>
        <time>2012-10-24T13:19:37Z</time>
      </trkpt>
      <trkpt lat="45.54246" lon="0.72038">
        <ele>244</ele>
        <time>2012-10-24T13:19:43Z</time>
      </trkpt>
      <trkpt lat="45.54245" lon="0.72053">
        <ele>244</ele>
        <time>2012-10-24T13:19:46Z</time>
      </trkpt>
      <trkpt lat="45.54242" lon="0.72079">
        <ele>245</ele>
        <time>2012-10-24T13:19:51Z</time>
      </trkpt>
      <trkpt lat="45.54236" lon="0.72115">
        <ele>245</ele>
        <time>2012-10-24T13:19:58Z</time>
      </trkpt>
      <trkpt lat="45.54229" lon="0.72133">
        <ele>245</ele>
        <time>2012-10-24T13:20:02Z</time>
      </trkpt>
      <trkpt lat="45.54222" lon="0.72149">
        <ele>245</ele>
        <time>2012-10-24T13:20:07Z</time>
      </trkpt>
      <trkpt lat="45.54216" lon="0.72153">
        <ele>245</ele>
        <time>2012-10-24T13:20:14Z</time>
      </trkpt>
      <trkpt lat="45.54211" lon="0.72156">
        <ele>245</ele>
        <time>2012-10-24T13:20:43Z</time>
      </trkpt>
      <trkpt lat="45.54195" lon="0.72175">
        <ele>245</ele>
        <time>2012-10-24T13:20:50Z</time>
      </trkpt>
      <trkpt lat="45.54186" lon="0.72192">
        <ele>245</ele>
        <time>2012-10-24T13:20:54Z</time>
      </trkpt>
      <trkpt lat="45.54176" lon="0.72212">
        <ele>245</ele>
        <time>2012-10-24T13:20:59Z</time>
      </trkpt>
      <trkpt lat="45.54171" lon="0.72218">
        <ele>246</ele>
        <time>2012-10-24T13:21:01Z</time>
      </trkpt>
      <trkpt lat="45.54159" lon="0.72219">
        <ele>246</ele>
        <time>2012-10-24T13:21:04Z</time>
      </trkpt>
      <trkpt lat="45.54123" lon="0.72202">
        <ele>246</ele>
        <time>2012-10-24T13:21:11Z</time>
      </trkpt>
      <trkpt lat="45.54115" lon="0.72188">
        <ele>246</ele>
        <time>2012-10-24T13:21:13Z</time>
      </trkpt>
      <trkpt lat="45.54086" lon="0.72172">
        <ele>247</ele>
        <time>2012-10-24T13:21:19Z</time>
      </trkpt>
      <trkpt lat="45.54081" lon="0.72165">
        <ele>248</ele>
        <time>2012-10-24T13:21:21Z</time>
      </trkpt>
      <trkpt lat="45.54078" lon="0.72143">
        <ele>252</ele>
        <time>2012-10-24T13:21:26Z</time>
      </trkpt>
      <trkpt lat="45.54078" lon="0.72124">
        <ele>253</ele>
        <time>2012-10-24T13:21:30Z</time>
      </trkpt>
      <trkpt lat="45.54077" lon="0.72112">
        <ele>253</ele>
        <time>2012-10-24T13:21:32Z</time>
      </trkpt>
      <trkpt lat="45.54075" lon="0.72084">
        <ele>250</ele>
        <time>2012-10-24T13:21:36Z</time>
      </trkpt>
      <trkpt lat="45.54074" lon="0.72053">
        <ele>251</ele>
        <time>2012-10-24T13:21:40Z</time>
      </trkpt>
      <trkpt lat="45.54073" lon="0.72007">
        <ele>247</ele>
        <time>2012-10-24T13:21:47Z</time>
      </trkpt>
      <trkpt lat="45.54068" lon="0.71963">
        <ele>245</ele>
        <time>2012-10-24T13:21:53Z</time>
      </trkpt>
      <trkpt lat="45.54058" lon="0.71908">
        <ele>240</ele>
        <time>2012-10-24T13:21:59Z</time>
      </trkpt>
      <trkpt lat="45.54051" lon="0.71865">
        <ele>240</ele>
        <time>2012-10-24T13:22:03Z</time>
      </trkpt>
      <trkpt lat="45.54043" lon="0.71817">
        <ele>237</ele>
        <time>2012-10-24T13:22:07Z</time>
      </trkpt>
      <trkpt lat="45.54038" lon="0.71793">
        <ele>237</ele>
        <time>2012-10-24T13:22:09Z</time>
      </trkpt>
      <trkpt lat="45.54031" lon="0.71725">
        <ele>232</ele>
        <time>2012-10-24T13:22:15Z</time>
      </trkpt>
      <trkpt lat="45.54029" lon="0.71715">
        <ele>231</ele>
        <time>2012-10-24T13:22:16Z</time>
      </trkpt>
      <trkpt lat="45.54017" lon="0.71677">
        <ele>231</ele>
        <time>2012-10-24T13:22:20Z</time>
      </trkpt>
      <trkpt lat="45.53997" lon="0.71644">
        <ele>229</ele>
        <time>2012-10-24T13:22:25Z</time>
      </trkpt>
      <trkpt lat="45.53974" lon="0.71632">
        <ele>229</ele>
        <time>2012-10-24T13:22:31Z</time>
      </trkpt>
      <trkpt lat="45.53949" lon="0.71629">
        <ele>229</ele>
        <time>2012-10-24T13:22:39Z</time>
      </trkpt>
      <trkpt lat="45.53936" lon="0.71628">
        <ele>230</ele>
        <time>2012-10-24T13:22:41Z</time>
      </trkpt>
      <trkpt lat="45.53903" lon="0.71628">
        <ele>234</ele>
        <time>2012-10-24T13:22:47Z</time>
      </trkpt>
      <trkpt lat="45.53893" lon="0.71625">
        <ele>234</ele>
        <time>2012-10-24T13:22:49Z</time>
      </trkpt>
      <trkpt lat="45.53879" lon="0.7162">
        <ele>234</ele>
        <time>2012-10-24T13:22:52Z</time>
      </trkpt>
      <trkpt lat="45.5386" lon="0.71611">
        <ele>234</ele>
        <time>2012-10-24T13:22:56Z</time>
      </trkpt>
      <trkpt lat="45.53842" lon="0.71606">
        <ele>235</ele>
        <time>2012-10-24T13:23:03Z</time>
      </trkpt>
      <trkpt lat="45.53837" lon="0.716">
        <ele>235</ele>
        <time>2012-10-24T13:23:06Z</time>
      </trkpt>
      <trkpt lat="45.53831" lon="0.7159">
        <ele>237</ele>
        <time>2012-10-24T13:23:11Z</time>
      </trkpt>
      <trkpt lat="45.53823" lon="0.71589">
        <ele>237</ele>
        <time>2012-10-24T13:23:22Z</time>
      </trkpt>
      <trkpt lat="45.53818" lon="0.71586">
        <ele>238</ele>
        <time>2012-10-24T13:23:35Z</time>
      </trkpt>
      <trkpt lat="45.53815" lon="0.71582">
        <ele>237</ele>
        <time>2012-10-24T13:23:48Z</time>
      </trkpt>
      <trkpt lat="45.53803" lon="0.71576">
        <ele>238</ele>
        <time>2012-10-24T13:23:55Z</time>
      </trkpt>
      <trkpt lat="45.53786" lon="0.71569">
        <ele>240</ele>
        <time>2012-10-24T13:24:03Z</time>
      </trkpt>
      <trkpt lat="45.53779" lon="0.71563">
        <ele>240</ele>
        <time>2012-10-24T13:24:07Z</time>
      </trkpt>
      <trkpt lat="45.53766" lon="0.71553">
        <ele>241</ele>
        <time>2012-10-24T13:24:15Z</time>
      </trkpt>
      <trkpt lat="45.53756" lon="0.71546">
        <ele>241</ele>
        <time>2012-10-24T13:24:20Z</time>
      </trkpt>
      <trkpt lat="45.53749" lon="0.71543">
        <ele>249</ele>
        <time>2012-10-24T13:24:25Z</time>
      </trkpt>
      <trkpt lat="45.53741" lon="0.71544">
        <ele>249</ele>
        <time>2012-10-24T13:24:31Z</time>
      </trkpt>
      <trkpt lat="45.53732" lon="0.7154">
        <ele>250</ele>
        <time>2012-10-24T13:24:37Z</time>
      </trkpt>
      <trkpt lat="45.53733" lon="0.71534">
        <ele>250</ele>
        <time>2012-10-24T13:24:51Z</time>
      </trkpt>
      <trkpt lat="45.53729" lon="0.71531">
        <ele>250</ele>
        <time>2012-10-24T13:25:09Z</time>
      </trkpt>
      <trkpt lat="45.53725" lon="0.71524">
        <ele>250</ele>
        <time>2012-10-24T13:25:23Z</time>
      </trkpt>
      <trkpt lat="45.53721" lon="0.7152">
        <ele>250</ele>
        <time>2012-10-24T13:25:42Z</time>
      </trkpt>
      <trkpt lat="45.53713" lon="0.71512">
        <ele>251</ele>
        <time>2012-10-24T13:26:27Z</time>
      </trkpt>
      <trkpt lat="45.53708" lon="0.71508">
        <ele>252</ele>
        <time>2012-10-24T13:26:45Z</time>
      </trkpt>
      <trkpt lat="45.53705" lon="0.71513">
        <ele>252</ele>
        <time>2012-10-24T13:26:53Z</time>
      </trkpt>
      <trkpt lat="45.53693" lon="0.71521">
        <ele>254</ele>
        <time>2012-10-24T13:26:59Z</time>
      </trkpt>
      <trkpt lat="45.5369" lon="0.71526">
        <ele>254</ele>
        <time>2012-10-24T13:27:03Z</time>
      </trkpt>
      <trkpt lat="45.53685" lon="0.7153">
        <ele>254</ele>
        <time>2012-10-24T13:27:06Z</time>
      </trkpt>
      <trkpt lat="45.53677" lon="0.71536">
        <ele>254</ele>
        <time>2012-10-24T13:27:10Z</time>
      </trkpt>
      <trkpt lat="45.53672" lon="0.7154">
        <ele>255</ele>
        <time>2012-10-24T13:27:13Z</time>
      </trkpt>
      <trkpt lat="45.5366" lon="0.71547">
        <ele>261</ele>
        <time>2012-10-24T13:27:19Z</time>
      </trkpt>
      <trkpt lat="45.53648" lon="0.71551">
        <ele>261</ele>
        <time>2012-10-24T13:27:25Z</time>
      </trkpt>
      <trkpt lat="45.53643" lon="0.71553">
        <ele>261</ele>
        <time>2012-10-24T13:27:28Z</time>
      </trkpt>
      <trkpt lat="45.53629" lon="0.71558">
        <ele>262</ele>
        <time>2012-10-24T13:27:34Z</time>
      </trkpt>
      <trkpt lat="45.53624" lon="0.7156">
        <ele>262</ele>
        <time>2012-10-24T13:27:36Z</time>
      </trkpt>
      <trkpt lat="45.53607" lon="0.71564">
        <ele>263</ele>
        <time>2012-10-24T13:27:41Z</time>
      </trkpt>
      <trkpt lat="45.53589" lon="0.71573">
        <ele>264</ele>
        <time>2012-10-24T13:27:47Z</time>
      </trkpt>
      <trkpt lat="45.53581" lon="0.71576">
        <ele>266</ele>
        <time>2012-10-24T13:27:50Z</time>
      </trkpt>
      <trkpt lat="45.53567" lon="0.71583">
        <ele>267</ele>
        <time>2012-10-24T13:27:58Z</time>
      </trkpt>
      <trkpt lat="45.53553" lon="0.71588">
        <ele>269</ele>
        <time>2012-10-24T13:28:02Z</time>
      </trkpt>
      <trkpt lat="45.53543" lon="0.71594">
        <ele>270</ele>
        <time>2012-10-24T13:28:05Z</time>
      </trkpt>
      <trkpt lat="45.53527" lon="0.71607">
        <ele>271</ele>
        <time>2012-10-24T13:28:11Z</time>
      </trkpt>
      <trkpt lat="45.53508" lon="0.71625">
        <ele>271</ele>
        <time>2012-10-24T13:28:18Z</time>
      </trkpt>
      <trkpt lat="45.53494" lon="0.71634">
        <ele>275</ele>
        <time>2012-10-24T13:28:23Z</time>
      </trkpt>
      <trkpt lat="45.53488" lon="0.71636">
        <ele>275</ele>
        <time>2012-10-24T13:28:25Z</time>
      </trkpt>
      <trkpt lat="45.53477" lon="0.71639">
        <ele>275</ele>
        <time>2012-10-24T13:28:30Z</time>
      </trkpt>
      <trkpt lat="45.53467" lon="0.71642">
        <ele>276</ele>
        <time>2012-10-24T13:28:34Z</time>
      </trkpt>
      <trkpt lat="45.53461" lon="0.71643">
        <ele>276</ele>
        <time>2012-10-24T13:28:36Z</time>
      </trkpt>
      <trkpt lat="45.5345" lon="0.71641">
        <ele>276</ele>
        <time>2012-10-24T13:28:43Z</time>
      </trkpt>
      <trkpt lat="45.5344" lon="0.71645">
        <ele>277</ele>
        <time>2012-10-24T13:28:48Z</time>
      </trkpt>
      <trkpt lat="45.5343" lon="0.71648">
        <ele>277</ele>
        <time>2012-10-24T13:28:55Z</time>
      </trkpt>
      <trkpt lat="45.53424" lon="0.71648">
        <ele>278</ele>
        <time>2012-10-24T13:28:59Z</time>
      </trkpt>
      <trkpt lat="45.53414" lon="0.71644">
        <ele>280</ele>
        <time>2012-10-24T13:29:07Z</time>
      </trkpt>
      <trkpt lat="45.53412" lon="0.71632">
        <ele>280</ele>
        <time>2012-10-24T13:29:15Z</time>
      </trkpt>
      <trkpt lat="45.5341" lon="0.71614">
        <ele>280</ele>
        <time>2012-10-24T13:29:23Z</time>
      </trkpt>
      <trkpt lat="45.534" lon="0.71603">
        <ele>280</ele>
        <time>2012-10-24T13:29:31Z</time>
      </trkpt>
      <trkpt lat="45.53395" lon="0.71601">
        <ele>280</ele>
        <time>2012-10-24T13:29:34Z</time>
      </trkpt>
      <trkpt lat="45.53383" lon="0.71596">
        <ele>280</ele>
        <time>2012-10-24T13:29:42Z</time>
      </trkpt>
      <trkpt lat="45.53398" lon="0.71601">
        <ele>280</ele>
        <time>2012-10-24T13:29:53Z</time>
      </trkpt>
      <trkpt lat="45.53404" lon="0.71608">
        <ele>280</ele>
        <time>2012-10-24T13:29:57Z</time>
      </trkpt>
      <trkpt lat="45.53399" lon="0.71597">
        <ele>280</ele>
        <time>2012-10-24T13:30:07Z</time>
      </trkpt>
      <trkpt lat="45.53386" lon="0.71595">
        <ele>280</ele>
        <time>2012-10-24T13:30:13Z</time>
      </trkpt>
      <trkpt lat="45.53367" lon="0.71592">
        <ele>280</ele>
        <time>2012-10-24T13:30:19Z</time>
      </trkpt>
      <trkpt lat="45.53353" lon="0.71589">
        <ele>280</ele>
        <time>2012-10-24T13:30:23Z</time>
      </trkpt>
      <trkpt lat="45.53339" lon="0.71587">
        <ele>279</ele>
        <time>2012-10-24T13:30:27Z</time>
      </trkpt>
      <trkpt lat="45.53331" lon="0.71586">
        <ele>279</ele>
        <time>2012-10-24T13:30:29Z</time>
      </trkpt>
      <trkpt lat="45.53316" lon="0.71583">
        <ele>280</ele>
        <time>2012-10-24T13:30:33Z</time>
      </trkpt>
      <trkpt lat="45.53293" lon="0.71579">
        <ele>280</ele>
        <time>2012-10-24T13:30:39Z</time>
      </trkpt>
      <trkpt lat="45.53284" lon="0.71577">
        <ele>281</ele>
        <time>2012-10-24T13:30:42Z</time>
      </trkpt>
      <trkpt lat="45.53253" lon="0.71573">
        <ele>283</ele>
        <time>2012-10-24T13:30:51Z</time>
      </trkpt>
      <trkpt lat="45.53245" lon="0.71572">
        <ele>283</ele>
        <time>2012-10-24T13:30:53Z</time>
      </trkpt>
      <trkpt lat="45.53221" lon="0.71569">
        <ele>283</ele>
        <time>2012-10-24T13:30:59Z</time>
      </trkpt>
      <trkpt lat="45.53205" lon="0.71569">
        <ele>282</ele>
        <time>2012-10-24T13:31:03Z</time>
      </trkpt>
      <trkpt lat="45.53189" lon="0.71569">
        <ele>282</ele>
        <time>2012-10-24T13:31:07Z</time>
      </trkpt>
      <trkpt lat="45.53176" lon="0.7157">
        <ele>283</ele>
        <time>2012-10-24T13:31:10Z</time>
      </trkpt>
      <trkpt lat="45.53159" lon="0.71571">
        <ele>281</ele>
        <time>2012-10-24T13:31:14Z</time>
      </trkpt>
      <trkpt lat="45.53146" lon="0.71572">
        <ele>281</ele>
        <time>2012-10-24T13:31:17Z</time>
      </trkpt>
      <trkpt lat="45.53121" lon="0.71573">
        <ele>279</ele>
        <time>2012-10-24T13:31:22Z</time>
      </trkpt>
      <trkpt lat="45.53091" lon="0.71576">
        <ele>278</ele>
        <time>2012-10-24T13:31:27Z</time>
      </trkpt>
      <trkpt lat="45.53077" lon="0.71577">
        <ele>277</ele>
        <time>2012-10-24T13:31:29Z</time>
      </trkpt>
      <trkpt lat="45.53057" lon="0.71588">
        <ele>278</ele>
        <time>2012-10-24T13:31:32Z</time>
      </trkpt>
      <trkpt lat="45.53036" lon="0.71613">
        <ele>278</ele>
        <time>2012-10-24T13:31:36Z</time>
      </trkpt>
      <trkpt lat="45.53014" lon="0.71639">
        <ele>278</ele>
        <time>2012-10-24T13:31:40Z</time>
      </trkpt>
      <trkpt lat="45.52985" lon="0.71632">
        <ele>279</ele>
        <time>2012-10-24T13:31:44Z</time>
      </trkpt>
      <trkpt lat="45.52957" lon="0.71617">
        <ele>279</ele>
        <time>2012-10-24T13:31:48Z</time>
      </trkpt>
      <trkpt lat="45.52933" lon="0.71617">
        <ele>280</ele>
        <time>2012-10-24T13:31:53Z</time>
      </trkpt>
      <trkpt lat="45.52919" lon="0.71621">
        <ele>280</ele>
        <time>2012-10-24T13:31:58Z</time>
      </trkpt>
      <trkpt lat="45.52911" lon="0.71602">
        <ele>283</ele>
        <time>2012-10-24T13:32:02Z</time>
      </trkpt>
      <trkpt lat="45.52908" lon="0.71592">
        <ele>283</ele>
        <time>2012-10-24T13:32:04Z</time>
      </trkpt>
      <trkpt lat="45.52894" lon="0.71554">
        <ele>280</ele>
        <time>2012-10-24T13:32:11Z</time>
      </trkpt>
      <trkpt lat="45.5289" lon="0.71543">
        <ele>280</ele>
        <time>2012-10-24T13:32:13Z</time>
      </trkpt>
      <trkpt lat="45.52878" lon="0.71523">
        <ele>280</ele>
        <time>2012-10-24T13:32:17Z</time>
      </trkpt>
      <trkpt lat="45.52854" lon="0.71493">
        <ele>278</ele>
        <time>2012-10-24T13:32:22Z</time>
      </trkpt>
      <trkpt lat="45.52827" lon="0.71458">
        <ele>280</ele>
        <time>2012-10-24T13:32:27Z</time>
      </trkpt>
      <trkpt lat="45.5281" lon="0.71431">
        <ele>280</ele>
        <time>2012-10-24T13:32:31Z</time>
      </trkpt>
      <trkpt lat="45.52795" lon="0.71415">
        <ele>281</ele>
        <time>2012-10-24T13:32:35Z</time>
      </trkpt>
      <trkpt lat="45.52789" lon="0.7141">
        <ele>281</ele>
        <time>2012-10-24T13:32:37Z</time>
      </trkpt>
      <trkpt lat="45.52779" lon="0.714">
        <ele>282</ele>
        <time>2012-10-24T13:32:40Z</time>
      </trkpt>
      <trkpt lat="45.52762" lon="0.71384">
        <ele>282</ele>
        <time>2012-10-24T13:32:46Z</time>
      </trkpt>
      <trkpt lat="45.52748" lon="0.71369">
        <ele>286</ele>
        <time>2012-10-24T13:32:51Z</time>
      </trkpt>
      <trkpt lat="45.52725" lon="0.71345">
        <ele>286</ele>
        <time>2012-10-24T13:32:59Z</time>
      </trkpt>
      <trkpt lat="45.52717" lon="0.71336">
        <ele>286</ele>
        <time>2012-10-24T13:33:02Z</time>
      </trkpt>
      <trkpt lat="45.52706" lon="0.71324">
        <ele>287</ele>
        <time>2012-10-24T13:33:06Z</time>
      </trkpt>
      <trkpt lat="45.52692" lon="0.71311">
        <ele>288</ele>
        <time>2012-10-24T13:33:11Z</time>
      </trkpt>
      <trkpt lat="45.52685" lon="0.71303">
        <ele>288</ele>
        <time>2012-10-24T13:33:14Z</time>
      </trkpt>
      <trkpt lat="45.52674" lon="0.71294">
        <ele>288</ele>
        <time>2012-10-24T13:33:18Z</time>
      </trkpt>
      <trkpt lat="45.52663" lon="0.71285">
        <ele>291</ele>
        <time>2012-10-24T13:33:22Z</time>
      </trkpt>
      <trkpt lat="45.52649" lon="0.71275">
        <ele>291</ele>
        <time>2012-10-24T13:33:27Z</time>
      </trkpt>
      <trkpt lat="45.5264" lon="0.7127">
        <ele>291</ele>
        <time>2012-10-24T13:33:30Z</time>
      </trkpt>
      <trkpt lat="45.52634" lon="0.71267">
        <ele>291</ele>
        <time>2012-10-24T13:33:32Z</time>
      </trkpt>
      <trkpt lat="45.52616" lon="0.71255">
        <ele>292</ele>
        <time>2012-10-24T13:33:38Z</time>
      </trkpt>
      <trkpt lat="45.52603" lon="0.71247">
        <ele>294</ele>
        <time>2012-10-24T13:33:42Z</time>
      </trkpt>
      <trkpt lat="45.52588" lon="0.71237">
        <ele>294</ele>
        <time>2012-10-24T13:33:47Z</time>
      </trkpt>
      <trkpt lat="45.52565" lon="0.71221">
        <ele>297</ele>
        <time>2012-10-24T13:33:55Z</time>
      </trkpt>
      <trkpt lat="45.52552" lon="0.71214">
        <ele>298</ele>
        <time>2012-10-24T13:34:00Z</time>
      </trkpt>
      <trkpt lat="45.52535" lon="0.71203">
        <ele>298</ele>
        <time>2012-10-24T13:34:06Z</time>
      </trkpt>
      <trkpt lat="45.5252" lon="0.71194">
        <ele>299</ele>
        <time>2012-10-24T13:34:11Z</time>
      </trkpt>
      <trkpt lat="45.52514" lon="0.7119">
        <ele>299</ele>
        <time>2012-10-24T13:34:13Z</time>
      </trkpt>
      <trkpt lat="45.52506" lon="0.71184">
        <ele>300</ele>
        <time>2012-10-24T13:34:16Z</time>
      </trkpt>
      <trkpt lat="45.5249" lon="0.71175">
        <ele>301</ele>
        <time>2012-10-24T13:34:22Z</time>
      </trkpt>
      <trkpt lat="45.52479" lon="0.71169">
        <ele>301</ele>
        <time>2012-10-24T13:34:27Z</time>
      </trkpt>
      <trkpt lat="45.52467" lon="0.71163">
        <ele>300</ele>
        <time>2012-10-24T13:34:32Z</time>
      </trkpt>
      <trkpt lat="45.52454" lon="0.71157">
        <ele>299</ele>
        <time>2012-10-24T13:34:38Z</time>
      </trkpt>
      <trkpt lat="45.52439" lon="0.7115">
        <ele>299</ele>
        <time>2012-10-24T13:34:43Z</time>
      </trkpt>
      <trkpt lat="45.52429" lon="0.71145">
        <ele>299</ele>
        <time>2012-10-24T13:34:46Z</time>
      </trkpt>
      <trkpt lat="45.52417" lon="0.7114">
        <ele>299</ele>
        <time>2012-10-24T13:34:49Z</time>
      </trkpt>
      <trkpt lat="45.52393" lon="0.7113">
        <ele>295</ele>
        <time>2012-10-24T13:34:54Z</time>
      </trkpt>
      <trkpt lat="45.52365" lon="0.71119">
        <ele>294</ele>
        <time>2012-10-24T13:34:58Z</time>
      </trkpt>
      <trkpt lat="45.52349" lon="0.71112">
        <ele>293</ele>
        <time>2012-10-24T13:35:00Z</time>
      </trkpt>
      <trkpt lat="45.52299" lon="0.71086">
        <ele>289</ele>
        <time>2012-10-24T13:35:06Z</time>
      </trkpt>
      <trkpt lat="45.52265" lon="0.71067">
        <ele>286</ele>
        <time>2012-10-24T13:35:10Z</time>
      </trkpt>
      <trkpt lat="45.52232" lon="0.71048">
        <ele>285</ele>
        <time>2012-10-24T13:35:14Z</time>
      </trkpt>
      <trkpt lat="45.52209" lon="0.71035">
        <ele>285</ele>
        <time>2012-10-24T13:35:17Z</time>
      </trkpt>
      <trkpt lat="45.5219" lon="0.71022">
        <ele>285</ele>
        <time>2012-10-24T13:35:20Z</time>
      </trkpt>
      <trkpt lat="45.52151" lon="0.71013">
        <ele>284</ele>
        <time>2012-10-24T13:35:26Z</time>
      </trkpt>
      <trkpt lat="45.52126" lon="0.71023">
        <ele>285</ele>
        <time>2012-10-24T13:35:31Z</time>
      </trkpt>
      <trkpt lat="45.52088" lon="0.71034">
        <ele>284</ele>
        <time>2012-10-24T13:35:38Z</time>
      </trkpt>
      <trkpt lat="45.5206" lon="0.71028">
        <ele>286</ele>
        <time>2012-10-24T13:35:43Z</time>
      </trkpt>
      <trkpt lat="45.52029" lon="0.71005">
        <ele>288</ele>
        <time>2012-10-24T13:35:50Z</time>
      </trkpt>
      <trkpt lat="45.52018" lon="0.70985">
        <ele>287</ele>
        <time>2012-10-24T13:35:54Z</time>
      </trkpt>
      <trkpt lat="45.52006" lon="0.70959">
        <ele>286</ele>
        <time>2012-10-24T13:35:59Z</time>
      </trkpt>
      <trkpt lat="45.51992" lon="0.70913">
        <ele>288</ele>
        <time>2012-10-24T13:36:07Z</time>
      </trkpt>
      <trkpt lat="45.51985" lon="0.70906">
        <ele>289</ele>
        <time>2012-10-24T13:36:09Z</time>
      </trkpt>
      <trkpt lat="45.51966" lon="0.70897">
        <ele>289</ele>
        <time>2012-10-24T13:36:15Z</time>
      </trkpt>
      <trkpt lat="45.51959" lon="0.70895">
        <ele>290</ele>
        <time>2012-10-24T13:36:17Z</time>
      </trkpt>
      <trkpt lat="45.51936" lon="0.70892">
        <ele>291</ele>
        <time>2012-10-24T13:36:23Z</time>
      </trkpt>
      <trkpt lat="45.51923" lon="0.70892">
        <ele>291</ele>
        <time>2012-10-24T13:36:26Z</time>
      </trkpt>
      <trkpt lat="45.51907" lon="0.70894">
        <ele>293</ele>
        <time>2012-10-24T13:36:30Z</time>
      </trkpt>
      <trkpt lat="45.51896" lon="0.70894">
        <ele>294</ele>
        <time>2012-10-24T13:36:33Z</time>
      </trkpt>
      <trkpt lat="45.51873" lon="0.70893">
        <ele>294</ele>
        <time>2012-10-24T13:36:39Z</time>
      </trkpt>
      <trkpt lat="45.51866" lon="0.70891">
        <ele>294</ele>
        <time>2012-10-24T13:36:41Z</time>
      </trkpt>
      <trkpt lat="45.51855" lon="0.70889">
        <ele>295</ele>
        <time>2012-10-24T13:36:45Z</time>
      </trkpt>
      <trkpt lat="45.51848" lon="0.70886">
        <ele>295</ele>
        <time>2012-10-24T13:36:51Z</time>
      </trkpt>
      <trkpt lat="45.51846" lon="0.70894">
        <ele>295</ele>
        <time>2012-10-24T13:39:44Z</time>
      </trkpt>
      <trkpt lat="45.51845" lon="0.70913">
        <ele>296</ele>
        <time>2012-10-24T13:39:50Z</time>
      </trkpt>
      <trkpt lat="45.51843" lon="0.70928">
        <ele>296</ele>
        <time>2012-10-24T13:39:54Z</time>
      </trkpt>
      <trkpt lat="45.51841" lon="0.70947">
        <ele>296</ele>
        <time>2012-10-24T13:39:59Z</time>
      </trkpt>
      <trkpt lat="45.5184" lon="0.70959">
        <ele>296</ele>
        <time>2012-10-24T13:40:02Z</time>
      </trkpt>
      <trkpt lat="45.51839" lon="0.70967">
        <ele>296</ele>
        <time>2012-10-24T13:40:04Z</time>
      </trkpt>
      <trkpt lat="45.51835" lon="0.70988">
        <ele>297</ele>
        <time>2012-10-24T13:40:09Z</time>
      </trkpt>
      <trkpt lat="45.5183" lon="0.71009">
        <ele>299</ele>
        <time>2012-10-24T13:40:14Z</time>
      </trkpt>
      <trkpt lat="45.51826" lon="0.71025">
        <ele>299</ele>
        <time>2012-10-24T13:40:18Z</time>
      </trkpt>
      <trkpt lat="45.51823" lon="0.71033">
        <ele>300</ele>
        <time>2012-10-24T13:40:20Z</time>
      </trkpt>
      <trkpt lat="45.51818" lon="0.7105">
        <ele>300</ele>
        <time>2012-10-24T13:40:24Z</time>
      </trkpt>
      <trkpt lat="45.5181" lon="0.71076">
        <ele>300</ele>
        <time>2012-10-24T13:40:30Z</time>
      </trkpt>
      <trkpt lat="45.51807" lon="0.71093">
        <ele>301</ele>
        <time>2012-10-24T13:40:34Z</time>
      </trkpt>
      <trkpt lat="45.51805" lon="0.7111">
        <ele>302</ele>
        <time>2012-10-24T13:40:38Z</time>
      </trkpt>
      <trkpt lat="45.51802" lon="0.71118">
        <ele>302</ele>
        <time>2012-10-24T13:40:40Z</time>
      </trkpt>
      <trkpt lat="45.51783" lon="0.71124">
        <ele>302</ele>
        <time>2012-10-24T13:40:46Z</time>
      </trkpt>
      <trkpt lat="45.51773" lon="0.7113">
        <ele>303</ele>
        <time>2012-10-24T13:40:49Z</time>
      </trkpt>
      <trkpt lat="45.51758" lon="0.71149">
        <ele>304</ele>
        <time>2012-10-24T13:40:55Z</time>
      </trkpt>
      <trkpt lat="45.51747" lon="0.71165">
        <ele>305</ele>
        <time>2012-10-24T13:40:59Z</time>
      </trkpt>
      <trkpt lat="45.51738" lon="0.71177">
        <ele>305</ele>
        <time>2012-10-24T13:41:02Z</time>
      </trkpt>
      <trkpt lat="45.51732" lon="0.71185">
        <ele>305</ele>
        <time>2012-10-24T13:41:04Z</time>
      </trkpt>
      <trkpt lat="45.51718" lon="0.71205">
        <ele>305</ele>
        <time>2012-10-24T13:41:09Z</time>
      </trkpt>
      <trkpt lat="45.51705" lon="0.71227">
        <ele>305</ele>
        <time>2012-10-24T13:41:14Z</time>
      </trkpt>
      <trkpt lat="45.51689" lon="0.71251">
        <ele>306</ele>
        <time>2012-10-24T13:41:19Z</time>
      </trkpt>
      <trkpt lat="45.5168" lon="0.7126">
        <ele>306</ele>
        <time>2012-10-24T13:41:21Z</time>
      </trkpt>
      <trkpt lat="45.51666" lon="0.71276">
        <ele>304</ele>
        <time>2012-10-24T13:41:25Z</time>
      </trkpt>
      <trkpt lat="45.51645" lon="0.71266">
        <ele>303</ele>
        <time>2012-10-24T13:41:31Z</time>
      </trkpt>
      <trkpt lat="45.51625" lon="0.71246">
        <ele>302</ele>
        <time>2012-10-24T13:41:36Z</time>
      </trkpt>
      <trkpt lat="45.51608" lon="0.71226">
        <ele>302</ele>
        <time>2012-10-24T13:41:40Z</time>
      </trkpt>
      <trkpt lat="45.51572" lon="0.71186">
        <ele>298</ele>
        <time>2012-10-24T13:41:47Z</time>
      </trkpt>
      <trkpt lat="45.51556" lon="0.71168">
        <ele>298</ele>
        <time>2012-10-24T13:41:50Z</time>
      </trkpt>
      <trkpt lat="45.51538" lon="0.71146">
        <ele>295</ele>
        <time>2012-10-24T13:41:53Z</time>
      </trkpt>
      <trkpt lat="45.51511" lon="0.7112">
        <ele>293</ele>
        <time>2012-10-24T13:41:57Z</time>
      </trkpt>
      <trkpt lat="45.51464" lon="0.71081">
        <ele>290</ele>
        <time>2012-10-24T13:42:03Z</time>
      </trkpt>
      <trkpt lat="45.51428" lon="0.71057">
        <ele>289</ele>
        <time>2012-10-24T13:42:07Z</time>
      </trkpt>
      <trkpt lat="45.51419" lon="0.71051">
        <ele>289</ele>
        <time>2012-10-24T13:42:08Z</time>
      </trkpt>
      <trkpt lat="45.51372" lon="0.71017">
        <ele>289</ele>
        <time>2012-10-24T13:42:13Z</time>
      </trkpt>
      <trkpt lat="45.51345" lon="0.70999">
        <ele>289</ele>
        <time>2012-10-24T13:42:16Z</time>
      </trkpt>
      <trkpt lat="45.51284" lon="0.70961">
        <ele>285</ele>
        <time>2012-10-24T13:42:23Z</time>
      </trkpt>
      <trkpt lat="45.51251" lon="0.7095">
        <ele>284</ele>
        <time>2012-10-24T13:42:27Z</time>
      </trkpt>
      <trkpt lat="45.51217" lon="0.70946">
        <ele>283</ele>
        <time>2012-10-24T13:42:31Z</time>
      </trkpt>
      <trkpt lat="45.51185" lon="0.70942">
        <ele>282</ele>
        <time>2012-10-24T13:42:35Z</time>
      </trkpt>
      <trkpt lat="45.51177" lon="0.70941">
        <ele>282</ele>
        <time>2012-10-24T13:42:36Z</time>
      </trkpt>
      <trkpt lat="45.51134" lon="0.70932">
        <ele>279</ele>
        <time>2012-10-24T13:42:43Z</time>
      </trkpt>
      <trkpt lat="45.51128" lon="0.70928">
        <ele>279</ele>
        <time>2012-10-24T13:42:45Z</time>
      </trkpt>
      <trkpt lat="45.51124" lon="0.70917">
        <ele>279</ele>
        <time>2012-10-24T13:42:50Z</time>
      </trkpt>
      <trkpt lat="45.51136" lon="0.70902">
        <ele>276</ele>
        <time>2012-10-24T13:42:55Z</time>
      </trkpt>
      <trkpt lat="45.51143" lon="0.70887">
        <ele>276</ele>
        <time>2012-10-24T13:43:00Z</time>
      </trkpt>
      <trkpt lat="45.51147" lon="0.70858">
        <ele>275</ele>
        <time>2012-10-24T13:43:07Z</time>
      </trkpt>
      <trkpt lat="45.51152" lon="0.7084">
        <ele>274</ele>
        <time>2012-10-24T13:43:14Z</time>
      </trkpt>
      <trkpt lat="45.51155" lon="0.70833">
        <ele>272</ele>
        <time>2012-10-24T13:43:23Z</time>
      </trkpt>
      <trkpt lat="45.51161" lon="0.70827">
        <ele>272</ele>
        <time>2012-10-24T13:43:26Z</time>
      </trkpt>
      <trkpt lat="45.51165" lon="0.70821">
        <ele>272</ele>
        <time>2012-10-24T13:43:28Z</time>
      </trkpt>
      <trkpt lat="45.51176" lon="0.70807">
        <ele>273</ele>
        <time>2012-10-24T13:43:32Z</time>
      </trkpt>
      <trkpt lat="45.51192" lon="0.70787">
        <ele>273</ele>
        <time>2012-10-24T13:43:37Z</time>
      </trkpt>
      <trkpt lat="45.51206" lon="0.70769">
        <ele>273</ele>
        <time>2012-10-24T13:43:41Z</time>
      </trkpt>
      <trkpt lat="45.51221" lon="0.70749">
        <ele>272</ele>
        <time>2012-10-24T13:43:45Z</time>
      </trkpt>
      <trkpt lat="45.51233" lon="0.70735">
        <ele>273</ele>
        <time>2012-10-24T13:43:48Z</time>
      </trkpt>
      <trkpt lat="45.51255" lon="0.70707">
        <ele>276</ele>
        <time>2012-10-24T13:43:54Z</time>
      </trkpt>
      <trkpt lat="45.51271" lon="0.70687">
        <ele>276</ele>
        <time>2012-10-24T13:43:59Z</time>
      </trkpt>
      <trkpt lat="45.51281" lon="0.70668">
        <ele>276</ele>
        <time>2012-10-24T13:44:05Z</time>
      </trkpt>
      <trkpt lat="45.51271" lon="0.70654">
        <ele>274</ele>
        <time>2012-10-24T13:44:11Z</time>
      </trkpt>
      <trkpt lat="45.5125" lon="0.70634">
        <ele>274</ele>
        <time>2012-10-24T13:44:17Z</time>
      </trkpt>
      <trkpt lat="45.51234" lon="0.70617">
        <ele>270</ele>
        <time>2012-10-24T13:44:21Z</time>
      </trkpt>
      <trkpt lat="45.51214" lon="0.70601">
        <ele>269</ele>
        <time>2012-10-24T13:44:25Z</time>
      </trkpt>
      <trkpt lat="45.51197" lon="0.70589">
        <ele>268</ele>
        <time>2012-10-24T13:44:29Z</time>
      </trkpt>
      <trkpt lat="45.512" lon="0.70573">
        <ele>265</ele>
        <time>2012-10-24T13:44:33Z</time>
      </trkpt>
      <trkpt lat="45.5121" lon="0.7055">
        <ele>265</ele>
        <time>2012-10-24T13:44:37Z</time>
      </trkpt>
      <trkpt lat="45.51228" lon="0.70519">
        <ele>265</ele>
        <time>2012-10-24T13:44:42Z</time>
      </trkpt>
      <trkpt lat="45.51253" lon="0.70488">
        <ele>266</ele>
        <time>2012-10-24T13:44:47Z</time>
      </trkpt>
      <trkpt lat="45.51269" lon="0.70476">
        <ele>266</ele>
        <time>2012-10-24T13:44:50Z</time>
      </trkpt>
      <trkpt lat="45.51297" lon="0.70454">
        <ele>266</ele>
        <time>2012-10-24T13:44:55Z</time>
      </trkpt>
      <trkpt lat="45.51305" lon="0.7044">
        <ele>266</ele>
        <time>2012-10-24T13:44:57Z</time>
      </trkpt>
      <trkpt lat="45.51323" lon="0.70394">
        <ele>262</ele>
        <time>2012-10-24T13:45:03Z</time>
      </trkpt>
      <trkpt lat="45.51333" lon="0.70381">
        <ele>262</ele>
        <time>2012-10-24T13:45:06Z</time>
      </trkpt>
      <trkpt lat="45.51338" lon="0.70371">
        <ele>268</ele>
        <time>2012-10-24T13:45:08Z</time>
      </trkpt>
      <trkpt lat="45.51347" lon="0.70356">
        <ele>268</ele>
        <time>2012-10-24T13:45:12Z</time>
      </trkpt>
      <trkpt lat="45.51368" lon="0.70341">
        <ele>269</ele>
        <time>2012-10-24T13:45:18Z</time>
      </trkpt>
      <trkpt lat="45.51387" lon="0.70335">
        <ele>270</ele>
        <time>2012-10-24T13:45:23Z</time>
      </trkpt>
      <trkpt lat="45.51406" lon="0.70324">
        <ele>267</ele>
        <time>2012-10-24T13:45:29Z</time>
      </trkpt>
      <trkpt lat="45.51418" lon="0.70305">
        <ele>271</ele>
        <time>2012-10-24T13:45:34Z</time>
      </trkpt>
      <trkpt lat="45.5143" lon="0.70284">
        <ele>270</ele>
        <time>2012-10-24T13:45:39Z</time>
      </trkpt>
      <trkpt lat="45.51435" lon="0.70277">
        <ele>270</ele>
        <time>2012-10-24T13:45:41Z</time>
      </trkpt>
      <trkpt lat="45.51448" lon="0.70257">
        <ele>270</ele>
        <time>2012-10-24T13:45:46Z</time>
      </trkpt>
      <trkpt lat="45.51457" lon="0.70243">
        <ele>266</ele>
        <time>2012-10-24T13:45:50Z</time>
      </trkpt>
      <trkpt lat="45.5147" lon="0.70219">
        <ele>266</ele>
        <time>2012-10-24T13:45:55Z</time>
      </trkpt>
      <trkpt lat="45.51478" lon="0.70204">
        <ele>266</ele>
        <time>2012-10-24T13:45:59Z</time>
      </trkpt>
      <trkpt lat="45.51482" lon="0.70195">
        <ele>266</ele>
        <time>2012-10-24T13:46:03Z</time>
      </trkpt>
      <trkpt lat="45.51488" lon="0.70196">
        <ele>266</ele>
        <time>2012-10-24T13:46:17Z</time>
      </trkpt>
      <trkpt lat="45.51491" lon="0.70194">
        <ele>266</ele>
        <time>2012-10-24T13:46:24Z</time>
      </trkpt>
      <trkpt lat="45.51496" lon="0.70193">
        <ele>266</ele>
        <time>2012-10-24T13:46:39Z</time>
      </trkpt>
      <trkpt lat="45.515" lon="0.70195">
        <ele>267</ele>
        <time>2012-10-24T13:47:01Z</time>
      </trkpt>
      <trkpt lat="45.51504" lon="0.70195">
        <ele>273</ele>
        <time>2012-10-24T13:48:08Z</time>
      </trkpt>
      <trkpt lat="45.51508" lon="0.70197">
        <ele>273</ele>
        <time>2012-10-24T13:48:59Z</time>
      </trkpt>
      <trkpt lat="45.51513" lon="0.70195">
        <ele>273</ele>
        <time>2012-10-24T13:50:39Z</time>
      </trkpt>
      <trkpt lat="45.5151" lon="0.70199">
        <ele>273</ele>
        <time>2012-10-24T13:50:52Z</time>
      </trkpt>
      <trkpt lat="45.5151" lon="0.70193">
        <ele>273</ele>
        <time>2012-10-24T13:52:28Z</time>
      </trkpt>
      <trkpt lat="45.51506" lon="0.7019">
        <ele>272</ele>
        <time>2012-10-24T13:52:45Z</time>
      </trkpt>
      <trkpt lat="45.51503" lon="0.70192">
        <ele>272</ele>
        <time>2012-10-24T13:53:00Z</time>
      </trkpt>
      <trkpt lat="45.51496" lon="0.70191">
        <ele>266</ele>
        <time>2012-10-24T13:53:06Z</time>
      </trkpt>
      <trkpt lat="45.51494" lon="0.70188">
        <ele>266</ele>
        <time>2012-10-24T13:53:36Z</time>
      </trkpt>
      <trkpt lat="45.51498" lon="0.70179">
        <ele>266</ele>
        <time>2012-10-24T13:53:52Z</time>
      </trkpt>
      <trkpt lat="45.51504" lon="0.70171">
        <ele>269</ele>
        <time>2012-10-24T13:54:16Z</time>
      </trkpt>
      <trkpt lat="45.51509" lon="0.70165">
        <ele>268</ele>
        <time>2012-10-24T13:54:18Z</time>
      </trkpt>
      <trkpt lat="45.51516" lon="0.70153">
        <ele>269</ele>
        <time>2012-10-24T13:54:21Z</time>
      </trkpt>
      <trkpt lat="45.51527" lon="0.70136">
        <ele>270</ele>
        <time>2012-10-24T13:54:25Z</time>
      </trkpt>
      <trkpt lat="45.51536" lon="0.70114">
        <ele>271</ele>
        <time>2012-10-24T13:54:29Z</time>
      </trkpt>
      <trkpt lat="45.51542" lon="0.70067">
        <ele>272</ele>
        <time>2012-10-24T13:54:36Z</time>
      </trkpt>
      <trkpt lat="45.51543" lon="0.70053">
        <ele>273</ele>
        <time>2012-10-24T13:54:38Z</time>
      </trkpt>
      <trkpt lat="45.51545" lon="0.70029">
        <ele>274</ele>
        <time>2012-10-24T13:54:41Z</time>
      </trkpt>
      <trkpt lat="45.51535" lon="0.69983">
        <ele>277</ele>
        <time>2012-10-24T13:54:47Z</time>
      </trkpt>
      <trkpt lat="45.51527" lon="0.6996">
        <ele>278</ele>
        <time>2012-10-24T13:54:50Z</time>
      </trkpt>
      <trkpt lat="45.51513" lon="0.6993">
        <ele>278</ele>
        <time>2012-10-24T13:54:54Z</time>
      </trkpt>
      <trkpt lat="45.51484" lon="0.69901">
        <ele>277</ele>
        <time>2012-10-24T13:55:00Z</time>
      </trkpt>
      <trkpt lat="45.51455" lon="0.69899">
        <ele>275</ele>
        <time>2012-10-24T13:55:04Z</time>
      </trkpt>
      <trkpt lat="45.51426" lon="0.69899">
        <ele>273</ele>
        <time>2012-10-24T13:55:08Z</time>
      </trkpt>
      <trkpt lat="45.51396" lon="0.69899">
        <ele>269</ele>
        <time>2012-10-24T13:55:12Z</time>
      </trkpt>
      <trkpt lat="45.51368" lon="0.69899">
        <ele>268</ele>
        <time>2012-10-24T13:55:16Z</time>
      </trkpt>
      <trkpt lat="45.51348" lon="0.69892">
        <ele>267</ele>
        <time>2012-10-24T13:55:19Z</time>
      </trkpt>
      <trkpt lat="45.51323" lon="0.69878">
        <ele>263</ele>
        <time>2012-10-24T13:55:23Z</time>
      </trkpt>
      <trkpt lat="45.51301" lon="0.69866">
        <ele>263</ele>
        <time>2012-10-24T13:55:27Z</time>
      </trkpt>
      <trkpt lat="45.5129" lon="0.69859">
        <ele>263</ele>
        <time>2012-10-24T13:55:29Z</time>
      </trkpt>
      <trkpt lat="45.51265" lon="0.69833">
        <ele>263</ele>
        <time>2012-10-24T13:55:34Z</time>
      </trkpt>
      <trkpt lat="45.51247" lon="0.69811">
        <ele>262</ele>
        <time>2012-10-24T13:55:38Z</time>
      </trkpt>
      <trkpt lat="45.51228" lon="0.69788">
        <ele>261</ele>
        <time>2012-10-24T13:55:42Z</time>
      </trkpt>
      <trkpt lat="45.51212" lon="0.69766">
        <ele>261</ele>
        <time>2012-10-24T13:55:48Z</time>
      </trkpt>
      <trkpt lat="45.5121" lon="0.69761">
        <ele>261</ele>
        <time>2012-10-24T13:56:08Z</time>
      </trkpt>
      <trkpt lat="45.51214" lon="0.69759">
        <ele>261</ele>
        <time>2012-10-24T13:56:21Z</time>
      </trkpt>
      <trkpt lat="45.51206" lon="0.69752">
        <ele>260</ele>
        <time>2012-10-24T13:56:38Z</time>
      </trkpt>
      <trkpt lat="45.51198" lon="0.69746">
        <ele>260</ele>
        <time>2012-10-24T13:56:42Z</time>
      </trkpt>
      <trkpt lat="45.51178" lon="0.69736">
        <ele>259</ele>
        <time>2012-10-24T13:56:48Z</time>
      </trkpt>
      <trkpt lat="45.51168" lon="0.69726">
        <ele>259</ele>
        <time>2012-10-24T13:56:51Z</time>
      </trkpt>
      <trkpt lat="45.51159" lon="0.6972">
        <ele>257</ele>
        <time>2012-10-24T13:56:53Z</time>
      </trkpt>
      <trkpt lat="45.5113" lon="0.69697">
        <ele>256</ele>
        <time>2012-10-24T13:57:00Z</time>
      </trkpt>
      <trkpt lat="45.51109" lon="0.69682">
        <ele>255</ele>
        <time>2012-10-24T13:57:04Z</time>
      </trkpt>
      <trkpt lat="45.51103" lon="0.69679">
        <ele>255</ele>
        <time>2012-10-24T13:57:05Z</time>
      </trkpt>
      <trkpt lat="45.51064" lon="0.69649">
        <ele>252</ele>
        <time>2012-10-24T13:57:11Z</time>
      </trkpt>
      <trkpt lat="45.51035" lon="0.69626">
        <ele>251</ele>
        <time>2012-10-24T13:57:15Z</time>
      </trkpt>
      <trkpt lat="45.51023" lon="0.69611">
        <ele>251</ele>
        <time>2012-10-24T13:57:17Z</time>
      </trkpt>
      <trkpt lat="45.5099" lon="0.69557">
        <ele>247</ele>
        <time>2012-10-24T13:57:23Z</time>
      </trkpt>
      <trkpt lat="45.50966" lon="0.69511">
        <ele>245</ele>
        <time>2012-10-24T13:57:28Z</time>
      </trkpt>
      <trkpt lat="45.50952" lon="0.69487">
        <ele>243</ele>
        <time>2012-10-24T13:57:31Z</time>
      </trkpt>
      <trkpt lat="45.50939" lon="0.69466">
        <ele>243</ele>
        <time>2012-10-24T13:57:34Z</time>
      </trkpt>
      <trkpt lat="45.5091" lon="0.69429">
        <ele>245</ele>
        <time>2012-10-24T13:57:40Z</time>
      </trkpt>
      <trkpt lat="45.50894" lon="0.69412">
        <ele>246</ele>
        <time>2012-10-24T13:57:43Z</time>
      </trkpt>
      <trkpt lat="45.50878" lon="0.69399">
        <ele>246</ele>
        <time>2012-10-24T13:57:46Z</time>
      </trkpt>
      <trkpt lat="45.50846" lon="0.69371">
        <ele>245</ele>
        <time>2012-10-24T13:57:52Z</time>
      </trkpt>
      <trkpt lat="45.50841" lon="0.69366">
        <ele>245</ele>
        <time>2012-10-24T13:57:53Z</time>
      </trkpt>
      <trkpt lat="45.50811" lon="0.69345">
        <ele>242</ele>
        <time>2012-10-24T13:57:58Z</time>
      </trkpt>
      <trkpt lat="45.50781" lon="0.69321">
        <ele>240</ele>
        <time>2012-10-24T13:58:03Z</time>
      </trkpt>
      <trkpt lat="45.50749" lon="0.693">
        <ele>237</ele>
        <time>2012-10-24T13:58:08Z</time>
      </trkpt>
      <trkpt lat="45.50725" lon="0.69283">
        <ele>236</ele>
        <time>2012-10-24T13:58:12Z</time>
      </trkpt>
      <trkpt lat="45.50719" lon="0.69279">
        <ele>236</ele>
        <time>2012-10-24T13:58:13Z</time>
      </trkpt>
      <trkpt lat="45.50678" lon="0.69249">
        <ele>236</ele>
        <time>2012-10-24T13:58:20Z</time>
      </trkpt>
      <trkpt lat="45.50655" lon="0.69233">
        <ele>234</ele>
        <time>2012-10-24T13:58:24Z</time>
      </trkpt>
      <trkpt lat="45.50643" lon="0.69226">
        <ele>233</ele>
        <time>2012-10-24T13:58:26Z</time>
      </trkpt>
      <trkpt lat="45.50625" lon="0.69235">
        <ele>233</ele>
        <time>2012-10-24T13:58:32Z</time>
      </trkpt>
      <trkpt lat="45.50625" lon="0.69241">
        <ele>233</ele>
        <time>2012-10-24T13:58:44Z</time>
      </trkpt>
      <trkpt lat="45.50619" lon="0.69247">
        <ele>233</ele>
        <time>2012-10-24T13:58:52Z</time>
      </trkpt>
      <trkpt lat="45.50607" lon="0.69256">
        <ele>231</ele>
        <time>2012-10-24T13:58:59Z</time>
      </trkpt>
      <trkpt lat="45.50594" lon="0.6927">
        <ele>231</ele>
        <time>2012-10-24T13:59:04Z</time>
      </trkpt>
      <trkpt lat="45.50569" lon="0.69297">
        <ele>227</ele>
        <time>2012-10-24T13:59:11Z</time>
      </trkpt>
      <trkpt lat="45.50556" lon="0.69311">
        <ele>227</ele>
        <time>2012-10-24T13:59:15Z</time>
      </trkpt>
      <trkpt lat="45.50549" lon="0.69325">
        <ele>227</ele>
        <time>2012-10-24T13:59:24Z</time>
      </trkpt>
      <trkpt lat="45.50542" lon="0.6933">
        <ele>227</ele>
        <time>2012-10-24T13:59:27Z</time>
      </trkpt>
      <trkpt lat="45.50535" lon="0.69335">
        <ele>226</ele>
        <time>2012-10-24T13:59:32Z</time>
      </trkpt>
      <trkpt lat="45.50521" lon="0.69343">
        <ele>226</ele>
        <time>2012-10-24T13:59:39Z</time>
      </trkpt>
      <trkpt lat="45.5051" lon="0.69348">
        <ele>226</ele>
        <time>2012-10-24T13:59:44Z</time>
      </trkpt>
      <trkpt lat="45.50504" lon="0.69351">
        <ele>226</ele>
        <time>2012-10-24T13:59:46Z</time>
      </trkpt>
      <trkpt lat="45.50487" lon="0.6936">
        <ele>225</ele>
        <time>2012-10-24T13:59:50Z</time>
      </trkpt>
      <trkpt lat="45.50455" lon="0.69375">
        <ele>225</ele>
        <time>2012-10-24T13:59:56Z</time>
      </trkpt>
      <trkpt lat="45.50445" lon="0.69382">
        <ele>225</ele>
        <time>2012-10-24T13:59:58Z</time>
      </trkpt>
      <trkpt lat="45.5042" lon="0.69409">
        <ele>225</ele>
        <time>2012-10-24T14:00:03Z</time>
      </trkpt>
      <trkpt lat="45.50398" lon="0.69452">
        <ele>217</ele>
        <time>2012-10-24T14:00:08Z</time>
      </trkpt>
      <trkpt lat="45.50372" lon="0.69491">
        <ele>215</ele>
        <time>2012-10-24T14:00:12Z</time>
      </trkpt>
      <trkpt lat="45.50353" lon="0.69514">
        <ele>209</ele>
        <time>2012-10-24T14:00:15Z</time>
      </trkpt>
      <trkpt lat="45.50315" lon="0.69524">
        <ele>201</ele>
        <time>2012-10-24T14:00:20Z</time>
      </trkpt>
      <trkpt lat="45.50292" lon="0.69538">
        <ele>198</ele>
        <time>2012-10-24T14:00:23Z</time>
      </trkpt>
      <trkpt lat="45.50259" lon="0.69556">
        <ele>194</ele>
        <time>2012-10-24T14:00:27Z</time>
      </trkpt>
      <trkpt lat="45.50242" lon="0.69563">
        <ele>187</ele>
        <time>2012-10-24T14:00:29Z</time>
      </trkpt>
      <trkpt lat="45.50193" lon="0.69589">
        <ele>183</ele>
        <time>2012-10-24T14:00:35Z</time>
      </trkpt>
      <trkpt lat="45.50167" lon="0.69595">
        <ele>180</ele>
        <time>2012-10-24T14:00:39Z</time>
      </trkpt>
      <trkpt lat="45.50136" lon="0.696">
        <ele>178</ele>
        <time>2012-10-24T14:00:44Z</time>
      </trkpt>
      <trkpt lat="45.50113" lon="0.69613">
        <ele>176</ele>
        <time>2012-10-24T14:00:48Z</time>
      </trkpt>
      <trkpt lat="45.50103" lon="0.69612">
        <ele>176</ele>
        <time>2012-10-24T14:00:50Z</time>
      </trkpt>
      <trkpt lat="45.501" lon="0.69607">
        <ele>175</ele>
        <time>2012-10-24T14:00:59Z</time>
      </trkpt>
      <trkpt lat="45.50108" lon="0.69599">
        <ele>176</ele>
        <time>2012-10-24T14:01:05Z</time>
      </trkpt>
      <trkpt lat="45.50102" lon="0.69594">
        <ele>175</ele>
        <time>2012-10-24T14:01:20Z</time>
      </trkpt>
      <trkpt lat="45.50096" lon="0.69593">
        <ele>174</ele>
        <time>2012-10-24T14:01:31Z</time>
      </trkpt>
      <trkpt lat="45.50092" lon="0.69595">
        <ele>174</ele>
        <time>2012-10-24T14:01:48Z</time>
      </trkpt>
      <trkpt lat="45.50088" lon="0.69594">
        <ele>174</ele>
        <time>2012-10-24T14:02:04Z</time>
      </trkpt>
      <trkpt lat="45.5009" lon="0.6959">
        <ele>173</ele>
        <time>2012-10-24T14:02:19Z</time>
      </trkpt>
      <trkpt lat="45.50094" lon="0.6959">
        <ele>174</ele>
        <time>2012-10-24T14:02:29Z</time>
      </trkpt>
      <trkpt lat="45.50092" lon="0.69586">
        <ele>173</ele>
        <time>2012-10-24T14:02:40Z</time>
      </trkpt>
      <trkpt lat="45.50099" lon="0.69584">
        <ele>174</ele>
        <time>2012-10-24T14:03:03Z</time>
      </trkpt>
      <trkpt lat="45.50103" lon="0.69583">
        <ele>175</ele>
        <time>2012-10-24T14:03:11Z</time>
      </trkpt>
      <trkpt lat="45.50095" lon="0.69574">
        <ele>174</ele>
        <time>2012-10-24T14:03:17Z</time>
      </trkpt>
      <trkpt lat="45.50084" lon="0.69559">
        <ele>174</ele>
        <time>2012-10-24T14:03:22Z</time>
      </trkpt>
      <trkpt lat="45.50066" lon="0.69549">
        <ele>172</ele>
        <time>2012-10-24T14:03:28Z</time>
      </trkpt>
      <trkpt lat="45.50049" lon="0.69544">
        <ele>172</ele>
        <time>2012-10-24T14:03:33Z</time>
      </trkpt>
      <trkpt lat="45.50032" lon="0.69536">
        <ele>172</ele>
        <time>2012-10-24T14:03:38Z</time>
      </trkpt>
      <trkpt lat="45.50023" lon="0.69535">
        <ele>172</ele>
        <time>2012-10-24T14:03:41Z</time>
      </trkpt>
      <trkpt lat="45.50003" lon="0.6953">
        <ele>173</ele>
        <time>2012-10-24T14:03:48Z</time>
      </trkpt>
      <trkpt lat="45.49987" lon="0.69515">
        <ele>175</ele>
        <time>2012-10-24T14:03:55Z</time>
      </trkpt>
      <trkpt lat="45.49978" lon="0.69513">
        <ele>175</ele>
        <time>2012-10-24T14:03:59Z</time>
      </trkpt>
      <trkpt lat="45.49968" lon="0.69505">
        <ele>175</ele>
        <time>2012-10-24T14:04:04Z</time>
      </trkpt>
      <trkpt lat="45.49963" lon="0.69498">
        <ele>177</ele>
        <time>2012-10-24T14:04:06Z</time>
      </trkpt>
      <trkpt lat="45.49948" lon="0.69483">
        <ele>178</ele>
        <time>2012-10-24T14:04:12Z</time>
      </trkpt>
      <trkpt lat="45.49932" lon="0.69472">
        <ele>178</ele>
        <time>2012-10-24T14:04:19Z</time>
      </trkpt>
      <trkpt lat="45.49923" lon="0.69473">
        <ele>178</ele>
        <time>2012-10-24T14:04:22Z</time>
      </trkpt>
      <trkpt lat="45.49914" lon="0.69475">
        <ele>177</ele>
        <time>2012-10-24T14:04:26Z</time>
      </trkpt>
      <trkpt lat="45.49907" lon="0.69474">
        <ele>177</ele>
        <time>2012-10-24T14:04:29Z</time>
      </trkpt>
      <trkpt lat="45.49887" lon="0.69467">
        <ele>178</ele>
        <time>2012-10-24T14:04:36Z</time>
      </trkpt>
      <trkpt lat="45.4988" lon="0.69466">
        <ele>178</ele>
        <time>2012-10-24T14:04:38Z</time>
      </trkpt>
      <trkpt lat="45.49863" lon="0.69472">
        <ele>178</ele>
        <time>2012-10-24T14:04:44Z</time>
      </trkpt>
      <trkpt lat="45.49856" lon="0.6948">
        <ele>177</ele>
        <time>2012-10-24T14:04:47Z</time>
      </trkpt>
      <trkpt lat="45.49851" lon="0.69486">
        <ele>177</ele>
        <time>2012-10-24T14:04:49Z</time>
      </trkpt>
      <trkpt lat="45.49829" lon="0.69501">
        <ele>178</ele>
        <time>2012-10-24T14:04:56Z</time>
      </trkpt>
      <trkpt lat="45.4982" lon="0.695">
        <ele>178</ele>
        <time>2012-10-24T14:05:00Z</time>
      </trkpt>
      <trkpt lat="45.49809" lon="0.69498">
        <ele>179</ele>
        <time>2012-10-24T14:05:04Z</time>
      </trkpt>
      <trkpt lat="45.49802" lon="0.69495">
        <ele>179</ele>
        <time>2012-10-24T14:05:08Z</time>
      </trkpt>
      <trkpt lat="45.49794" lon="0.69493">
        <ele>179</ele>
        <time>2012-10-24T14:05:11Z</time>
      </trkpt>
      <trkpt lat="45.49788" lon="0.6949">
        <ele>179</ele>
        <time>2012-10-24T14:05:13Z</time>
      </trkpt>
      <trkpt lat="45.49775" lon="0.69485">
        <ele>180</ele>
        <time>2012-10-24T14:05:17Z</time>
      </trkpt>
      <trkpt lat="45.49765" lon="0.69482">
        <ele>180</ele>
        <time>2012-10-24T14:05:21Z</time>
      </trkpt>
      <trkpt lat="45.49761" lon="0.69471">
        <ele>180</ele>
        <time>2012-10-24T14:05:27Z</time>
      </trkpt>
      <trkpt lat="45.49753" lon="0.69465">
        <ele>180</ele>
        <time>2012-10-24T14:05:35Z</time>
      </trkpt>
      <trkpt lat="45.4975" lon="0.69461">
        <ele>180</ele>
        <time>2012-10-24T14:07:04Z</time>
      </trkpt>
      <trkpt lat="45.49751" lon="0.69447">
        <ele>180</ele>
        <time>2012-10-24T14:07:08Z</time>
      </trkpt>
      <trkpt lat="45.49754" lon="0.69412">
        <ele>181</ele>
        <time>2012-10-24T14:07:14Z</time>
      </trkpt>
      <trkpt lat="45.49754" lon="0.69384">
        <ele>180</ele>
        <time>2012-10-24T14:07:18Z</time>
      </trkpt>
      <trkpt lat="45.49756" lon="0.69363">
        <ele>180</ele>
        <time>2012-10-24T14:07:21Z</time>
      </trkpt>
      <trkpt lat="45.49759" lon="0.69328">
        <ele>180</ele>
        <time>2012-10-24T14:07:26Z</time>
      </trkpt>
      <trkpt lat="45.49765" lon="0.6929">
        <ele>182</ele>
        <time>2012-10-24T14:07:31Z</time>
      </trkpt>
      <trkpt lat="45.49769" lon="0.69268">
        <ele>182</ele>
        <time>2012-10-24T14:07:34Z</time>
      </trkpt>
      <trkpt lat="45.49773" lon="0.69248">
        <ele>185</ele>
        <time>2012-10-24T14:07:37Z</time>
      </trkpt>
      <trkpt lat="45.49786" lon="0.69218">
        <ele>187</ele>
        <time>2012-10-24T14:07:43Z</time>
      </trkpt>
      <trkpt lat="45.49803" lon="0.69212">
        <ele>189</ele>
        <time>2012-10-24T14:07:48Z</time>
      </trkpt>
      <trkpt lat="45.49817" lon="0.69214">
        <ele>189</ele>
        <time>2012-10-24T14:07:53Z</time>
      </trkpt>
      <trkpt lat="45.49831" lon="0.69218">
        <ele>190</ele>
        <time>2012-10-24T14:07:59Z</time>
      </trkpt>
      <trkpt lat="45.49844" lon="0.6922">
        <ele>193</ele>
        <time>2012-10-24T14:08:03Z</time>
      </trkpt>
      <trkpt lat="45.49851" lon="0.69222">
        <ele>193</ele>
        <time>2012-10-24T14:08:05Z</time>
      </trkpt>
      <trkpt lat="45.49868" lon="0.69225">
        <ele>194</ele>
        <time>2012-10-24T14:08:12Z</time>
      </trkpt>
      <trkpt lat="45.49879" lon="0.69226">
        <ele>194</ele>
        <time>2012-10-24T14:08:16Z</time>
      </trkpt>
      <trkpt lat="45.49892" lon="0.69217">
        <ele>194</ele>
        <time>2012-10-24T14:08:21Z</time>
      </trkpt>
      <trkpt lat="45.499" lon="0.692">
        <ele>195</ele>
        <time>2012-10-24T14:08:27Z</time>
      </trkpt>
      <trkpt lat="45.49905" lon="0.69187">
        <ele>195</ele>
        <time>2012-10-24T14:08:32Z</time>
      </trkpt>
      <trkpt lat="45.49907" lon="0.69176">
        <ele>196</ele>
        <time>2012-10-24T14:08:35Z</time>
      </trkpt>
      <trkpt lat="45.49908" lon="0.69147">
        <ele>198</ele>
        <time>2012-10-24T14:08:43Z</time>
      </trkpt>
      <trkpt lat="45.49899" lon="0.69129">
        <ele>198</ele>
        <time>2012-10-24T14:08:48Z</time>
      </trkpt>
      <trkpt lat="45.49892" lon="0.69118">
        <ele>199</ele>
        <time>2012-10-24T14:08:51Z</time>
      </trkpt>
      <trkpt lat="45.49888" lon="0.69109">
        <ele>199</ele>
        <time>2012-10-24T14:08:53Z</time>
      </trkpt>
      <trkpt lat="45.49875" lon="0.69084">
        <ele>199</ele>
        <time>2012-10-24T14:08:59Z</time>
      </trkpt>
      <trkpt lat="45.4987" lon="0.69076">
        <ele>201</ele>
        <time>2012-10-24T14:09:01Z</time>
      </trkpt>
      <trkpt lat="45.49857" lon="0.69056">
        <ele>201</ele>
        <time>2012-10-24T14:09:06Z</time>
      </trkpt>
      <trkpt lat="45.49847" lon="0.69037">
        <ele>201</ele>
        <time>2012-10-24T14:09:10Z</time>
      </trkpt>
      <trkpt lat="45.49837" lon="0.69019">
        <ele>202</ele>
        <time>2012-10-24T14:09:14Z</time>
      </trkpt>
      <trkpt lat="45.49827" lon="0.68997">
        <ele>203</ele>
        <time>2012-10-24T14:09:18Z</time>
      </trkpt>
      <trkpt lat="45.49817" lon="0.68974">
        <ele>202</ele>
        <time>2012-10-24T14:09:22Z</time>
      </trkpt>
      <trkpt lat="45.4981" lon="0.68961">
        <ele>202</ele>
        <time>2012-10-24T14:09:25Z</time>
      </trkpt>
      <trkpt lat="45.498" lon="0.68942">
        <ele>202</ele>
        <time>2012-10-24T14:09:29Z</time>
      </trkpt>
      <trkpt lat="45.49785" lon="0.68907">
        <ele>202</ele>
        <time>2012-10-24T14:09:35Z</time>
      </trkpt>
      <trkpt lat="45.49771" lon="0.68877">
        <ele>202</ele>
        <time>2012-10-24T14:09:40Z</time>
      </trkpt>
      <trkpt lat="45.49753" lon="0.68847">
        <ele>202</ele>
        <time>2012-10-24T14:09:46Z</time>
      </trkpt>
      <trkpt lat="45.49736" lon="0.6883">
        <ele>202</ele>
        <time>2012-10-24T14:09:51Z</time>
      </trkpt>
      <trkpt lat="45.49719" lon="0.68806">
        <ele>203</ele>
        <time>2012-10-24T14:09:56Z</time>
      </trkpt>
      <trkpt lat="45.49713" lon="0.68798">
        <ele>203</ele>
        <time>2012-10-24T14:09:58Z</time>
      </trkpt>
      <trkpt lat="45.49698" lon="0.68772">
        <ele>204</ele>
        <time>2012-10-24T14:10:04Z</time>
      </trkpt>
      <trkpt lat="45.49692" lon="0.68756">
        <ele>204</ele>
        <time>2012-10-24T14:10:06Z</time>
      </trkpt>
      <trkpt lat="45.49686" lon="0.68741">
        <ele>206</ele>
        <time>2012-10-24T14:10:09Z</time>
      </trkpt>
      <trkpt lat="45.49679" lon="0.68726">
        <ele>207</ele>
        <time>2012-10-24T14:10:12Z</time>
      </trkpt>
      <trkpt lat="45.49671" lon="0.68704">
        <ele>207</ele>
        <time>2012-10-24T14:10:16Z</time>
      </trkpt>
      <trkpt lat="45.49653" lon="0.68667">
        <ele>210</ele>
        <time>2012-10-24T14:10:23Z</time>
      </trkpt>
      <trkpt lat="45.49643" lon="0.6865">
        <ele>211</ele>
        <time>2012-10-24T14:10:27Z</time>
      </trkpt>
      <trkpt lat="45.49635" lon="0.68637">
        <ele>212</ele>
        <time>2012-10-24T14:10:30Z</time>
      </trkpt>
      <trkpt lat="45.49629" lon="0.68631">
        <ele>212</ele>
        <time>2012-10-24T14:10:32Z</time>
      </trkpt>
      <trkpt lat="45.49614" lon="0.68612">
        <ele>212</ele>
        <time>2012-10-24T14:10:38Z</time>
      </trkpt>
      <trkpt lat="45.49605" lon="0.68605">
        <ele>212</ele>
        <time>2012-10-24T14:10:41Z</time>
      </trkpt>
      <trkpt lat="45.4959" lon="0.6859">
        <ele>213</ele>
        <time>2012-10-24T14:10:46Z</time>
      </trkpt>
      <trkpt lat="45.49568" lon="0.68573">
        <ele>215</ele>
        <time>2012-10-24T14:10:51Z</time>
      </trkpt>
      <trkpt lat="45.49563" lon="0.68568">
        <ele>216</ele>
        <time>2012-10-24T14:10:52Z</time>
      </trkpt>
      <trkpt lat="45.49534" lon="0.6854">
        <ele>217</ele>
        <time>2012-10-24T14:10:58Z</time>
      </trkpt>
      <trkpt lat="45.49521" lon="0.68515">
        <ele>219</ele>
        <time>2012-10-24T14:11:02Z</time>
      </trkpt>
      <trkpt lat="45.49515" lon="0.68487">
        <ele>221</ele>
        <time>2012-10-24T14:11:06Z</time>
      </trkpt>
      <trkpt lat="45.4951" lon="0.68457">
        <ele>220</ele>
        <time>2012-10-24T14:11:10Z</time>
      </trkpt>
      <trkpt lat="45.49506" lon="0.68433">
        <ele>222</ele>
        <time>2012-10-24T14:11:14Z</time>
      </trkpt>
      <trkpt lat="45.49501" lon="0.68406">
        <ele>224</ele>
        <time>2012-10-24T14:11:18Z</time>
      </trkpt>
      <trkpt lat="45.49497" lon="0.68385">
        <ele>229</ele>
        <time>2012-10-24T14:11:22Z</time>
      </trkpt>
      <trkpt lat="45.49493" lon="0.68363">
        <ele>230</ele>
        <time>2012-10-24T14:11:27Z</time>
      </trkpt>
      <trkpt lat="45.49487" lon="0.68344">
        <ele>229</ele>
        <time>2012-10-24T14:11:32Z</time>
      </trkpt>
      <trkpt lat="45.49477" lon="0.68322">
        <ele>230</ele>
        <time>2012-10-24T14:11:39Z</time>
      </trkpt>
      <trkpt lat="45.49463" lon="0.68304">
        <ele>231</ele>
        <time>2012-10-24T14:11:47Z</time>
      </trkpt>
      <trkpt lat="45.49456" lon="0.68294">
        <ele>231</ele>
        <time>2012-10-24T14:11:51Z</time>
      </trkpt>
      <trkpt lat="45.49449" lon="0.68281">
        <ele>232</ele>
        <time>2012-10-24T14:11:55Z</time>
      </trkpt>
      <trkpt lat="45.49444" lon="0.68274">
        <ele>232</ele>
        <time>2012-10-24T14:11:57Z</time>
      </trkpt>
      <trkpt lat="45.49433" lon="0.68255">
        <ele>232</ele>
        <time>2012-10-24T14:12:02Z</time>
      </trkpt>
      <trkpt lat="45.49427" lon="0.68245">
        <ele>232</ele>
        <time>2012-10-24T14:12:05Z</time>
      </trkpt>
      <trkpt lat="45.49416" lon="0.68227">
        <ele>234</ele>
        <time>2012-10-24T14:12:10Z</time>
      </trkpt>
      <trkpt lat="45.4941" lon="0.68215">
        <ele>234</ele>
        <time>2012-10-24T14:12:13Z</time>
      </trkpt>
      <trkpt lat="45.49399" lon="0.68194">
        <ele>234</ele>
        <time>2012-10-24T14:12:19Z</time>
      </trkpt>
      <trkpt lat="45.49397" lon="0.68186">
        <ele>234</ele>
        <time>2012-10-24T14:12:21Z</time>
      </trkpt>
      <trkpt lat="45.49394" lon="0.68176">
        <ele>234</ele>
        <time>2012-10-24T14:12:24Z</time>
      </trkpt>
      <trkpt lat="45.49392" lon="0.68157">
        <ele>235</ele>
        <time>2012-10-24T14:12:31Z</time>
      </trkpt>
      <trkpt lat="45.49392" lon="0.68148">
        <ele>235</ele>
        <time>2012-10-24T14:12:33Z</time>
      </trkpt>
      <trkpt lat="45.49392" lon="0.6813">
        <ele>235</ele>
        <time>2012-10-24T14:12:38Z</time>
      </trkpt>
      <trkpt lat="45.4939" lon="0.68118">
        <ele>235</ele>
        <time>2012-10-24T14:12:42Z</time>
      </trkpt>
      <trkpt lat="45.49388" lon="0.6811">
        <ele>235</ele>
        <time>2012-10-24T14:12:44Z</time>
      </trkpt>
      <trkpt lat="45.49381" lon="0.68095">
        <ele>235</ele>
        <time>2012-10-24T14:12:48Z</time>
      </trkpt>
      <trkpt lat="45.4937" lon="0.68076">
        <ele>234</ele>
        <time>2012-10-24T14:12:53Z</time>
      </trkpt>
      <trkpt lat="45.49358" lon="0.68042">
        <ele>233</ele>
        <time>2012-10-24T14:12:59Z</time>
      </trkpt>
      <trkpt lat="45.49355" lon="0.6803">
        <ele>233</ele>
        <time>2012-10-24T14:13:01Z</time>
      </trkpt>
      <trkpt lat="45.49349" lon="0.68008">
        <ele>232</ele>
        <time>2012-10-24T14:13:04Z</time>
      </trkpt>
      <trkpt lat="45.49349" lon="0.67948">
        <ele>229</ele>
        <time>2012-10-24T14:13:10Z</time>
      </trkpt>
      <trkpt lat="45.49351" lon="0.67929">
        <ele>228</ele>
        <time>2012-10-24T14:13:12Z</time>
      </trkpt>
      <trkpt lat="45.49361" lon="0.67877">
        <ele>225</ele>
        <time>2012-10-24T14:13:19Z</time>
      </trkpt>
      <trkpt lat="45.49361" lon="0.67866">
        <ele>225</ele>
        <time>2012-10-24T14:13:26Z</time>
      </trkpt>
      <trkpt lat="45.4936" lon="0.6786">
        <ele>224</ele>
        <time>2012-10-24T14:13:34Z</time>
      </trkpt>
      <trkpt lat="45.49358" lon="0.67855">
        <ele>224</ele>
        <time>2012-10-24T14:14:01Z</time>
      </trkpt>
      <trkpt lat="45.49364" lon="0.67848">
        <ele>224</ele>
        <time>2012-10-24T14:15:47Z</time>
      </trkpt>
      <trkpt lat="45.4937" lon="0.67841">
        <ele>224</ele>
        <time>2012-10-24T14:15:50Z</time>
      </trkpt>
      <trkpt lat="45.49376" lon="0.67831">
        <ele>222</ele>
        <time>2012-10-24T14:15:53Z</time>
      </trkpt>
      <trkpt lat="45.49386" lon="0.67812">
        <ele>222</ele>
        <time>2012-10-24T14:15:58Z</time>
      </trkpt>
      <trkpt lat="45.49392" lon="0.67792">
        <ele>221</ele>
        <time>2012-10-24T14:16:02Z</time>
      </trkpt>
      <trkpt lat="45.49398" lon="0.6777">
        <ele>221</ele>
        <time>2012-10-24T14:16:06Z</time>
      </trkpt>
      <trkpt lat="45.494" lon="0.67759">
        <ele>221</ele>
        <time>2012-10-24T14:16:08Z</time>
      </trkpt>
      <trkpt lat="45.49404" lon="0.67724">
        <ele>219</ele>
        <time>2012-10-24T14:16:14Z</time>
      </trkpt>
      <trkpt lat="45.49405" lon="0.67713">
        <ele>219</ele>
        <time>2012-10-24T14:16:16Z</time>
      </trkpt>
      <trkpt lat="45.49403" lon="0.67672">
        <ele>220</ele>
        <time>2012-10-24T14:16:23Z</time>
      </trkpt>
      <trkpt lat="45.49399" lon="0.67643">
        <ele>220</ele>
        <time>2012-10-24T14:16:28Z</time>
      </trkpt>
      <trkpt lat="45.49394" lon="0.67601">
        <ele>220</ele>
        <time>2012-10-24T14:16:35Z</time>
      </trkpt>
      <trkpt lat="45.49393" lon="0.67588">
        <ele>221</ele>
        <time>2012-10-24T14:16:37Z</time>
      </trkpt>
      <trkpt lat="45.49391" lon="0.67569">
        <ele>221</ele>
        <time>2012-10-24T14:16:40Z</time>
      </trkpt>
      <trkpt lat="45.49392" lon="0.6753">
        <ele>221</ele>
        <time>2012-10-24T14:16:46Z</time>
      </trkpt>
      <trkpt lat="45.49398" lon="0.67497">
        <ele>223</ele>
        <time>2012-10-24T14:16:51Z</time>
      </trkpt>
      <trkpt lat="45.49404" lon="0.67478">
        <ele>223</ele>
        <time>2012-10-24T14:16:54Z</time>
      </trkpt>
      <trkpt lat="45.49408" lon="0.67466">
        <ele>223</ele>
        <time>2012-10-24T14:16:56Z</time>
      </trkpt>
      <trkpt lat="45.49416" lon="0.67441">
        <ele>224</ele>
        <time>2012-10-24T14:17:00Z</time>
      </trkpt>
      <trkpt lat="45.49427" lon="0.67403">
        <ele>226</ele>
        <time>2012-10-24T14:17:06Z</time>
      </trkpt>
      <trkpt lat="45.49431" lon="0.67369">
        <ele>227</ele>
        <time>2012-10-24T14:17:11Z</time>
      </trkpt>
      <trkpt lat="45.49432" lon="0.67355">
        <ele>227</ele>
        <time>2012-10-24T14:17:13Z</time>
      </trkpt>
      <trkpt lat="45.49433" lon="0.67326">
        <ele>229</ele>
        <time>2012-10-24T14:17:17Z</time>
      </trkpt>
      <trkpt lat="45.49434" lon="0.67304">
        <ele>229</ele>
        <time>2012-10-24T14:17:20Z</time>
      </trkpt>
      <trkpt lat="45.49447" lon="0.67263">
        <ele>229</ele>
        <time>2012-10-24T14:17:26Z</time>
      </trkpt>
      <trkpt lat="45.49459" lon="0.67248">
        <ele>230</ele>
        <time>2012-10-24T14:17:29Z</time>
      </trkpt>
      <trkpt lat="45.49474" lon="0.67237">
        <ele>230</ele>
        <time>2012-10-24T14:17:32Z</time>
      </trkpt>
      <trkpt lat="45.49501" lon="0.67212">
        <ele>229</ele>
        <time>2012-10-24T14:17:38Z</time>
      </trkpt>
      <trkpt lat="45.49518" lon="0.67194">
        <ele>229</ele>
        <time>2012-10-24T14:17:42Z</time>
      </trkpt>
      <trkpt lat="45.49528" lon="0.67177">
        <ele>230</ele>
        <time>2012-10-24T14:17:45Z</time>
      </trkpt>
      <trkpt lat="45.49541" lon="0.67136">
        <ele>230</ele>
        <time>2012-10-24T14:17:51Z</time>
      </trkpt>
      <trkpt lat="45.49551" lon="0.67099">
        <ele>229</ele>
        <time>2012-10-24T14:17:56Z</time>
      </trkpt>
      <trkpt lat="45.49574" lon="0.67057">
        <ele>229</ele>
        <time>2012-10-24T14:18:03Z</time>
      </trkpt>
      <trkpt lat="45.49587" lon="0.67041">
        <ele>228</ele>
        <time>2012-10-24T14:18:06Z</time>
      </trkpt>
      <trkpt lat="45.496" lon="0.67027">
        <ele>228</ele>
        <time>2012-10-24T14:18:09Z</time>
      </trkpt>
      <trkpt lat="45.49624" lon="0.66999">
        <ele>229</ele>
        <time>2012-10-24T14:18:15Z</time>
      </trkpt>
      <trkpt lat="45.49657" lon="0.66961">
        <ele>229</ele>
        <time>2012-10-24T14:18:23Z</time>
      </trkpt>
      <trkpt lat="45.49681" lon="0.66932">
        <ele>229</ele>
        <time>2012-10-24T14:18:29Z</time>
      </trkpt>
      <trkpt lat="45.497" lon="0.66909">
        <ele>229</ele>
        <time>2012-10-24T14:18:34Z</time>
      </trkpt>
      <trkpt lat="45.49721" lon="0.66883">
        <ele>230</ele>
        <time>2012-10-24T14:18:39Z</time>
      </trkpt>
      <trkpt lat="45.49734" lon="0.66861">
        <ele>231</ele>
        <time>2012-10-24T14:18:43Z</time>
      </trkpt>
      <trkpt lat="45.49745" lon="0.66832">
        <ele>232</ele>
        <time>2012-10-24T14:18:48Z</time>
      </trkpt>
      <trkpt lat="45.49762" lon="0.66791">
        <ele>234</ele>
        <time>2012-10-24T14:18:55Z</time>
      </trkpt>
      <trkpt lat="45.49767" lon="0.66779">
        <ele>234</ele>
        <time>2012-10-24T14:18:57Z</time>
      </trkpt>
      <trkpt lat="45.49779" lon="0.66751">
        <ele>234</ele>
        <time>2012-10-24T14:19:01Z</time>
      </trkpt>
      <trkpt lat="45.49794" lon="0.66717">
        <ele>235</ele>
        <time>2012-10-24T14:19:07Z</time>
      </trkpt>
      <trkpt lat="45.49811" lon="0.66685">
        <ele>236</ele>
        <time>2012-10-24T14:19:14Z</time>
      </trkpt>
      <trkpt lat="45.49817" lon="0.66675">
        <ele>236</ele>
        <time>2012-10-24T14:19:16Z</time>
      </trkpt>
      <trkpt lat="45.49836" lon="0.66653">
        <ele>237</ele>
        <time>2012-10-24T14:19:21Z</time>
      </trkpt>
      <trkpt lat="45.49854" lon="0.66633">
        <ele>236</ele>
        <time>2012-10-24T14:19:26Z</time>
      </trkpt>
      <trkpt lat="45.49865" lon="0.66621">
        <ele>236</ele>
        <time>2012-10-24T14:19:29Z</time>
      </trkpt>
      <trkpt lat="45.49879" lon="0.66606">
        <ele>236</ele>
        <time>2012-10-24T14:19:33Z</time>
      </trkpt>
      <trkpt lat="45.49894" lon="0.6659">
        <ele>236</ele>
        <time>2012-10-24T14:19:37Z</time>
      </trkpt>
      <trkpt lat="45.49909" lon="0.66575">
        <ele>235</ele>
        <time>2012-10-24T14:19:41Z</time>
      </trkpt>
      <trkpt lat="45.49929" lon="0.66553">
        <ele>236</ele>
        <time>2012-10-24T14:19:46Z</time>
      </trkpt>
      <trkpt lat="45.49941" lon="0.6654">
        <ele>236</ele>
        <time>2012-10-24T14:19:49Z</time>
      </trkpt>
      <trkpt lat="45.49964" lon="0.66519">
        <ele>237</ele>
        <time>2012-10-24T14:19:54Z</time>
      </trkpt>
      <trkpt lat="45.49981" lon="0.66501">
        <ele>238</ele>
        <time>2012-10-24T14:19:58Z</time>
      </trkpt>
      <trkpt lat="45.49997" lon="0.66484">
        <ele>238</ele>
        <time>2012-10-24T14:20:02Z</time>
      </trkpt>
      <trkpt lat="45.50006" lon="0.66477">
        <ele>240</ele>
        <time>2012-10-24T14:20:04Z</time>
      </trkpt>
      <trkpt lat="45.50025" lon="0.66467">
        <ele>241</ele>
        <time>2012-10-24T14:20:08Z</time>
      </trkpt>
      <trkpt lat="45.50048" lon="0.66467">
        <ele>241</ele>
        <time>2012-10-24T14:20:12Z</time>
      </trkpt>
      <trkpt lat="45.50079" lon="0.66483">
        <ele>241</ele>
        <time>2012-10-24T14:20:18Z</time>
      </trkpt>
      <trkpt lat="45.50103" lon="0.66502">
        <ele>240</ele>
        <time>2012-10-24T14:20:23Z</time>
      </trkpt>
      <trkpt lat="45.50108" lon="0.66507">
        <ele>240</ele>
        <time>2012-10-24T14:20:24Z</time>
      </trkpt>
      <trkpt lat="45.50146" lon="0.66535">
        <ele>241</ele>
        <time>2012-10-24T14:20:31Z</time>
      </trkpt>
      <trkpt lat="45.50161" lon="0.66548">
        <ele>240</ele>
        <time>2012-10-24T14:20:35Z</time>
      </trkpt>
      <trkpt lat="45.50172" lon="0.66563">
        <ele>244</ele>
        <time>2012-10-24T14:20:39Z</time>
      </trkpt>
      <trkpt lat="45.502" lon="0.66605">
        <ele>243</ele>
        <time>2012-10-24T14:20:47Z</time>
      </trkpt>
      <trkpt lat="45.50207" lon="0.66614">
        <ele>243</ele>
        <time>2012-10-24T14:20:49Z</time>
      </trkpt>
      <trkpt lat="45.50226" lon="0.66633">
        <ele>244</ele>
        <time>2012-10-24T14:20:54Z</time>
      </trkpt>
      <trkpt lat="45.50237" lon="0.66644">
        <ele>244</ele>
        <time>2012-10-24T14:20:57Z</time>
      </trkpt>
      <trkpt lat="45.50258" lon="0.66662">
        <ele>248</ele>
        <time>2012-10-24T14:21:03Z</time>
      </trkpt>
      <trkpt lat="45.50269" lon="0.66672">
        <ele>247</ele>
        <time>2012-10-24T14:21:06Z</time>
      </trkpt>
      <trkpt lat="45.50275" lon="0.66678">
        <ele>247</ele>
        <time>2012-10-24T14:21:08Z</time>
      </trkpt>
      <trkpt lat="45.50289" lon="0.66693">
        <ele>248</ele>
        <time>2012-10-24T14:21:12Z</time>
      </trkpt>
      <trkpt lat="45.50318" lon="0.66718">
        <ele>249</ele>
        <time>2012-10-24T14:21:19Z</time>
      </trkpt>
      <trkpt lat="45.50328" lon="0.66725">
        <ele>249</ele>
        <time>2012-10-24T14:21:21Z</time>
      </trkpt>
      <trkpt lat="45.50355" lon="0.66736">
        <ele>253</ele>
        <time>2012-10-24T14:21:27Z</time>
      </trkpt>
      <trkpt lat="45.50384" lon="0.66736">
        <ele>253</ele>
        <time>2012-10-24T14:21:34Z</time>
      </trkpt>
      <trkpt lat="45.50399" lon="0.66728">
        <ele>254</ele>
        <time>2012-10-24T14:21:38Z</time>
      </trkpt>
      <trkpt lat="45.50415" lon="0.66716">
        <ele>254</ele>
        <time>2012-10-24T14:21:42Z</time>
      </trkpt>
      <trkpt lat="45.50428" lon="0.66707">
        <ele>252</ele>
        <time>2012-10-24T14:21:45Z</time>
      </trkpt>
      <trkpt lat="45.5045" lon="0.6669">
        <ele>252</ele>
        <time>2012-10-24T14:21:50Z</time>
      </trkpt>
      <trkpt lat="45.50466" lon="0.66672">
        <ele>251</ele>
        <time>2012-10-24T14:21:54Z</time>
      </trkpt>
      <trkpt lat="45.5049" lon="0.66652">
        <ele>252</ele>
        <time>2012-10-24T14:21:59Z</time>
      </trkpt>
      <trkpt lat="45.50513" lon="0.6664">
        <ele>251</ele>
        <time>2012-10-24T14:22:03Z</time>
      </trkpt>
      <trkpt lat="45.50536" lon="0.66634">
        <ele>251</ele>
        <time>2012-10-24T14:22:07Z</time>
      </trkpt>
      <trkpt lat="45.50573" lon="0.66647">
        <ele>250</ele>
        <time>2012-10-24T14:22:14Z</time>
      </trkpt>
      <trkpt lat="45.50583" lon="0.66655">
        <ele>249</ele>
        <time>2012-10-24T14:22:16Z</time>
      </trkpt>
      <trkpt lat="45.5061" lon="0.66683">
        <ele>244</ele>
        <time>2012-10-24T14:22:22Z</time>
      </trkpt>
      <trkpt lat="45.50636" lon="0.66708">
        <ele>243</ele>
        <time>2012-10-24T14:22:27Z</time>
      </trkpt>
      <trkpt lat="45.50647" lon="0.66719">
        <ele>243</ele>
        <time>2012-10-24T14:22:29Z</time>
      </trkpt>
      <trkpt lat="45.50679" lon="0.66751">
        <ele>243</ele>
        <time>2012-10-24T14:22:35Z</time>
      </trkpt>
      <trkpt lat="45.50684" lon="0.66757">
        <ele>243</ele>
        <time>2012-10-24T14:22:36Z</time>
      </trkpt>
      <trkpt lat="45.50705" lon="0.66778">
        <ele>243</ele>
        <time>2012-10-24T14:22:40Z</time>
      </trkpt>
      <trkpt lat="45.50725" lon="0.66799">
        <ele>243</ele>
        <time>2012-10-24T14:22:44Z</time>
      </trkpt>
      <trkpt lat="45.5076" lon="0.66837">
        <ele>243</ele>
        <time>2012-10-24T14:22:51Z</time>
      </trkpt>
      <trkpt lat="45.50771" lon="0.66848">
        <ele>243</ele>
        <time>2012-10-24T14:22:53Z</time>
      </trkpt>
      <trkpt lat="45.50805" lon="0.66877">
        <ele>242</ele>
        <time>2012-10-24T14:22:59Z</time>
      </trkpt>
      <trkpt lat="45.50811" lon="0.66881">
        <ele>242</ele>
        <time>2012-10-24T14:23:00Z</time>
      </trkpt>
      <trkpt lat="45.50831" lon="0.66892">
        <ele>242</ele>
        <time>2012-10-24T14:23:04Z</time>
      </trkpt>
      <trkpt lat="45.50847" lon="0.66899">
        <ele>242</ele>
        <time>2012-10-24T14:23:08Z</time>
      </trkpt>
      <trkpt lat="45.5086" lon="0.66907">
        <ele>242</ele>
        <time>2012-10-24T14:23:13Z</time>
      </trkpt>
      <trkpt lat="45.50862" lon="0.66915">
        <ele>242</ele>
        <time>2012-10-24T14:23:22Z</time>
      </trkpt>
      <trkpt lat="45.50867" lon="0.66921">
        <ele>241</ele>
        <time>2012-10-24T14:23:35Z</time>
      </trkpt>
      <trkpt lat="45.5087" lon="0.66924">
        <ele>241</ele>
        <time>2012-10-24T14:23:47Z</time>
      </trkpt>
      <trkpt lat="45.50872" lon="0.66928">
        <ele>241</ele>
        <time>2012-10-24T14:24:13Z</time>
      </trkpt>
      <trkpt lat="45.50869" lon="0.66934">
        <ele>241</ele>
        <time>2012-10-24T14:24:31Z</time>
      </trkpt>
      <trkpt lat="45.50854" lon="0.66943">
        <ele>241</ele>
        <time>2012-10-24T14:24:37Z</time>
      </trkpt>
      <trkpt lat="45.5084" lon="0.66952">
        <ele>240</ele>
        <time>2012-10-24T14:24:41Z</time>
      </trkpt>
      <trkpt lat="45.50815" lon="0.66971">
        <ele>238</ele>
        <time>2012-10-24T14:24:46Z</time>
      </trkpt>
      <trkpt lat="45.50781" lon="0.67007">
        <ele>232</ele>
        <time>2012-10-24T14:24:51Z</time>
      </trkpt>
      <trkpt lat="45.50759" lon="0.67045">
        <ele>229</ele>
        <time>2012-10-24T14:24:55Z</time>
      </trkpt>
      <trkpt lat="45.50752" lon="0.67054">
        <ele>228</ele>
        <time>2012-10-24T14:24:56Z</time>
      </trkpt>
      <trkpt lat="45.50726" lon="0.67095">
        <ele>223</ele>
        <time>2012-10-24T14:25:00Z</time>
      </trkpt>
      <trkpt lat="45.50693" lon="0.67139">
        <ele>221</ele>
        <time>2012-10-24T14:25:05Z</time>
      </trkpt>
      <trkpt lat="45.5068" lon="0.67158">
        <ele>221</ele>
        <time>2012-10-24T14:25:08Z</time>
      </trkpt>
      <trkpt lat="45.50668" lon="0.67176">
        <ele>218</ele>
        <time>2012-10-24T14:25:12Z</time>
      </trkpt>
      <trkpt lat="45.50655" lon="0.67212">
        <ele>217</ele>
        <time>2012-10-24T14:25:19Z</time>
      </trkpt>
      <trkpt lat="45.50652" lon="0.67225">
        <ele>216</ele>
        <time>2012-10-24T14:25:21Z</time>
      </trkpt>
      <trkpt lat="45.50646" lon="0.67233">
        <ele>216</ele>
        <time>2012-10-24T14:25:24Z</time>
      </trkpt>
      <trkpt lat="45.50647" lon="0.67238">
        <ele>216</ele>
        <time>2012-10-24T14:25:37Z</time>
      </trkpt>
      <trkpt lat="45.50654" lon="0.67253">
        <ele>213</ele>
        <time>2012-10-24T14:25:44Z</time>
      </trkpt>
      <trkpt lat="45.50667" lon="0.67268">
        <ele>212</ele>
        <time>2012-10-24T14:25:48Z</time>
      </trkpt>
      <trkpt lat="45.50676" lon="0.6728">
        <ele>212</ele>
        <time>2012-10-24T14:25:53Z</time>
      </trkpt>
      <trkpt lat="45.50676" lon="0.67298">
        <ele>212</ele>
        <time>2012-10-24T14:25:57Z</time>
      </trkpt>
      <trkpt lat="45.50678" lon="0.67312">
        <ele>212</ele>
        <time>2012-10-24T14:26:00Z</time>
      </trkpt>
      <trkpt lat="45.50688" lon="0.67333">
        <ele>212</ele>
        <time>2012-10-24T14:26:06Z</time>
      </trkpt>
      <trkpt lat="45.50696" lon="0.67331">
        <ele>212</ele>
        <time>2012-10-24T14:26:23Z</time>
      </trkpt>
      <trkpt lat="45.50702" lon="0.67333">
        <ele>212</ele>
        <time>2012-10-24T14:26:25Z</time>
      </trkpt>
      <trkpt lat="45.5071" lon="0.6733">
        <ele>212</ele>
        <time>2012-10-24T14:26:32Z</time>
      </trkpt>
      <trkpt lat="45.50721" lon="0.67322">
        <ele>212</ele>
        <time>2012-10-24T14:26:38Z</time>
      </trkpt>
      <trkpt lat="45.50731" lon="0.67317">
        <ele>212</ele>
        <time>2012-10-24T14:26:43Z</time>
      </trkpt>
      <trkpt lat="45.5074" lon="0.67313">
        <ele>212</ele>
        <time>2012-10-24T14:26:47Z</time>
      </trkpt>
      <trkpt lat="45.50758" lon="0.67301">
        <ele>216</ele>
        <time>2012-10-24T14:26:55Z</time>
      </trkpt>
      <trkpt lat="45.50771" lon="0.67297">
        <ele>216</ele>
        <time>2012-10-24T14:27:01Z</time>
      </trkpt>
      <trkpt lat="45.50777" lon="0.67295">
        <ele>217</ele>
        <time>2012-10-24T14:27:05Z</time>
      </trkpt>
      <trkpt lat="45.50786" lon="0.67293">
        <ele>217</ele>
        <time>2012-10-24T14:27:10Z</time>
      </trkpt>
      <trkpt lat="45.50796" lon="0.6729">
        <ele>218</ele>
        <time>2012-10-24T14:27:15Z</time>
      </trkpt>
      <trkpt lat="45.50802" lon="0.67287">
        <ele>218</ele>
        <time>2012-10-24T14:27:21Z</time>
      </trkpt>
      <trkpt lat="45.50805" lon="0.6729">
        <ele>218</ele>
        <time>2012-10-24T14:27:31Z</time>
      </trkpt>
      <trkpt lat="45.50805" lon="0.6728">
        <ele>218</ele>
        <time>2012-10-24T14:27:37Z</time>
      </trkpt>
      <trkpt lat="45.50809" lon="0.67279">
        <ele>218</ele>
        <time>2012-10-24T14:27:47Z</time>
      </trkpt>
      <trkpt lat="45.50818" lon="0.6728">
        <ele>219</ele>
        <time>2012-10-24T14:27:53Z</time>
      </trkpt>
      <trkpt lat="45.50823" lon="0.67277">
        <ele>219</ele>
        <time>2012-10-24T14:28:01Z</time>
      </trkpt>
      <trkpt lat="45.50828" lon="0.67279">
        <ele>219</ele>
        <time>2012-10-24T14:28:09Z</time>
      </trkpt>
      <trkpt lat="45.50832" lon="0.67281">
        <ele>219</ele>
        <time>2012-10-24T14:28:14Z</time>
      </trkpt>
      <trkpt lat="45.50837" lon="0.67283">
        <ele>227</ele>
        <time>2012-10-24T14:28:23Z</time>
      </trkpt>
      <trkpt lat="45.50841" lon="0.67283">
        <ele>227</ele>
        <time>2012-10-24T14:28:35Z</time>
      </trkpt>
      <trkpt lat="45.50846" lon="0.67289">
        <ele>228</ele>
        <time>2012-10-24T14:28:40Z</time>
      </trkpt>
      <trkpt lat="45.50844" lon="0.6728">
        <ele>227</ele>
        <time>2012-10-24T14:28:47Z</time>
      </trkpt>
      <trkpt lat="45.50839" lon="0.67274">
        <ele>226</ele>
        <time>2012-10-24T14:29:03Z</time>
      </trkpt>
      <trkpt lat="45.50834" lon="0.67272">
        <ele>226</ele>
        <time>2012-10-24T14:29:10Z</time>
      </trkpt>
      <trkpt lat="45.50838" lon="0.67274">
        <ele>226</ele>
        <time>2012-10-24T14:29:15Z</time>
      </trkpt>
      <trkpt lat="45.50834" lon="0.67272">
        <ele>226</ele>
        <time>2012-10-24T14:29:19Z</time>
      </trkpt>
      <trkpt lat="45.5083" lon="0.67272">
        <ele>219</ele>
        <time>2012-10-24T14:29:27Z</time>
      </trkpt>
      <trkpt lat="45.50825" lon="0.67271">
        <ele>219</ele>
        <time>2012-10-24T14:29:46Z</time>
      </trkpt>
      <trkpt lat="45.5083" lon="0.67273">
        <ele>219</ele>
        <time>2012-10-24T14:30:07Z</time>
      </trkpt>
      <trkpt lat="45.50827" lon="0.67278">
        <ele>219</ele>
        <time>2012-10-24T14:30:15Z</time>
      </trkpt>
      <trkpt lat="45.50823" lon="0.67279">
        <ele>219</ele>
        <time>2012-10-24T14:30:22Z</time>
      </trkpt>
      <trkpt lat="45.50821" lon="0.67284">
        <ele>219</ele>
        <time>2012-10-24T14:30:33Z</time>
      </trkpt>
      <trkpt lat="45.51236" lon="0.67251">
        <ele>223</ele>
        <time>2012-10-24T14:35:59Z</time>
      </trkpt>
      <trkpt lat="45.51246" lon="0.67257">
        <ele>222</ele>
        <time>2012-10-24T14:36:04Z</time>
      </trkpt>
      <trkpt lat="45.51245" lon="0.6725">
        <ele>221</ele>
        <time>2012-10-24T14:36:23Z</time>
      </trkpt>
      <trkpt lat="45.51248" lon="0.67242">
        <ele>221</ele>
        <time>2012-10-24T14:36:25Z</time>
      </trkpt>
      <trkpt lat="45.51254" lon="0.6723">
        <ele>218</ele>
        <time>2012-10-24T14:36:31Z</time>
      </trkpt>
      <trkpt lat="45.51257" lon="0.67226">
        <ele>218</ele>
        <time>2012-10-24T14:36:39Z</time>
      </trkpt>
      <trkpt lat="45.5125" lon="0.6723">
        <ele>223</ele>
        <time>2012-10-24T14:37:02Z</time>
      </trkpt>
      <trkpt lat="45.51251" lon="0.67225">
        <ele>218</ele>
        <time>2012-10-24T14:37:07Z</time>
      </trkpt>
      <trkpt lat="45.51258" lon="0.67223">
        <ele>218</ele>
        <time>2012-10-24T14:37:12Z</time>
      </trkpt>
      <trkpt lat="45.51274" lon="0.67223">
        <ele>217</ele>
        <time>2012-10-24T14:37:19Z</time>
      </trkpt>
      <trkpt lat="45.51283" lon="0.67222">
        <ele>217</ele>
        <time>2012-10-24T14:37:23Z</time>
      </trkpt>
      <trkpt lat="45.51293" lon="0.6722">
        <ele>217</ele>
        <time>2012-10-24T14:37:27Z</time>
      </trkpt>
      <trkpt lat="45.51304" lon="0.67219">
        <ele>216</ele>
        <time>2012-10-24T14:37:31Z</time>
      </trkpt>
      <trkpt lat="45.51314" lon="0.67217">
        <ele>216</ele>
        <time>2012-10-24T14:37:35Z</time>
      </trkpt>
      <trkpt lat="45.5132" lon="0.67216">
        <ele>216</ele>
        <time>2012-10-24T14:37:37Z</time>
      </trkpt>
      <trkpt lat="45.51327" lon="0.67214">
        <ele>216</ele>
        <time>2012-10-24T14:37:40Z</time>
      </trkpt>
      <trkpt lat="45.5134" lon="0.67214">
        <ele>213</ele>
        <time>2012-10-24T14:37:45Z</time>
      </trkpt>
      <trkpt lat="45.51347" lon="0.67213">
        <ele>213</ele>
        <time>2012-10-24T14:37:48Z</time>
      </trkpt>
      <trkpt lat="45.51365" lon="0.67213">
        <ele>213</ele>
        <time>2012-10-24T14:37:55Z</time>
      </trkpt>
      <trkpt lat="45.51372" lon="0.6721">
        <ele>213</ele>
        <time>2012-10-24T14:37:58Z</time>
      </trkpt>
      <trkpt lat="45.51381" lon="0.67209">
        <ele>213</ele>
        <time>2012-10-24T14:38:01Z</time>
      </trkpt>
      <trkpt lat="45.51391" lon="0.67207">
        <ele>213</ele>
        <time>2012-10-24T14:38:05Z</time>
      </trkpt>
      <trkpt lat="45.51403" lon="0.67205">
        <ele>212</ele>
        <time>2012-10-24T14:38:10Z</time>
      </trkpt>
      <trkpt lat="45.51417" lon="0.67203">
        <ele>211</ele>
        <time>2012-10-24T14:38:16Z</time>
      </trkpt>
      <trkpt lat="45.5143" lon="0.67202">
        <ele>211</ele>
        <time>2012-10-24T14:38:22Z</time>
      </trkpt>
      <trkpt lat="45.51441" lon="0.672">
        <ele>211</ele>
        <time>2012-10-24T14:38:26Z</time>
      </trkpt>
      <trkpt lat="45.51449" lon="0.67199">
        <ele>211</ele>
        <time>2012-10-24T14:38:29Z</time>
      </trkpt>
      <trkpt lat="45.51457" lon="0.67196">
        <ele>211</ele>
        <time>2012-10-24T14:38:32Z</time>
      </trkpt>
      <trkpt lat="45.51473" lon="0.67193">
        <ele>211</ele>
        <time>2012-10-24T14:38:37Z</time>
      </trkpt>
      <trkpt lat="45.5149" lon="0.67188">
        <ele>210</ele>
        <time>2012-10-24T14:38:42Z</time>
      </trkpt>
      <trkpt lat="45.51497" lon="0.67186">
        <ele>210</ele>
        <time>2012-10-24T14:38:44Z</time>
      </trkpt>
      <trkpt lat="45.51507" lon="0.67183">
        <ele>208</ele>
        <time>2012-10-24T14:38:48Z</time>
      </trkpt>
      <trkpt lat="45.51513" lon="0.67181">
        <ele>208</ele>
        <time>2012-10-24T14:38:54Z</time>
      </trkpt>
      <trkpt lat="45.51519" lon="0.67187">
        <ele>208</ele>
        <time>2012-10-24T14:39:10Z</time>
      </trkpt>
      <trkpt lat="45.51523" lon="0.67191">
        <ele>208</ele>
        <time>2012-10-24T14:39:16Z</time>
      </trkpt>
      <trkpt lat="45.51526" lon="0.67186">
        <ele>208</ele>
        <time>2012-10-24T14:39:25Z</time>
      </trkpt>
      <trkpt lat="45.5153" lon="0.67185">
        <ele>208</ele>
        <time>2012-10-24T14:39:38Z</time>
      </trkpt>
      <trkpt lat="45.51533" lon="0.6719">
        <ele>208</ele>
        <time>2012-10-24T14:39:58Z</time>
      </trkpt>
      <trkpt lat="45.51536" lon="0.67193">
        <ele>208</ele>
        <time>2012-10-24T14:40:29Z</time>
      </trkpt>
      <trkpt lat="45.51533" lon="0.67197">
        <ele>208</ele>
        <time>2012-10-24T14:41:27Z</time>
      </trkpt>
      <trkpt lat="45.51537" lon="0.67196">
        <ele>208</ele>
        <time>2012-10-24T14:42:17Z</time>
      </trkpt>
      <trkpt lat="45.51543" lon="0.67197">
        <ele>208</ele>
        <time>2012-10-24T14:42:26Z</time>
      </trkpt>
      <trkpt lat="45.51547" lon="0.672">
        <ele>208</ele>
        <time>2012-10-24T14:43:27Z</time>
      </trkpt>
      <trkpt lat="45.51549" lon="0.67206">
        <ele>208</ele>
        <time>2012-10-24T14:43:43Z</time>
      </trkpt>
      <trkpt lat="45.51555" lon="0.67215">
        <ele>208</ele>
        <time>2012-10-24T14:43:56Z</time>
      </trkpt>
      <trkpt lat="45.5155" lon="0.67218">
        <ele>208</ele>
        <time>2012-10-24T14:44:02Z</time>
      </trkpt>
      <trkpt lat="45.51546" lon="0.67217">
        <ele>209</ele>
        <time>2012-10-24T14:45:03Z</time>
      </trkpt>
      <trkpt lat="45.51555" lon="0.67212">
        <ele>208</ele>
        <time>2012-10-24T14:45:43Z</time>
      </trkpt>
      <trkpt lat="45.51562" lon="0.67213">
        <ele>208</ele>
        <time>2012-10-24T14:45:49Z</time>
      </trkpt>
      <trkpt lat="45.51568" lon="0.67216">
        <ele>208</ele>
        <time>2012-10-24T14:45:58Z</time>
      </trkpt>
      <trkpt lat="45.51573" lon="0.6722">
        <ele>208</ele>
        <time>2012-10-24T14:46:06Z</time>
      </trkpt>
      <trkpt lat="45.51578" lon="0.67228">
        <ele>208</ele>
        <time>2012-10-24T14:46:10Z</time>
      </trkpt>
      <trkpt lat="45.51588" lon="0.6724">
        <ele>207</ele>
        <time>2012-10-24T14:46:14Z</time>
      </trkpt>
      <trkpt lat="45.51593" lon="0.67254">
        <ele>207</ele>
        <time>2012-10-24T14:46:19Z</time>
      </trkpt>
      <trkpt lat="45.51598" lon="0.67263">
        <ele>207</ele>
        <time>2012-10-24T14:46:23Z</time>
      </trkpt>
      <trkpt lat="45.51602" lon="0.67266">
        <ele>207</ele>
        <time>2012-10-24T14:46:30Z</time>
      </trkpt>
      <trkpt lat="45.51605" lon="0.67271">
        <ele>207</ele>
        <time>2012-10-24T14:46:43Z</time>
      </trkpt>
      <trkpt lat="45.51613" lon="0.67269">
        <ele>207</ele>
        <time>2012-10-24T14:47:48Z</time>
      </trkpt>
      <trkpt lat="45.51629" lon="0.67247">
        <ele>204</ele>
        <time>2012-10-24T14:47:54Z</time>
      </trkpt>
      <trkpt lat="45.51633" lon="0.67241">
        <ele>204</ele>
        <time>2012-10-24T14:47:56Z</time>
      </trkpt>
      <trkpt lat="45.51649" lon="0.67216">
        <ele>204</ele>
        <time>2012-10-24T14:48:03Z</time>
      </trkpt>
      <trkpt lat="45.51654" lon="0.67207">
        <ele>204</ele>
        <time>2012-10-24T14:48:05Z</time>
      </trkpt>
      <trkpt lat="45.51674" lon="0.67183">
        <ele>203</ele>
        <time>2012-10-24T14:48:11Z</time>
      </trkpt>
      <trkpt lat="45.51692" lon="0.67164">
        <ele>202</ele>
        <time>2012-10-24T14:48:16Z</time>
      </trkpt>
      <trkpt lat="45.5172" lon="0.67136">
        <ele>202</ele>
        <time>2012-10-24T14:48:23Z</time>
      </trkpt>
      <trkpt lat="45.51727" lon="0.67126">
        <ele>202</ele>
        <time>2012-10-24T14:48:25Z</time>
      </trkpt>
      <trkpt lat="45.51736" lon="0.67107">
        <ele>201</ele>
        <time>2012-10-24T14:48:28Z</time>
      </trkpt>
      <trkpt lat="45.51747" lon="0.67084">
        <ele>199</ele>
        <time>2012-10-24T14:48:32Z</time>
      </trkpt>
      <trkpt lat="45.51753" lon="0.67067">
        <ele>199</ele>
        <time>2012-10-24T14:48:36Z</time>
      </trkpt>
      <trkpt lat="45.51758" lon="0.67058">
        <ele>199</ele>
        <time>2012-10-24T14:49:11Z</time>
      </trkpt>
      <trkpt lat="45.51778" lon="0.67028">
        <ele>199</ele>
        <time>2012-10-24T14:49:18Z</time>
      </trkpt>
      <trkpt lat="45.51789" lon="0.67009">
        <ele>199</ele>
        <time>2012-10-24T14:49:22Z</time>
      </trkpt>
      <trkpt lat="45.51794" lon="0.66999">
        <ele>197</ele>
        <time>2012-10-24T14:49:24Z</time>
      </trkpt>
      <trkpt lat="45.51812" lon="0.66973">
        <ele>197</ele>
        <time>2012-10-24T14:49:30Z</time>
      </trkpt>
      <trkpt lat="45.51818" lon="0.66964">
        <ele>196</ele>
        <time>2012-10-24T14:49:32Z</time>
      </trkpt>
      <trkpt lat="45.51833" lon="0.6695">
        <ele>196</ele>
        <time>2012-10-24T14:49:36Z</time>
      </trkpt>
      <trkpt lat="45.51851" lon="0.66935">
        <ele>196</ele>
        <time>2012-10-24T14:49:41Z</time>
      </trkpt>
      <trkpt lat="45.51863" lon="0.66906">
        <ele>194</ele>
      </trkpt>
      <trkpt lat="45.51851" lon="0.66865">
        <ele>193</ele>
      </trkpt>
      <trkpt lat="45.51842" lon="0.66859">
        <ele>193</ele>
      </trkpt>
      <trkpt lat="45.51833" lon="0.66854">
        <ele>194</ele>
      </trkpt>
      <trkpt lat="45.51827" lon="0.66846">
        <ele>194</ele>
      </trkpt>
      <trkpt lat="45.51833" lon="0.66844">
        <ele>193</ele>
      </trkpt>
      <trkpt lat="45.51836" lon="0.66844">
        <ele>193</ele>
      </trkpt>
      <trkpt lat="45.51836" lon="0.66844">
        <ele>193</ele>
      </trkpt>
      <trkpt lat="45.51905" lon="0.66729">
        <ele>190</ele>
      </trkpt>
      <trkpt lat="45.51982" lon="0.66628">
        <ele>190</ele>
      </trkpt>
      <trkpt lat="45.52037" lon="0.66579">
        <ele>188</ele>
      </trkpt>
      <trkpt lat="45.5207" lon="0.66506">
        <ele>188</ele>
      </trkpt>
      <trkpt lat="45.52163" lon="0.6648">
        <ele>190</ele>
      </trkpt>
      <trkpt lat="45.52199" lon="0.6648">
        <ele>189</ele>
      </trkpt>
      <trkpt lat="45.52249" lon="0.66387">
        <ele>184</ele>
      </trkpt>
      <trkpt lat="45.52283" lon="0.66292">
        <ele>170</ele>
      </trkpt>
      <trkpt lat="45.52296" lon="0.66212">
        <ele>163</ele>
      </trkpt>
      <trkpt lat="45.52301" lon="0.66073">
        <ele>178</ele>
      </trkpt>
      <trkpt lat="45.52315" lon="0.66064">
        <ele>178</ele>
      </trkpt>
      <trkpt lat="45.52338" lon="0.66061">
        <ele>178</ele>
      </trkpt>
      <trkpt lat="45.52357" lon="0.66049">
        <ele>178</ele>
      </trkpt>
      <trkpt lat="45.52385" lon="0.66065">
        <ele>176</ele>
      </trkpt>
      <trkpt lat="45.52396" lon="0.66062">
        <ele>176</ele>
      </trkpt>
      <trkpt lat="45.52427" lon="0.66003">
        <ele>181</ele>
      </trkpt>
      <trkpt lat="45.5247" lon="0.6594">
        <ele>186</ele>
      </trkpt>
      <trkpt lat="45.52522" lon="0.66">
        <ele>180</ele>
      </trkpt>
      <trkpt lat="45.52542" lon="0.66005">
        <ele>182</ele>
      </trkpt>
      <trkpt lat="45.52579" lon="0.65997">
        <ele>186</ele>
      </trkpt>
      <trkpt lat="45.52617" lon="0.66021">
        <ele>188</ele>
      </trkpt>
      <trkpt lat="45.52653" lon="0.66051">
        <ele>188</ele>
      </trkpt>
      <trkpt lat="45.52774" lon="0.66094">
        <ele>200</ele>
      </trkpt>
      <trkpt lat="45.52854" lon="0.66172">
        <ele>210</ele>
      </trkpt>
      <trkpt lat="45.52954" lon="0.66277">
        <ele>219</ele>
      </trkpt>
      <trkpt lat="45.53023" lon="0.66351">
        <ele>225</ele>
      </trkpt>
      <trkpt lat="45.53053" lon="0.6637">
        <ele>226</ele>
      </trkpt>
      <trkpt lat="45.53061" lon="0.66369">
        <ele>226</ele>
      </trkpt>
      <trkpt lat="45.53067" lon="0.66369">
        <ele>226</ele>
      </trkpt>
      <trkpt lat="45.53072" lon="0.66369">
        <ele>226</ele>
      </trkpt>
      <trkpt lat="45.53079" lon="0.66369">
        <ele>226</ele>
      </trkpt>
      <trkpt lat="45.53084" lon="0.66369">
        <ele>228</ele>
      </trkpt>
      <trkpt lat="45.53087" lon="0.66369">
        <ele>228</ele>
      </trkpt>
      <trkpt lat="45.53087" lon="0.66369">
        <ele>228</ele>
      </trkpt>
    </trkseg>
  </trk>
</gpx>